[[{"header":{"parameterUnit":"m.s-1","parameterCategory":1,"la1":31.0,"la2":29.5877,"lo1":-88.7671,"lo2":-86.6584,"dx":0.0162,"dy":0.0185,"nx":115,"ny":88,"refTime":"2022-12-02T18:00:00:Z","depth":0,"parameterNumber":2,"parameterNumberName":"U-component_of_WINDS"},"data":[0.0,0.0,0.0,0.0,0.0,0.0,0.0,0.0,0.0,0.0,0.0,0.0,0.0,0.0,0.0,0.0,0.0,0.0,0.0,0.0,0.0,0.0,0.0,0.0,0.0,0.0,0.0,0.0,0.0,0.0,0.0,0.0,0.0,0.0,0.0,0.0,0.0,0.0,0.0,0.0,0.0,0.0,0.0,0.0,0.0,0.0,0.0,0.0,0.0,0.0,0.0,0.0,0.0,0.0,0.0,0.0,0.0,0.0,0.0,0.0,0.0,0.0,0.0,0.0,0.0,0.0,0.0,0.0,0.0,0.0,0.0,0.0,0.0,0.0,0.0,0.0,0.0,0.0,0.0,0.0,0.0,0.0,0.0,0.0,0.0,0.0,0.0,0.0,0.0,0.0,0.0,0.0,0.0,0.0,0.0,0.0,0.0,0.0,0.0,0.0,0.0,0.0,0.0,0.0,0.0,0.0,0.0,0.0,0.0,0.0,0.0,0.0,0.0,0.0,0.0,0.0,0.0,0.0,0.0,0.0,0.0,0.0,0.0,0.0,0.0,0.0,0.0,0.0,0.0,0.0,0.0,0.0,0.0,0.0,0.0,0.0,0.0,0.0,0.0,0.0,0.0,0.0,0.0,0.0,0.0,0.0,0.0,0.0,0.0,0.0,0.0,0.0,0.0,0.0,0.0,0.0,0.0,0.0,0.0,0.0,0.0,0.0,0.0,0.0,0.0,0.0,0.0,0.0,0.0,0.0,0.0,0.0,0.0,0.0,0.0,0.0,0.0,0.0,0.0,0.0,0.0,0.0,0.0,0.0,0.0,0.0,0.0,0.0,0.0,0.0,0.0,0.0,0.0,0.0,0.0,0.0,0.0,0.0,0.0,0.0,0.0,0.0,0.0,0.0,0.0,0.0,0.0,0.0,0.0,0.0,0.0,0.0,0.0,0.0,0.0,0.0,0.0,0.0,0.0,0.0,0.0,0.0,0.0,0.0,0.0,0.0,0.0,0.0,0.0,0.0,0.0,0.0,0.0,0.0,0.0,0.0,0.0,0.0,0.0,0.0,0.0,0.0,0.0,0.0,0.0,0.0,0.0,0.0,0.0,0.0,0.0,0.0,0.0,0.0,0.0,0.0,0.0,0.0,0.0,0.0,0.0,0.0,0.0,0.0,0.0,0.0,0.0,0.0,0.0,0.0,0.0,0.0,0.0,0.0,0.0,0.0,0.0,0.0,0.0,0.0,0.0,0.0,0.0,0.0,0.0,0.0,0.0,0.0,0.0,0.0,0.0,0.0,0.0,0.0,0.0,0.0,0.0,0.0,0.0,0.0,0.0,0.0,0.0,0.0,0.0,0.0,0.0,0.0,0.0,0.0,0.0,0.0,0.0,0.0,0.0,0.0,0.0,0.0,0.0,0.0,0.0,0.0,0.0,0.0,0.0,0.0,0.0,0.0,0.0,0.0,0.0,0.0,0.0,0.0,0.0,0.0,0.0,0.0,0.0,0.0,0.0,0.0,0.0,0.0,0.0,0.0,0.0,0.0,0.0,0.0,0.0,0.0,0.0,0.0,0.0,0.0,0.0,0.0,0.0,0.0,0.0,0.0,0.0,0.0,0.0,0.0,0.0,0.0,0.0,0.0,0.0,0.0,0.0,0.0,0.0,0.0,0.0,0.0,0.0,0.0,0.0,0.0,0.0,0.0,0.0,0.0,0.0,0.0,0.0,0.0,0.0,0.0,0.0,0.0,0.0,0.0,0.0,0.0,0.0,0.0,0.0,0.0,0.0,0.0,0.0,0.0,0.0,0.0,0.0,0.0,0.0,0.0,0.0,0.0,0.0,0.0,0.0,0.0,0.0,0.0,0.0,0.0,0.0,0.0,0.0,0.0,0.0,0.0,0.0,0.0,0.0,0.0,0.0,0.0,0.0,0.0,0.0,0.0,0.0,0.0,0.0,0.0,0.0,0.0,0.0,0.0,0.0,0.0,0.0,0.0,0.0,0.0,0.0,0.0,0.0,0.0,0.0,0.0,0.0,0.0,0.0,0.0,0.0,0.0,0.0,0.0,0.0,0.0,0.0,0.0,0.0,0.0,0.0,0.0,0.0,0.0,0.0,0.0,0.0,0.0,0.0,0.0,0.0,0.0,0.0,0.0,0.0,0.0,0.0,0.0,0.0,0.0,0.0,0.0,0.0,0.0,0.0,0.0,0.0,0.0,0.0,0.0,0.0,0.0,0.0,0.0,0.0,0.0,0.0,0.0,0.0,0.0,0.0,0.0,0.0,0.0,0.0,0.0,0.0,0.0,0.0,0.0,0.0,0.0,0.0,0.0,0.0,0.0,0.0,0.0,0.0,0.0,0.0,0.0,0.0,0.0,0.0,0.0,0.0,0.0,0.0,0.0,0.0,0.0,0.0,0.0,0.0,0.0,0.0,0.0,0.0,0.0,0.0,0.0,0.0,0.0,0.0,0.0,0.0,0.0,0.0,0.0,0.0,0.0,0.0,0.0,0.0,0.0,0.0,0.0,0.0,0.0,0.0,0.0,0.0,0.0,0.0,0.0,0.0,0.0,0.0,0.0,0.0,0.0,0.0,0.0,0.0,0.0,0.0,0.0,0.0,0.0,0.0,0.0,0.0,0.0,0.0,0.0,0.0,0.0,0.0,0.0,0.0,0.0,0.0,0.0,0.0,0.0,0.0,0.0,0.0,0.0,0.0,0.0,0.0,0.0,0.0,0.0,0.0,0.0,0.0,0.0,0.0,0.0,0.0,0.0,0.0,0.0,0.0,0.0,0.0,0.0,0.0,0.0,0.0,0.0,0.0,0.0,0.0,0.0,0.0,0.0,0.0,0.0,0.0,0.0,0.0,0.0,0.0,0.0,0.0,0.0,0.0,0.0,0.0,0.0,0.0,0.0,0.0,0.0,0.0,0.0,0.0,0.0,0.0,0.0,0.0,0.0,0.0,0.0,0.0,0.0,0.0,0.0,0.0,0.0,0.0,0.0,0.0,0.0,0.0,0.0,0.0,0.0,0.0,0.0,0.0,0.0,0.0,0.0,0.0,0.0,0.0,0.0,0.0,0.0,0.0,0.0,0.0,0.0,0.0,0.0,0.0,0.0,0.0,0.0,0.0,0.0,0.0,0.0,0.0,0.0,0.0,0.0,0.0,0.0,0.0,0.0,0.0,0.0,0.0,0.0,0.0,0.0,0.0,0.0,0.0,0.0,0.0,0.0,0.0,0.0,0.0,0.0,0.0,0.0,0.0,0.0,0.0,0.0,0.0,0.0,0.0,0.0,0.0,0.0,0.0,0.0,0.0,0.0,0.0,0.0,0.0,0.0,0.0,0.0,0.0,0.0,0.0,0.0,0.0,0.0,0.0,0.0,0.0,0.0,0.0,0.0,0.0,0.0,0.0,0.0,0.0,0.0,0.0,0.0,0.0,0.0,0.0,0.0,0.0,0.0,0.0,0.0,0.0,0.0,0.0,0.0,0.0,0.0,0.0,0.0,0.0,0.0,0.0,0.0,0.0,0.0,0.0,0.0,0.0,0.0,0.0,0.0,0.0,0.0,0.0,0.0,0.0,0.0,0.0,0.0,0.0,0.0,0.0,0.0,0.0,0.0,0.0,0.0,0.0,0.0,0.0,0.0,0.0,0.0,0.0,0.0,0.0,0.0,0.0,0.0,0.0,0.0,0.0,0.0,0.0,0.0,0.0,0.0,0.0,0.0,0.0,0.0,0.0,0.0,0.0,0.0,0.0,0.0,0.0,0.0,0.0,0.0,0.0,0.0,0.0,0.0,0.0,0.0,0.0,0.0,0.0,0.0,0.0,0.0,0.0,0.0,0.0,0.0,0.0,0.0,0.0,0.0,0.0,0.0,0.0,0.0,0.0,0.0,0.0,0.0,0.0,0.0,0.0,0.0,0.0,0.0,0.0,0.0,0.0,0.0,0.0,0.0,0.0,0.0,0.0,0.0,0.0,0.0,0.0,0.0,0.0,0.0,0.0,0.0,0.0,0.0,0.0,0.0,0.0,0.0,0.0,0.0,0.0,0.0,0.0,0.0,0.0,0.0,0.0,0.0,0.0,0.0,0.0,0.0,0.0,0.0,0.0,0.0,0.0,0.0,0.0,0.0,0.0,0.0,0.0,0.0,0.0,0.0,0.0,0.0,0.0,0.0,0.0,0.0,0.0,0.0,0.0,0.0,0.0,0.0,0.0,0.0,0.0,0.0,0.0,0.0,0.0,0.0,0.0,0.0,-2.9306,0.0,0.0,0.0,-2.6683,0.0,0.0,0.0,0.0,0.0,0.0,0.0,0.0,0.0,0.0,0.0,0.0,0.0,0.0,0.0,0.0,0.0,0.0,0.0,0.0,0.0,0.0,0.0,0.0,0.0,0.0,0.0,0.0,0.0,0.0,0.0,0.0,0.0,0.0,0.0,0.0,0.0,0.0,0.0,0.0,0.0,0.0,0.0,0.0,0.0,0.0,0.0,0.0,0.0,0.0,0.0,0.0,0.0,0.0,0.0,0.0,0.0,0.0,0.0,0.0,0.0,0.0,0.0,0.0,0.0,0.0,0.0,0.0,0.0,0.0,0.0,0.0,0.0,0.0,0.0,0.0,0.0,0.0,0.0,0.0,0.0,0.0,0.0,0.0,0.0,0.0,0.0,0.0,0.0,0.0,0.0,0.0,0.0,0.0,0.0,0.0,0.0,0.0,0.0,0.0,0.0,0.0,0.0,0.0,0.0,0.0,0.0,0.0,0.0,0.0,-2.9055,-2.9945,-2.7866,-2.6919,-2.7348,0.0,0.0,0.0,0.0,0.0,0.0,0.0,0.0,0.0,0.0,0.0,0.0,0.0,0.0,0.0,0.0,0.0,0.0,0.0,0.0,0.0,0.0,0.0,0.0,0.0,0.0,0.0,0.0,0.0,0.0,0.0,0.0,0.0,0.0,0.0,0.0,0.0,0.0,0.0,0.0,0.0,0.0,0.0,0.0,0.0,0.0,0.0,0.0,0.0,0.0,0.0,0.0,0.0,0.0,0.0,0.0,0.0,0.0,0.0,0.0,0.0,0.0,0.0,0.0,0.0,0.0,0.0,0.0,0.0,0.0,0.0,0.0,0.0,0.0,0.0,0.0,0.0,0.0,0.0,0.0,0.0,0.0,0.0,0.0,0.0,0.0,0.0,0.0,0.0,0.0,0.0,0.0,0.0,0.0,0.0,0.0,0.0,0.0,0.0,0.0,0.0,0.0,0.0,0.0,0.0,0.0,0.0,0.0,0.0,0.0,0.0,0.0,-2.8272,-2.7108,-2.7331,0.0,0.0,0.0,0.0,0.0,0.0,0.0,0.0,0.0,0.0,0.0,0.0,0.0,0.0,0.0,0.0,0.0,0.0,0.0,0.0,0.0,0.0,0.0,0.0,0.0,0.0,0.0,0.0,0.0,0.0,0.0,0.0,0.0,0.0,0.0,0.0,0.0,0.0,0.0,0.0,0.0,0.0,0.0,0.0,0.0,0.0,0.0,0.0,0.0,0.0,0.0,0.0,0.0,0.0,0.0,0.0,0.0,0.0,0.0,0.0,0.0,0.0,0.0,0.0,0.0,0.0,0.0,0.0,0.0,0.0,0.0,0.0,0.0,0.0,0.0,0.0,0.0,0.0,0.0,0.0,0.0,0.0,0.0,0.0,0.0,0.0,0.0,0.0,0.0,0.0,0.0,0.0,0.0,0.0,0.0,0.0,0.0,0.0,0.0,0.0,0.0,0.0,0.0,0.0,0.0,0.0,0.0,0.0,0.0,0.0,-2.9631,-3.054,-2.8818,0.0,-2.5701,0.0,0.0,0.0,0.0,0.0,0.0,0.0,0.0,0.0,0.0,0.0,0.0,0.0,0.0,0.0,0.0,0.0,0.0,0.0,0.0,0.0,0.0,0.0,0.0,0.0,0.0,0.0,0.0,0.0,0.0,0.0,0.0,0.0,0.0,0.0,0.0,0.0,0.0,0.0,0.0,0.0,0.0,0.0,0.0,0.0,0.0,0.0,0.0,0.0,0.0,0.0,0.0,0.0,0.0,0.0,0.0,0.0,0.0,0.0,0.0,0.0,0.0,0.0,0.0,0.0,0.0,0.0,0.0,0.0,0.0,0.0,0.0,0.0,0.0,0.0,0.0,0.0,0.0,0.0,0.0,0.0,0.0,0.0,0.0,0.0,0.0,0.0,0.0,0.0,0.0,0.0,0.0,0.0,0.0,0.0,0.0,0.0,0.0,0.0,0.0,0.0,0.0,0.0,0.0,0.0,0.0,0.0,0.0,0.0,0.0,-2.955,-3.0465,-2.8746,-2.726,0.0,0.0,0.0,0.0,0.0,0.0,0.0,0.0,0.0,0.0,0.0,0.0,0.0,0.0,0.0,0.0,0.0,0.0,0.0,0.0,0.0,0.0,0.0,0.0,0.0,0.0,0.0,0.0,0.0,0.0,0.0,0.0,0.0,0.0,0.0,0.0,0.0,0.0,0.0,0.0,0.0,0.0,0.0,0.0,0.0,0.0,0.0,0.0,0.0,0.0,0.0,0.0,0.0,0.0,0.0,0.0,0.0,0.0,0.0,0.0,0.0,0.0,0.0,0.0,0.0,0.0,0.0,0.0,0.0,0.0,0.0,0.0,0.0,0.0,0.0,0.0,0.0,0.0,0.0,0.0,0.0,0.0,0.0,0.0,0.0,0.0,0.0,0.0,0.0,0.0,0.0,0.0,0.0,0.0,0.0,0.0,0.0,0.0,0.0,0.0,0.0,0.0,0.0,0.0,0.0,0.0,0.0,0.0,0.0,0.0,-2.8843,-2.8961,-2.9544,-2.8397,-2.7232,-2.6144,0.0,0.0,0.0,0.0,0.0,0.0,0.0,0.0,0.0,0.0,0.0,0.0,0.0,0.0,0.0,0.0,0.0,0.0,0.0,0.0,0.0,0.0,0.0,0.0,0.0,0.0,0.0,0.0,0.0,0.0,0.0,0.0,0.0,0.0,0.0,0.0,0.0,0.0,0.0,0.0,0.0,0.0,0.0,0.0,0.0,0.0,0.0,0.0,0.0,0.0,0.0,0.0,0.0,0.0,0.0,0.0,0.0,0.0,0.0,0.0,0.0,0.0,0.0,0.0,0.0,0.0,0.0,0.0,0.0,0.0,0.0,0.0,0.0,0.0,0.0,0.0,0.0,0.0,0.0,0.0,0.0,0.0,0.0,0.0,0.0,0.0,0.0,0.0,0.0,0.0,0.0,0.0,0.0,0.0,0.0,0.0,0.0,0.0,0.0,0.0,0.0,0.0,0.0,0.0,0.0,0.0,0.0,0.0,-2.8898,-2.8189,-2.7781,-2.7896,-2.7812,-2.6985,0.0,0.0,0.0,0.0,0.0,0.0,0.0,0.0,0.0,0.0,0.0,0.0,0.0,0.0,0.0,0.0,0.0,0.0,0.0,0.0,0.0,0.0,0.0,0.0,0.0,0.0,0.0,0.0,0.0,0.0,0.0,0.0,0.0,0.0,0.0,0.0,0.0,0.0,0.0,0.0,0.0,0.0,0.0,0.0,0.0,0.0,0.0,0.0,0.0,0.0,0.0,0.0,0.0,0.0,0.0,0.0,0.0,0.0,0.0,0.0,0.0,0.0,0.0,0.0,0.0,0.0,0.0,0.0,0.0,0.0,0.0,0.0,0.0,0.0,0.0,0.0,0.0,0.0,0.0,0.0,0.0,0.0,0.0,0.0,0.0,0.0,0.0,0.0,0.0,0.0,0.0,0.0,0.0,0.0,0.0,0.0,0.0,0.0,0.0,0.0,0.0,0.0,0.0,0.0,0.0,0.0,0.0,0.0,0.0,-2.7359,-2.7554,-2.8108,-2.9022,-2.8141,-2.7043,0.0,0.0,0.0,0.0,0.0,0.0,0.0,0.0,0.0,0.0,0.0,0.0,0.0,0.0,0.0,0.0,0.0,0.0,0.0,0.0,0.0,0.0,0.0,0.0,0.0,0.0,0.0,0.0,0.0,0.0,0.0,0.0,0.0,0.0,0.0,0.0,0.0,0.0,0.0,0.0,0.0,0.0,0.0,0.0,0.0,0.0,0.0,0.0,0.0,0.0,0.0,0.0,0.0,0.0,0.0,0.0,0.0,0.0,0.0,0.0,0.0,0.0,0.0,0.0,0.0,0.0,0.0,0.0,0.0,0.0,0.0,0.0,0.0,0.0,0.0,0.0,0.0,0.0,0.0,0.0,0.0,0.0,0.0,0.0,0.0,0.0,0.0,0.0,0.0,0.0,0.0,0.0,0.0,0.0,0.0,0.0,0.0,0.0,0.0,0.0,0.0,0.0,0.0,0.0,0.0,0.0,0.0,0.0,0.0,-2.6747,-2.749,-2.8245,-2.8966,-2.7755,-2.6661,0.0,0.0,0.0,0.0,0.0,0.0,0.0,0.0,0.0,0.0,0.0,0.0,0.0,0.0,0.0,0.0,0.0,0.0,0.0,0.0,0.0,0.0,0.0,0.0,0.0,0.0,0.0,0.0,0.0,0.0,0.0,0.0,0.0,0.0,0.0,0.0,0.0,0.0,0.0,0.0,0.0,0.0,0.0,0.0,0.0,0.0,0.0,0.0,0.0,0.0,0.0,0.0,0.0,0.0,0.0,0.0,0.0,0.0,0.0,0.0,0.0,0.0,0.0,0.0,0.0,0.0,0.0,0.0,0.0,0.0,0.0,0.0,0.0,0.0,0.0,0.0,0.0,0.0,0.0,0.0,0.0,0.0,0.0,0.0,0.0,0.0,0.0,0.0,0.0,0.0,0.0,0.0,0.0,0.0,0.0,0.0,0.0,0.0,0.0,0.0,0.0,0.0,0.0,0.0,0.0,0.0,0.0,0.0,-2.5776,-2.7253,-2.798,-2.8055,-2.7369,-2.6653,-2.5812,0.0,0.0,0.0,0.0,0.0,0.0,0.0,0.0,0.0,0.0,0.0,0.0,0.0,0.0,0.0,0.0,0.0,0.0,0.0,0.0,0.0,0.0,0.0,0.0,0.0,0.0,0.0,0.0,0.0,0.0,0.0,0.0,0.0,0.0,0.0,0.0,0.0,0.0,0.0,0.0,0.0,0.0,0.0,0.0,0.0,0.0,0.0,0.0,0.0,0.0,0.0,0.0,0.0,0.0,0.0,0.0,0.0,0.0,0.0,0.0,0.0,0.0,0.0,0.0,0.0,0.0,0.0,0.0,0.0,0.0,0.0,0.0,0.0,0.0,0.0,0.0,0.0,0.0,0.0,0.0,0.0,0.0,0.0,0.0,0.0,0.0,0.0,0.0,0.0,0.0,0.0,0.0,0.0,0.0,0.0,0.0,0.0,0.0,0.0,0.0,0.0,0.0,0.0,0.0,0.0,0.0,0.0,0.0,0.0,-2.7422,-2.7516,-2.8038,-2.8923,-2.766,-2.6574,0.0,0.0,0.0,0.0,0.0,0.0,0.0,0.0,0.0,0.0,0.0,0.0,0.0,0.0,0.0,0.0,0.0,0.0,0.0,0.0,0.0,0.0,0.0,0.0,0.0,0.0,0.0,0.0,0.0,0.0,0.0,0.0,0.0,0.0,0.0,0.0,0.0,0.0,0.0,0.0,0.0,0.0,0.0,0.0,0.0,0.0,0.0,0.0,0.0,0.0,0.0,0.0,0.0,0.0,0.0,0.0,0.0,0.0,0.0,0.0,0.0,0.0,0.0,0.0,0.0,0.0,0.0,0.0,0.0,0.0,0.0,0.0,0.0,0.0,0.0,0.0,0.0,0.0,0.0,0.0,0.0,0.0,0.0,0.0,0.0,0.0,0.0,0.0,0.0,0.0,0.0,0.0,0.0,0.0,0.0,0.0,0.0,0.0,0.0,0.0,0.0,0.0,0.0,0.0,0.0,0.0,0.0,0.0,0.0,-2.876,-2.8567,-2.8727,-2.9222,-2.8243,-2.7196,-2.6125,0.0,0.0,0.0,0.0,0.0,0.0,0.0,0.0,0.0,0.0,0.0,0.0,0.0,0.0,0.0,0.0,0.0,0.0,0.0,0.0,0.0,0.0,0.0,0.0,0.0,0.0,0.0,0.0,0.0,0.0,0.0,0.0,0.0,0.0,0.0,0.0,0.0,0.0,0.0,0.0,0.0,0.0,0.0,0.0,0.0,0.0,0.0,0.0,0.0,0.0,0.0,0.0,0.0,0.0,0.0,0.0,0.0,0.0,0.0,0.0,0.0,0.0,0.0,0.0,0.0,0.0,0.0,0.0,0.0,0.0,0.0,0.0,0.0,0.0,0.0,0.0,0.0,0.0,0.0,0.0,0.0,0.0,0.0,0.0,0.0,0.0,0.0,0.0,0.0,0.0,0.0,0.0,0.0,0.0,0.0,0.0,0.0,0.0,0.0,0.0,0.0,0.0,0.0,0.0,0.0,0.0,0.0,0.0,-3.0938,-3.0905,-3.0155,-2.8698,-2.8531,-2.7749,0.0,0.0,0.0,0.0,0.0,0.0,0.0,0.0,0.0,0.0,0.0,0.0,0.0,0.0,0.0,0.0,0.0,0.0,0.0,0.0,0.0,0.0,0.0,0.0,0.0,0.0,0.0,0.0,0.0,0.0,0.0,0.0,0.0,0.0,0.0,0.0,0.0,0.0,0.0,0.0,0.0,0.0,0.0,0.0,0.0,0.0,0.0,0.0,0.0,0.0,0.0,0.0,0.0,0.0,0.0,0.0,0.0,0.0,0.0,0.0,0.0,0.0,0.0,0.0,0.0,0.0,0.0,0.0,0.0,0.0,0.0,0.0,0.0,0.0,0.0,0.0,0.0,0.0,0.0,0.0,0.0,0.0,0.0,0.0,0.0,0.0,0.0,0.0,0.0,0.0,0.0,0.0,0.0,0.0,0.0,0.0,0.0,0.0,0.0,0.0,0.0,0.0,0.0,0.0,0.0,0.0,0.0,0.0,0.0,-3.1573,-3.3304,-3.3476,-3.1947,-3.0206,-2.882,0.0,0.0,0.0,0.0,0.0,0.0,0.0,0.0,0.0,0.0,0.0,0.0,0.0,0.0,0.0,0.0,0.0,0.0,0.0,0.0,0.0,0.0,0.0,0.0,0.0,0.0,0.0,0.0,0.0,0.0,0.0,0.0,0.0,0.0,0.0,0.0,0.0,0.0,0.0,0.0,0.0,0.0,0.0,0.0,0.0,0.0,0.0,0.0,0.0,0.0,0.0,0.0,0.0,0.0,0.0,0.0,0.0,0.0,0.0,0.0,0.0,0.0,0.0,0.0,0.0,0.0,0.0,0.0,0.0,0.0,0.0,0.0,0.0,0.0,0.0,0.0,0.0,0.0,0.0,0.0,0.0,0.0,0.0,0.0,0.0,0.0,0.0,0.0,0.0,0.0,0.0,0.0,0.0,0.0,0.0,0.0,0.0,0.0,0.0,0.0,0.0,0.0,0.0,0.0,0.0,0.0,0.0,0.0,-3.1663,-3.3288,-3.5719,-3.6389,-3.5205,-3.2171,-3.0027,0.0,0.0,0.0,0.0,0.0,0.0,0.0,0.0,0.0,0.0,0.0,0.0,0.0,0.0,0.0,0.0,0.0,0.0,0.0,0.0,0.0,0.0,0.0,0.0,0.0,0.0,0.0,0.0,0.0,0.0,0.0,0.0,0.0,0.0,0.0,0.0,0.0,0.0,0.0,0.0,0.0,0.0,0.0,0.0,0.0,0.0,0.0,0.0,0.0,0.0,0.0,0.0,0.0,0.0,0.0,0.0,0.0,0.0,0.0,0.0,0.0,0.0,0.0,0.0,0.0,0.0,0.0,0.0,0.0,0.0,0.0,0.0,0.0,0.0,0.0,0.0,0.0,0.0,0.0,0.0,0.0,0.0,0.0,0.0,0.0,0.0,0.0,0.0,0.0,0.0,0.0,0.0,0.0,0.0,0.0,0.0,0.0,0.0,0.0,0.0,0.0,0.0,0.0,0.0,0.0,0.0,0.0,0.0,-3.3772,-3.5631,-3.784,-3.8683,-3.7949,-3.4125,-3.1272,0.0,0.0,0.0,0.0,0.0,0.0,0.0,0.0,0.0,0.0,0.0,0.0,0.0,0.0,0.0,0.0,0.0,0.0,0.0,0.0,0.0,0.0,0.0,0.0,0.0,0.0,0.0,0.0,0.0,0.0,0.0,0.0,0.0,0.0,0.0,0.0,0.0,0.0,0.0,0.0,0.0,0.0,0.0,0.0,0.0,0.0,0.0,0.0,0.0,0.0,0.0,0.0,0.0,0.0,0.0,0.0,0.0,0.0,0.0,0.0,0.0,0.0,0.0,0.0,0.0,0.0,0.0,0.0,0.0,0.0,0.0,0.0,0.0,0.0,0.0,0.0,0.0,0.0,0.0,0.0,0.0,0.0,0.0,0.0,0.0,0.0,0.0,0.0,0.0,0.0,0.0,0.0,0.0,0.0,0.0,0.0,0.0,0.0,0.0,0.0,0.0,0.0,0.0,0.0,0.0,0.0,0.0,0.0,-3.4309,-3.7197,-3.847,-3.9013,-3.8822,-3.4951,-3.2083,0.0,0.0,0.0,0.0,0.0,0.0,0.0,0.0,0.0,0.0,0.0,0.0,0.0,0.0,0.0,0.0,0.0,0.0,0.0,0.0,0.0,0.0,0.0,0.0,0.0,0.0,0.0,0.0,0.0,0.0,0.0,0.0,0.0,0.0,0.0,0.0,0.0,0.0,0.0,0.0,0.0,0.0,0.0,0.0,0.0,0.0,0.0,0.0,-2.4373,0.0,0.0,0.0,0.0,0.0,0.0,0.0,0.0,0.0,0.0,0.0,0.0,0.0,0.0,0.0,0.0,0.0,0.0,0.0,0.0,0.0,0.0,0.0,0.0,0.0,0.0,0.0,0.0,0.0,0.0,0.0,0.0,0.0,0.0,0.0,0.0,0.0,0.0,0.0,0.0,0.0,0.0,0.0,0.0,0.0,0.0,0.0,0.0,0.0,0.0,0.0,0.0,0.0,0.0,0.0,0.0,0.0,0.0,0.0,-3.4779,-3.7618,-3.8571,-3.9021,-3.8934,-3.5913,-3.3294,0.0,0.0,0.0,0.0,0.0,0.0,0.0,0.0,0.0,0.0,0.0,0.0,0.0,0.0,0.0,0.0,0.0,0.0,0.0,0.0,0.0,0.0,0.0,0.0,0.0,0.0,0.0,0.0,0.0,0.0,0.0,0.0,0.0,0.0,0.0,0.0,0.0,0.0,0.0,0.0,0.0,0.0,0.0,0.0,0.0,0.0,0.0,0.0,0.0,0.0,0.0,0.0,0.0,0.0,0.0,0.0,0.0,0.0,0.0,0.0,0.0,0.0,0.0,0.0,0.0,0.0,0.0,0.0,0.0,0.0,0.0,0.0,0.0,0.0,0.0,0.0,0.0,0.0,0.0,0.0,0.0,0.0,0.0,0.0,0.0,0.0,0.0,0.0,0.0,0.0,0.0,0.0,0.0,0.0,0.0,0.0,0.0,0.0,0.0,0.0,0.0,0.0,0.0,0.0,0.0,0.0,0.0,-3.2771,-3.517,-3.7669,-3.8516,-3.8976,-3.9127,-3.6782,-3.4315,-3.1864,0.0,0.0,0.0,0.0,0.0,0.0,0.0,0.0,0.0,0.0,0.0,0.0,0.0,0.0,0.0,0.0,0.0,0.0,0.0,0.0,0.0,0.0,0.0,0.0,0.0,0.0,0.0,0.0,0.0,0.0,0.0,0.0,0.0,0.0,0.0,0.0,0.0,0.0,-2.2322,-2.293,0.0,0.0,0.0,0.0,0.0,0.0,0.0,0.0,-2.4665,0.0,0.0,0.0,0.0,0.0,0.0,0.0,0.0,0.0,0.0,0.0,0.0,0.0,0.0,0.0,0.0,0.0,0.0,0.0,0.0,0.0,0.0,0.0,0.0,0.0,0.0,0.0,0.0,0.0,0.0,0.0,0.0,0.0,0.0,0.0,0.0,0.0,0.0,0.0,0.0,0.0,0.0,0.0,0.0,0.0,0.0,0.0,0.0,0.0,0.0,0.0,0.0,0.0,0.0,0.0,0.0,-3.1201,-3.3072,-3.5492,-3.8494,-3.8792,-3.9206,-3.9812,-3.6998,-3.4266,-3.1802,0.0,0.0,0.0,0.0,0.0,0.0,0.0,0.0,0.0,0.0,0.0,0.0,0.0,0.0,0.0,0.0,0.0,0.0,0.0,0.0,0.0,0.0,0.0,0.0,0.0,0.0,0.0,0.0,0.0,0.0,0.0,0.0,0.0,0.0,0.0,0.0,0.0,0.0,0.0,-2.4071,-2.4691,0.0,0.0,0.0,0.0,0.0,0.0,0.0,0.0,-2.4998,0.0,0.0,0.0,0.0,0.0,0.0,0.0,0.0,0.0,0.0,0.0,0.0,0.0,0.0,0.0,0.0,0.0,0.0,0.0,0.0,0.0,0.0,0.0,0.0,0.0,0.0,0.0,0.0,0.0,0.0,0.0,0.0,0.0,0.0,0.0,0.0,0.0,0.0,0.0,0.0,0.0,0.0,0.0,0.0,0.0,0.0,0.0,0.0,0.0,0.0,0.0,0.0,0.0,0.0,0.0,-3.1489,-3.432,-3.6981,-3.9262,-3.9043,-3.9239,-3.9958,-3.7004,-3.4209,0.0,0.0,0.0,0.0,0.0,0.0,0.0,0.0,0.0,0.0,0.0,0.0,0.0,0.0,0.0,0.0,0.0,0.0,0.0,0.0,0.0,0.0,0.0,0.0,0.0,0.0,0.0,0.0,0.0,0.0,0.0,0.0,0.0,0.0,0.0,0.0,0.0,0.0,0.0,0.0,-2.4949,-2.553,-2.7136,0.0,0.0,0.0,0.0,0.0,0.0,-2.5876,-2.5346,0.0,0.0,0.0,0.0,0.0,0.0,0.0,0.0,0.0,0.0,0.0,0.0,0.0,0.0,0.0,0.0,0.0,0.0,0.0,0.0,0.0,0.0,0.0,0.0,0.0,0.0,0.0,0.0,0.0,0.0,0.0,0.0,0.0,0.0,0.0,0.0,0.0,0.0,0.0,0.0,0.0,0.0,0.0,0.0,0.0,0.0,0.0,0.0,0.0,0.0,0.0,0.0,0.0,0.0,0.0,-3.1556,-3.545,-3.8374,-4.001,-3.9409,-3.9403,-4.0123,-3.6827,-3.3961,0.0,0.0,0.0,0.0,0.0,0.0,0.0,0.0,0.0,0.0,0.0,0.0,0.0,0.0,0.0,0.0,0.0,0.0,0.0,0.0,0.0,0.0,0.0,0.0,0.0,0.0,0.0,0.0,0.0,0.0,0.0,0.0,0.0,0.0,0.0,0.0,0.0,0.0,0.0,0.0,0.0,-2.6247,-2.7672,-2.7364,0.0,0.0,0.0,0.0,-2.774,-2.682,0.0,0.0,0.0,0.0,0.0,0.0,0.0,0.0,0.0,0.0,0.0,0.0,0.0,0.0,0.0,0.0,0.0,0.0,0.0,0.0,0.0,0.0,0.0,0.0,0.0,0.0,0.0,0.0,0.0,0.0,0.0,0.0,0.0,0.0,0.0,0.0,0.0,0.0,0.0,0.0,0.0,0.0,0.0,0.0,0.0,0.0,0.0,0.0,0.0,0.0,0.0,0.0,0.0,0.0,0.0,0.0,-3.1501,-3.5436,-3.8649,-4.0783,-4.0191,-4.0155,-4.0873,-3.647,-3.3269,0.0,0.0,0.0,0.0,0.0,0.0,0.0,0.0,0.0,0.0,0.0,0.0,0.0,0.0,0.0,0.0,0.0,0.0,0.0,0.0,0.0,0.0,0.0,0.0,0.0,0.0,0.0,0.0,0.0,0.0,0.0,0.0,0.0,0.0,0.0,0.0,0.0,0.0,0.0,0.0,0.0,-2.6809,-2.7753,-2.7869,-2.7598,0.0,0.0,-2.7629,-2.6982,-2.7282,0.0,0.0,0.0,0.0,0.0,0.0,0.0,0.0,0.0,0.0,0.0,0.0,0.0,0.0,0.0,0.0,0.0,0.0,0.0,0.0,0.0,0.0,0.0,0.0,0.0,0.0,0.0,0.0,0.0,0.0,0.0,0.0,0.0,0.0,0.0,0.0,0.0,0.0,0.0,0.0,0.0,0.0,0.0,0.0,0.0,0.0,0.0,0.0,0.0,0.0,0.0,0.0,0.0,0.0,0.0,-3.139,-3.221,-3.6541,-3.9808,-4.1662,-4.1001,-4.0744,-4.1058,-3.729,-3.4301,0.0,0.0,0.0,0.0,0.0,0.0,0.0,0.0,0.0,0.0,0.0,0.0,0.0,0.0,0.0,0.0,0.0,0.0,0.0,0.0,0.0,0.0,0.0,0.0,0.0,0.0,0.0,0.0,0.0,0.0,0.0,0.0,0.0,0.0,0.0,0.0,0.0,0.0,0.0,0.0,0.0,0.0,-2.9033,-2.9255,0.0,0.0,0.0,-2.9016,-2.8236,0.0,0.0,0.0,0.0,0.0,0.0,0.0,0.0,0.0,0.0,0.0,0.0,0.0,0.0,0.0,0.0,0.0,0.0,0.0,0.0,0.0,0.0,0.0,0.0,0.0,0.0,0.0,0.0,0.0,0.0,0.0,0.0,0.0,0.0,0.0,0.0,0.0,0.0,0.0,0.0,0.0,0.0,0.0,0.0,0.0,0.0,0.0,0.0,0.0,0.0,0.0,0.0,0.0,0.0,0.0,0.0,0.0,-3.296,-3.7656,-4.1026,-4.2784,-4.1869,-4.139,-4.1334,-3.8285,0.0,0.0,0.0,0.0,0.0,0.0,0.0,0.0,0.0,0.0,0.0,0.0,0.0,0.0,0.0,0.0,0.0,0.0,0.0,0.0,0.0,0.0,0.0,0.0,0.0,0.0,0.0,-1.6436,0.0,0.0,0.0,0.0,0.0,0.0,0.0,0.0,0.0,0.0,0.0,0.0,0.0,0.0,-2.8364,-2.9714,-3.0122,-3.0224,0.0,0.0,-2.9959,-2.8997,-2.864,-2.8287,0.0,0.0,0.0,0.0,0.0,0.0,0.0,0.0,0.0,0.0,0.0,0.0,0.0,0.0,0.0,0.0,0.0,0.0,0.0,0.0,0.0,0.0,0.0,0.0,0.0,0.0,0.0,0.0,0.0,0.0,0.0,0.0,0.0,0.0,0.0,0.0,0.0,0.0,0.0,0.0,0.0,0.0,0.0,0.0,0.0,0.0,0.0,0.0,0.0,0.0,0.0,0.0,0.0,0.0,-3.2117,-3.3725,-3.8323,-4.1936,-4.4291,-4.2937,-4.2165,-4.2158,-3.909,-3.5817,0.0,0.0,0.0,0.0,0.0,0.0,0.0,0.0,0.0,0.0,0.0,0.0,0.0,0.0,0.0,0.0,0.0,0.0,0.0,0.0,0.0,0.0,0.0,0.0,0.0,0.0,0.0,0.0,0.0,0.0,0.0,0.0,0.0,0.0,0.0,0.0,0.0,0.0,0.0,0.0,0.0,-2.8128,-2.8968,-2.9791,-3.0017,0.0,-2.9773,-2.9741,-2.814,-2.912,-2.9297,-2.7153,0.0,0.0,0.0,0.0,0.0,0.0,0.0,0.0,0.0,0.0,0.0,0.0,0.0,0.0,0.0,0.0,0.0,0.0,0.0,0.0,0.0,0.0,0.0,0.0,0.0,0.0,0.0,0.0,0.0,0.0,0.0,0.0,0.0,0.0,0.0,0.0,0.0,0.0,0.0,0.0,0.0,0.0,0.0,0.0,0.0,0.0,0.0,0.0,0.0,0.0,0.0,0.0,0.0,-3.2592,-3.3744,-3.8399,-4.1993,-4.4309,-4.3396,-4.2848,-4.2865,-4.0708,-3.7972,0.0,0.0,0.0,0.0,0.0,0.0,0.0,0.0,0.0,0.0,0.0,0.0,0.0,0.0,0.0,0.0,0.0,0.0,0.0,0.0,0.0,0.0,0.0,0.0,0.0,0.0,0.0,0.0,-2.2151,-2.2564,-2.1929,0.0,0.0,0.0,0.0,0.0,0.0,0.0,0.0,0.0,0.0,-2.9448,-3.024,-3.1107,0.0,0.0,-3.0742,-3.0576,-2.9457,-2.9372,-2.898,-2.7618,-2.7379,0.0,0.0,0.0,0.0,0.0,0.0,0.0,0.0,0.0,0.0,0.0,0.0,0.0,0.0,0.0,0.0,0.0,0.0,0.0,0.0,0.0,0.0,0.0,0.0,0.0,0.0,0.0,0.0,0.0,0.0,0.0,0.0,0.0,0.0,0.0,0.0,0.0,0.0,0.0,0.0,0.0,0.0,0.0,0.0,0.0,0.0,0.0,0.0,0.0,0.0,0.0,0.0,-3.299,-3.4031,-3.868,-4.225,-4.4671,-4.3962,-4.3524,-4.3506,-4.2011,-3.9666,0.0,0.0,0.0,0.0,0.0,0.0,0.0,0.0,0.0,0.0,0.0,0.0,0.0,0.0,0.0,0.0,0.0,0.0,0.0,0.0,0.0,0.0,0.0,0.0,0.0,0.0,0.0,0.0,-2.34,-2.3759,-2.2639,0.0,0.0,0.0,0.0,0.0,0.0,0.0,0.0,0.0,0.0,-3.056,-3.1131,-3.1944,-3.2295,-3.1759,-3.1732,-3.1476,-3.0687,-3.0057,-2.9404,-2.8615,0.0,0.0,0.0,0.0,0.0,0.0,0.0,0.0,0.0,0.0,0.0,0.0,0.0,0.0,0.0,0.0,0.0,0.0,0.0,0.0,0.0,0.0,0.0,0.0,0.0,0.0,0.0,-2.2969,0.0,0.0,-2.1914,0.0,0.0,0.0,0.0,0.0,0.0,0.0,0.0,0.0,0.0,0.0,0.0,0.0,0.0,0.0,0.0,0.0,0.0,0.0,0.0,0.0,0.0,-3.3203,-3.4786,-3.9347,-4.2939,-4.5358,-4.4686,-4.4324,-4.4345,-4.2832,-4.0456,-3.7231,0.0,0.0,0.0,0.0,0.0,0.0,0.0,0.0,0.0,0.0,0.0,0.0,0.0,0.0,0.0,0.0,0.0,0.0,0.0,0.0,0.0,0.0,0.0,0.0,0.0,0.0,-2.0841,-2.2776,-2.419,0.0,0.0,0.0,0.0,0.0,0.0,0.0,0.0,0.0,-2.8591,-3.0165,-3.1167,-3.1203,-3.1963,-3.2514,-3.2446,-3.2494,-3.2271,-3.1494,-3.1297,-3.0991,0.0,0.0,0.0,0.0,0.0,0.0,0.0,0.0,0.0,0.0,0.0,0.0,0.0,0.0,0.0,0.0,0.0,0.0,0.0,0.0,0.0,0.0,0.0,0.0,0.0,0.0,0.0,-2.5515,-2.5249,0.0,0.0,0.0,0.0,0.0,0.0,0.0,0.0,0.0,0.0,0.0,-3.0361,-3.116,0.0,0.0,0.0,0.0,0.0,0.0,0.0,0.0,0.0,0.0,0.0,0.0,-3.3967,-3.5669,-4.011,-4.3698,-4.6076,-4.5387,-4.4971,-4.4991,-4.3938,-4.1231,-3.6608,0.0,0.0,0.0,0.0,0.0,0.0,0.0,0.0,0.0,0.0,0.0,0.0,0.0,0.0,0.0,0.0,0.0,0.0,0.0,0.0,0.0,0.0,0.0,0.0,0.0,-2.4291,0.0,0.0,0.0,0.0,0.0,0.0,0.0,0.0,0.0,0.0,-2.6385,-2.7736,-2.9319,-3.0425,-3.1252,-3.1778,-3.2611,-3.298,0.0,0.0,0.0,0.0,0.0,0.0,0.0,0.0,0.0,0.0,0.0,0.0,0.0,0.0,-2.727,-2.656,-2.6027,-2.5745,-2.6019,0.0,0.0,0.0,0.0,0.0,0.0,0.0,0.0,0.0,0.0,0.0,0.0,0.0,0.0,-2.7911,-2.7692,-2.7947,0.0,0.0,0.0,0.0,0.0,0.0,0.0,0.0,-3.2046,-3.2922,-3.3212,-3.425,-3.4504,-3.3996,-3.3728,-3.2651,0.0,0.0,0.0,0.0,0.0,0.0,0.0,0.0,-3.5542,-3.7221,-4.147,-4.4621,-4.6377,-4.5818,-4.5446,-4.5407,-4.4219,-4.1634,-3.7515,-3.5031,-3.2274,0.0,0.0,0.0,0.0,0.0,0.0,0.0,0.0,0.0,0.0,0.0,0.0,0.0,0.0,0.0,0.0,0.0,0.0,0.0,0.0,0.0,0.0,0.0,-2.6012,0.0,0.0,0.0,0.0,0.0,0.0,0.0,0.0,0.0,-2.6198,-2.7639,-2.9123,-3.0127,-3.1175,-3.2017,-3.2542,0.0,0.0,0.0,0.0,0.0,0.0,0.0,-3.1376,-3.0576,-3.0225,-2.9769,-2.8955,-2.9197,-2.9432,-2.9159,0.0,0.0,-2.7428,-2.7179,-2.7293,-2.7566,-2.8033,-2.847,-2.8761,-2.9204,-2.9719,0.0,0.0,0.0,0.0,-3.1258,0.0,0.0,0.0,-3.1255,-3.0782,0.0,-3.0873,0.0,0.0,0.0,0.0,-3.0026,-3.0752,0.0,0.0,-3.6633,-3.781,-3.7267,-3.868,-3.9441,-3.9351,-3.7123,-3.6399,-3.6922,-3.4851,0.0,0.0,0.0,0.0,0.0,0.0,-3.7856,-3.9563,-4.3337,-4.5725,-4.6502,-4.6026,-4.5749,-4.5655,-4.3663,-4.1683,-3.9878,-3.8342,-3.6464,-3.4014,-3.035,0.0,0.0,0.0,0.0,0.0,0.0,0.0,0.0,0.0,0.0,0.0,0.0,0.0,0.0,0.0,0.0,0.0,0.0,0.0,0.0,-2.5348,0.0,0.0,0.0,0.0,0.0,0.0,0.0,0.0,0.0,-2.8524,-2.7899,-2.9633,-3.1052,-3.1089,0.0,0.0,0.0,0.0,-3.384,-3.4621,-3.4117,-3.3682,-3.3682,-3.297,-3.2674,-3.3382,0.0,0.0,-3.132,-3.1098,-3.0794,-3.0153,-3.0536,-3.0496,-2.8962,-2.8741,-2.8996,-2.9699,-2.9862,-3.0189,-3.0861,-3.0912,-3.0998,-3.6671,0.0,0.0,0.0,0.0,-3.2233,-3.2609,-3.36,-3.302,-3.2621,-3.244,-3.2672,0.0,0.0,0.0,0.0,0.0,0.0,-3.3897,-3.5998,-3.752,-3.8952,-4.0365,-4.0818,-4.1343,-4.1814,-4.0619,-4.013,-4.0293,-3.9114,-3.6588,-3.2902,0.0,0.0,0.0,0.0,-3.9238,-4.1905,-4.4711,-4.6558,-4.7355,-4.7229,-4.6651,-4.5731,-4.3124,-4.1343,-4.053,-3.9373,-3.7161,-3.3818,-3.3079,0.0,0.0,0.0,0.0,0.0,0.0,0.0,0.0,0.0,0.0,0.0,0.0,0.0,0.0,0.0,0.0,0.0,0.0,0.0,-2.6847,-2.7414,-2.7887,0.0,0.0,0.0,0.0,0.0,0.0,0.0,0.0,0.0,-3.0911,-3.0472,-3.0812,0.0,0.0,-3.3828,-3.4935,-3.5147,-3.5201,-3.5437,-3.5305,0.0,-3.5175,-3.5006,-3.4733,-3.4347,-3.3607,-3.3176,-3.3535,-3.2647,-3.1976,-3.2299,-3.1632,-3.0822,-3.0459,-3.0328,-3.0432,-3.0631,-3.0667,-3.074,-3.0976,-3.1451,-3.1872,-3.9965,-3.8543,-3.6344,-3.5402,-3.5317,-3.483,-3.5344,-3.6472,-3.6001,-3.5783,-3.5802,-3.6091,-3.5439,-3.4096,-3.3773,0.0,0.0,0.0,-3.6743,-3.935,-3.9839,-4.0981,-4.2611,-4.2972,-4.3389,-4.3788,-4.3045,-4.2828,-4.3099,-4.1995,-4.0039,-3.7279,0.0,-3.603,-3.7062,-3.9711,-4.1977,-4.3842,-4.6011,-4.7223,-4.7385,-4.7191,-4.6676,-4.5845,-4.3862,-4.2387,-4.1557,-4.0704,-3.8721,-3.5449,-3.5005,-3.3222,0.0,0.0,0.0,0.0,0.0,0.0,0.0,0.0,0.0,0.0,0.0,-2.1507,-2.0756,0.0,0.0,0.0,-2.8288,-2.8803,-2.8943,-2.8791,0.0,0.0,0.0,0.0,0.0,0.0,0.0,-3.0039,-3.1266,-3.2327,-3.3074,-3.2339,-3.2361,-3.4117,-3.4353,-3.4824,-3.6091,0.0,-3.5928,-3.6218,-3.5985,-3.5786,-3.5786,-3.5833,-3.5652,-3.5168,-3.4697,-3.4516,-3.495,-3.4229,-3.3828,-3.4084,-3.3556,-3.2904,-3.2904,-3.2904,-3.2524,-3.1691,-3.1745,-3.2035,-3.2343,-3.2814,-3.323,-4.301,-4.2774,-3.9948,-3.8662,-3.8482,-3.8536,-3.9006,-3.9659,-3.9659,-3.9677,-3.9713,-4.0383,-3.9532,-3.7538,-3.6798,0.0,-3.9731,-3.8989,-4.0202,-4.2954,-4.3026,-4.3497,-4.4293,-4.5017,-4.5415,-4.5452,-4.4655,-4.4637,-4.5253,-4.3804,-4.3062,-4.3008,-4.1614,-4.08,-4.0872,-4.3607,-4.52,-4.5417,-4.707,-4.7632,-4.6926,-4.6334,-4.6042,-4.6024,-4.524,-4.4106,-4.2737,-4.2174,-4.0741,-3.8279,-3.6464,-3.4794,-3.3183,0.0,0.0,0.0,0.0,0.0,0.0,0.0,0.0,0.0,0.0,0.0,0.0,0.0,0.0,-3.0925,-3.19,0.0,-3.127,-2.9919,0.0,0.0,0.0,-2.8773,-3.1029,-3.1266,-3.1579,-3.2288,0.0,0.0,-3.4697,-3.4772,-3.5077,-3.5876,-3.5912,-3.6182,-3.6977,-3.649,-3.6272,-3.6995,-3.649,-3.6003,-3.6164,-3.6127,-3.6146,-3.6091,-3.5985,-3.6003,-3.6003,-3.5892,-3.5876,-3.5856,-3.5822,-3.5695,-3.575,-3.5569,-3.5113,-3.2922,-3.3085,-3.381,-3.4425,-3.4591,-3.4824,-4.3806,-4.3788,-4.3661,-4.2556,-4.0926,-4.1506,-4.1886,-4.2068,-4.2068,-4.2068,-4.2104,-4.2248,-4.2357,-4.2412,-4.2194,-4.2392,-4.2822,-4.2622,-4.2926,-4.3622,-4.4216,-4.4939,-4.5714,-4.5894,-4.629,-4.6758,-4.6074,-4.5804,-4.593,-4.4975,-4.4507,-4.4489,-4.4108,-4.3397,-4.2393,-4.3081,-4.4367,-4.6214,-4.6672,-4.687,-4.6868,-4.5975,-4.5511,-4.5485,-4.4361,-4.3593,-4.3217,-4.2352,-4.1199,-3.9682,-3.8747,-3.7346,-3.5408,-3.1444,0.0,0.0,0.0,0.0,0.0,0.0,0.0,0.0,0.0,-2.5445,-2.4686,0.0,-2.9166,0.0,-3.2879,-3.3719,-3.2904,-3.252,0.0,0.0,-3.0898,-3.0898,-3.2643,-3.2846,-3.3154,-3.3954,-3.4733,-3.553,-3.6325,-3.6433,-3.6725,-3.7504,-3.7104,-3.6995,-3.7774,-3.7774,-3.7685,-3.7828,-3.7703,-3.7631,-3.7594,-3.7631,-3.7631,-3.7631,-3.7631,-3.7612,-3.7612,-3.7105,-3.6725,-3.6687,-3.62,-3.5858,-3.584,-3.5786,-3.5659,-3.5062,-3.5113,-3.5261,-3.5478,-3.5514,-3.5587,-4.5164,-4.5236,-4.6051,-4.5399,-4.386,-4.3932,-4.3951,-4.3969,-4.3969,-4.3951,-4.3969,-4.3951,-4.4204,-4.4621,-4.4561,-4.4504,-4.4423,-4.4401,-4.4538,-4.489,-4.5342,-4.5953,-4.669,-4.669,-4.6906,-4.7284,-4.6888,-4.669,-4.6654,-4.6241,-4.6025,-4.6025,-4.6025,-4.5459,-4.4389,-4.4178,-4.4501,-4.5257,-4.5396,-4.5717,-4.6154,-4.5614,-4.5278,-4.5153,-4.4189,-4.3448,-4.3014,-4.2022,-4.1098,-4.0182,-3.9344,-3.8316,-3.696,-3.3358,-3.1376,0.0,0.0,0.0,0.0,0.0,0.0,0.0,0.0,0.0,0.0,0.0,-3.1547,-3.2095,-3.3951,-3.4808,-3.4009,-3.3954,-3.4027,-3.4298,-3.3951,-3.4314,-3.5892,-3.6073,-3.6363,-3.7142,-3.7324,-3.7576,-3.8009,-3.7686,-3.7615,-3.8051,-3.7692,-3.7566,-3.7997,-3.8105,-3.8088,-3.809,-3.8055,-3.8217,-3.8524,-3.8885,-3.9084,-3.9066,-3.8813,-3.8705,-3.8994,-3.8145,-3.7495,-3.7784,-3.7279,-3.6739,-3.6739,-3.6739,-3.6739,-3.6739,-3.6739,-3.6629,-3.6318,-3.6244,-3.63,-4.6504,-4.6595,-4.7352,-4.7301,-4.6595,-4.5906,-4.5617,-4.5617,-4.5617,-4.5599,-4.5617,-4.5617,-4.5599,-4.5617,-4.5459,-4.5397,-4.5377,-4.5309,-4.5662,-4.627,-4.6306,-4.6647,-4.7258,-4.7276,-4.7276,-4.7258,-4.7276,-4.7276,-4.7276,-4.7276,-4.7204,-4.7114,-4.7114,-4.6715,-4.5932,-4.5584,-4.4873,-4.3828,-4.4041,-4.4475,-4.5104,-4.4853,-4.4699,-4.4604,-4.4027,-4.3355,-4.2561,-4.1596,-4.0864,-4.0386,-3.9212,-3.8473,-3.8241,-3.5364,-3.3493,0.0,-3.0912,0.0,0.0,0.0,0.0,0.0,0.0,0.0,0.0,-3.3903,-3.463,-3.4033,-3.5369,-3.6003,-3.5421,-3.5333,-3.5928,-3.7267,-3.7448,-3.8028,-3.9333,-3.9532,-3.9768,-4.0438,-3.9913,-3.9497,-3.9443,-3.8776,-3.8291,-3.8562,-3.8581,-3.8636,-3.8563,-3.8309,-3.7985,-3.7899,-3.7899,-3.8132,-3.8726,-3.9373,-3.9787,-3.9876,-3.9463,-3.9391,-4.0002,-3.8996,-3.8276,-3.8816,-3.833,-3.7863,-3.7899,-3.7863,-3.7863,-3.7791,-3.7773,-3.761,-3.7121,-3.694,-3.7176,-4.6504,-4.6595,-4.7373,-4.7588,-4.7482,-4.7319,-4.7265,-4.7246,-4.7246,-4.7246,-4.7246,-4.7246,-4.7265,-4.7244,-4.7102,-4.6978,-4.6892,-4.6819,-4.6798,-4.6833,-4.6833,-4.6905,-4.7048,-4.7048,-4.7048,-4.7048,-4.7048,-4.7048,-4.7048,-4.7048,-4.6726,-4.6119,-4.6083,-4.5494,-4.441,0.0,0.0,0.0,-4.3951,-4.3937,-4.4173,-4.2652,-4.2042,-4.2465,-4.2365,0.0,-4.2637,-4.1878,-4.1426,-4.1283,-3.9721,0.0,0.0,0.0,0.0,0.0,0.0,0.0,0.0,0.0,0.0,0.0,-3.4137,-3.3876,-3.3151,-3.506,-3.6576,-3.7081,-3.8105,-3.8898,-3.9352,-3.9388,-3.9478,-3.9786,-3.984,-3.9949,-4.0275,-4.0239,-4.0275,-4.0384,-4.0202,-4.0039,-4.004,-3.9859,-4.0003,-4.047,-4.0721,-4.0971,-4.136,-3.9427,-3.8006,-3.7917,-3.8043,-3.7989,-3.8097,-3.8402,-3.8977,-3.9067,-3.9229,-3.9391,-3.9966,-3.9463,-3.887,-3.9067,-3.8456,-3.7899,-3.7899,-3.7899,-3.7881,-3.7899,-3.7899,-3.7863,-3.7718,-3.7683,-3.7934,-4.7102,-4.7138,-4.7554,-4.7699,0.0,-4.7699,-4.7699,-4.7699,-4.7699,-4.7699,-4.7699,-4.7699,-4.7699,-4.7696,-4.749,-4.7345,-4.7298,-4.716,-4.7066,-4.6998,-4.6998,-4.6998,-4.6998,-4.6998,-4.6998,-4.6998,-4.6998,-4.6998,-4.6998,-4.6998,-4.6783,-4.6391,-4.6391,-4.6064,-4.5468,-4.5513,-4.5204,-4.4542,-4.4312,-4.4287,-4.4403,-4.3435,-4.2757,-4.2451,-4.2367,0.0,0.0,0.0,0.0,0.0,0.0,0.0,0.0,-3.8456,0.0,-3.8506,-3.5996,-3.4953,-3.5988,-3.5705,-3.6078,-3.7452,-3.7917,-3.7578,-3.617,-3.7555,-3.8653,-3.9049,-3.9536,-4.0113,-4.0852,-4.0961,-4.1124,-4.1558,-4.1649,-4.165,-4.1687,-4.1631,-4.1593,-4.152,-4.112,-4.0811,-4.0793,-4.0395,-4.0322,-4.068,-4.0696,-4.0854,-4.1028,-4.0318,-3.946,-3.9011,-3.9279,-3.9476,-3.9548,-3.9871,-3.996,-4.0103,-3.9763,-3.9674,-3.9977,-3.91,-3.8474,-3.8778,-3.8294,-3.7757,-3.7757,-3.7775,-3.7757,-3.7739,-3.7739,-3.7739,-3.7775,-3.7757,-3.79,-4.7699,-4.7699,-4.7699,-4.7699,-4.7699,-4.7699,-4.7699,-4.7699,-4.7699,0.0,0.0,-4.7699,-4.7699,-4.7678,-4.7428,-4.7341,-4.7298,-4.7116,-4.702,-4.6998,-4.6998,-4.6998,-4.6998,-4.6998,-4.6998,-4.6998,-4.6998,-4.6998,-4.6998,-4.6998,-4.6998,-4.6998,-4.6998,-4.6998,-4.6998,-4.6998,-4.6383,-4.5152,-4.4775,-4.4686,-4.4832,-4.4582,-4.3929,-4.2886,-4.278,-4.2584,-4.2375,-4.198,-4.2196,-4.3011,-4.1698,-4.1384,-4.2178,-4.0139,-3.9261,-4.0053,-3.8807,-3.8457,-3.9486,-4.0174,-4.0609,-4.0772,-4.1466,-4.1284,-3.991,-4.0288,-4.0666,-4.0791,-4.0703,-4.0901,-4.153,-4.1601,-4.1929,-4.2692,-4.2764,-4.2767,-4.2844,-4.2785,-4.2653,-4.2673,-4.2017,-4.1562,-4.1525,-4.0983,-4.0584,-4.069,-4.0883,-4.0519,-4.0574,-4.0776,-4.0529,-3.9951,-4.0165,-4.0735,-4.0913,-4.1163,-4.1609,-4.1022,-4.0485,-4.0182,-4.0092,-3.9165,-3.854,-3.8968,-3.8344,-3.7863,-3.7648,-3.7631,-3.7595,-3.7595,-3.7595,-3.7595,-3.7595,-3.7649,-3.7739,-4.7699,-4.7699,-4.7699,-4.7699,-4.7699,-4.7699,-4.7699,-4.7699,-4.7699,-4.7699,-4.7699,-4.7699,-4.7699,-4.7696,-4.7533,-4.7407,-4.7298,-4.7223,-4.7111,-4.6998,-4.6998,-4.6998,-4.6998,-4.6998,-4.6998,-4.6998,-4.6998,-4.6998,-4.6998,-4.6998,-4.6998,-4.6998,-4.6998,-4.6998,-4.6998,-4.6998,-4.688,-4.6664,-4.5098,-4.4366,-4.4516,-4.3259,-4.2523,-4.2414,-4.2412,-4.2317,-4.2226,-4.2179,-4.2189,-4.2342,-4.2005,-4.2125,-4.281,-4.1981,-4.1983,-4.2981,-4.1636,-4.1013,-4.1592,-4.1258,-4.1635,-4.2995,-4.3742,-4.3771,-4.295,-4.2445,-4.2432,-4.2987,-4.2512,-4.2304,-4.2429,-4.2374,-4.2447,-4.2593,-4.2629,-4.2668,-4.2803,-4.2665,-4.2566,-4.2609,-4.236,-4.2152,-4.208,-4.1989,-4.2096,-4.2715,-4.2483,-4.2819,-4.2448,-4.1306,-4.0182,-3.9932,-3.9984,-4.0055,-4.036,-4.0162,-4.0663,-4.1038,-4.1002,-4.1002,-4.1448,-4.0842,-4.011,-3.9788,-3.9092,-3.8451,-3.7863,-3.7595,-3.7738,-3.7773,-3.7791,-3.7738,-3.7738,-3.7684,-3.7827,-4.7699,-4.7699,-4.7699,-4.7699,-4.7699,-4.7699,-4.7699,-4.7699,-4.7699,-4.7699,-4.7699,-4.7699,-4.7699,-4.7678,-4.7554,-4.7468,-4.7407,-4.7267,-4.7174,-4.7111,-4.7025,-4.6998,-4.6998,-4.6998,-4.6998,-4.6998,-4.6998,-4.6998,-4.6998,-4.6998,-4.6998,-4.6998,-4.6998,-4.6998,-4.6998,-4.6998,-4.6998,-4.698,-4.6171,-4.5635,-4.5404,-4.4722,-4.4242,-4.393,-4.3671,-4.347,-4.346,-4.3127,-4.3099,-4.3443,-4.2957,-4.2963,-4.3528,-4.2788,-4.2579,-4.308,-4.2323,-4.2158,-4.2828,-4.2926,-4.3536,-4.4807,-4.5118,-4.532,-4.5392,-4.3953,-4.3188,-4.3474,-4.2875,-4.245,-4.243,-4.243,-4.2488,-4.2546,-4.2528,-4.2588,-4.2667,-4.2586,-4.2524,-4.2526,-4.2407,-4.2308,-4.2308,-4.2308,-4.2397,-4.2787,-4.284,-4.2858,-4.2858,-4.1966,-4.1199,-4.1199,-4.1199,-4.1217,-4.1181,-4.1199,-4.1199,-4.1163,-4.1109,-4.1056,-4.1092,-4.0663,-4.0358,-3.9984,-3.9591,-3.9307,-3.8843,-3.8861,-3.8843,-3.8843,-3.8843,-3.8754,-3.838,-3.7952,-3.7755,-4.7699,-4.7699,-4.7699,-4.7699,-4.7699,-4.7699,-4.7699,-4.7699,-4.7699,-4.7699,-4.7699,-4.7699,-4.7699,-4.7696,-4.7575,-4.7511,-4.7428,-4.7312,-4.7219,-4.7151,-4.7043,-4.6998,-4.6998,-4.6998,-4.6998,-4.6998,-4.6998,-4.6998,-4.6998,-4.6998,-4.6998,-4.6998,-4.6998,-4.6998,-4.6998,-4.6998,-4.6998,-4.6998,-4.6998,-4.6819,-4.6405,-4.6398,-4.6094,-4.5528,-4.5081,-4.478,-4.4502,-4.4035,-4.4006,-4.444,-4.3857,-4.3712,-4.4232,-4.3393,-4.2875,-4.2845,-4.2617,-4.2778,-4.3504,-4.4221,-4.4896,-4.5609,-4.5757,-4.607,-4.6462,-4.491,-4.3768,-4.3661,-4.2876,-4.2308,-4.2308,-4.2308,-4.2346,-4.2445,-4.2463,-4.2486,-4.2548,-4.2488,-4.2483,-4.2483,-4.2387,-4.2308,-4.2308,-4.2308,-4.2325,-4.2343,-4.2308,-4.2308,-4.2308,-4.2308,-4.2308,-4.2308,-4.2308,-4.2218,-4.2308,-4.2254,-4.2004,-4.1431,-4.1395,-4.1234,-4.0824,-4.0556,-4.0342,-4.0324,-4.0217,-4.0019,-3.993,-3.9823,-3.9788,-3.9734,-3.9718,-3.9646,-3.9147,-3.8647,-3.797,-4.7699,-4.7699,-4.7699,-4.7699,-4.7699,-4.7699,-4.7699,-4.7699,-4.7699,-4.7699,-4.7699,-4.7699,-4.7699,-4.7696,-4.7678,-4.7554,-4.7323,-4.7298,-4.7205,-4.7043,-4.702,-4.6998,-4.6998,-4.6998,-4.6998,-4.6998,-4.6998,-4.6998,-4.6998,-4.6998,-4.6998,-4.6998,-4.6998,-4.6998,-4.6998,-4.6998,-4.6998,-4.6998,-4.6998,-4.6975,-4.6952,-4.6934,-4.6678,-4.6119,-4.6062,-4.5563,-4.4586,-4.4446,-4.4446,-4.4479,-4.4202,-4.4292,-4.4736,-4.4114,-4.3682,-4.3629,-4.3186,-4.3201,-4.3728,-4.4307,-4.466,-4.4749,-4.5392,-4.5784,-4.5873,-4.5013,-4.4478,-4.421,-4.3126,-4.2343,-4.2308,-4.2308,-4.2308,-4.2328,-4.2328,-4.2384,-4.2483,-4.2405,-4.2366,-4.2483,-4.2366,-4.2308,-4.2308,-4.2308,-4.2308,-4.2308,-4.2308,-4.2308,-4.2308,-4.2308,-4.2308,-4.2308,-4.2308,-4.2308,-4.2308,-4.2308,-4.2218,-4.2147,-4.2165,-4.1984,-4.1823,-4.1823,-4.1877,-4.1092,-4.0985,-4.077,-4.0289,-3.9895,-4.0002,-4.0217,-4.0146,-3.9895,-3.9825,-3.9609,-3.9111,-4.7699,-4.7699,-4.7699,-4.7699,-4.7699,-4.7699,-4.7699,-4.7699,-4.7699,-4.7699,-4.7699,-4.7699,-4.7699,-4.7699,-4.7699,-4.7636,-4.7533,-4.7363,-4.7236,-4.7165,-4.7066,-4.6998,-4.6998,-4.6998,-4.6998,-4.6998,-4.6998,-4.6998,-4.6998,-4.6998,-4.6998,-4.6998,-4.6998,-4.6998,-4.6998,-4.6998,-4.6998,-4.6998,-4.6998,-4.6998,-4.6998,-4.6998,-4.687,-4.6637,-4.6027,-4.5494,-4.5001,-4.468,-4.4502,-4.4507,-4.457,-4.4516,-4.4295,-4.387,-4.3412,-4.2983,-4.3182,-4.3384,-4.362,-4.4209,-4.4585,-4.4585,-4.487,-4.5066,-4.5071,-4.4418,-4.401,-4.3822,-4.2947,-4.2308,-4.2308,-4.2308,-4.2308,-4.2308,-4.2308,-4.2308,-4.2366,-4.2328,-4.2308,-4.2366,-4.2346,-4.2308,-4.2308,-4.2308,-4.2308,-4.2308,-4.2308,-4.2308,-4.2308,-4.2308,-4.2308,-4.2308,-4.2308,-4.2308,-4.2308,-4.2308,-4.2308,-4.2308,-4.2308,-4.2308,-4.2308,-4.2308,-4.2144,-4.1805,-4.1752,-4.1663,-4.1484,-4.1324,-4.1306,-4.1181,-4.0806,-4.061,-4.061,-4.0216,-3.9609,-4.7518,-4.7699,-4.7699,-4.7699,-4.7699,-4.7699,-4.7699,-4.7699,-4.7699,-4.7699,-4.7699,-4.7699,-4.7699,-4.7699,-4.7699,-4.7678,-4.7615,-4.7425,-4.7298,-4.7254,-4.707,-4.6998,-4.6998,-4.6998,-4.6998,-4.6998,-4.6998,-4.6998,-4.6998,-4.6998,-4.6998,-4.6998,-4.6998,-4.6998,-4.6998,-4.6998,-4.6998,-4.6998,-4.6998,-4.6998,-4.6998,-4.6998,-4.6998,-4.6934,-4.62,-4.5708,-4.5528,-4.5178,-4.4981,-4.4991,-4.4995,-4.4706,-4.4066,-4.3699,-4.3144,-4.2448,-4.2822,-4.3158,-4.3179,-4.3658,-4.3982,-4.4,-4.4143,-4.43,-4.4214,-4.387,-4.3605,-4.351,-4.2851,-4.2351,-4.2308,-4.2308,-4.2308,-4.2308,-4.2308,-4.2308,-4.2308,-4.2308,-4.2308,-4.2308,-4.2308,-4.2308,-4.2308,-4.2308,-4.2308,-4.2308,-4.2308,-4.2308,-4.2308,-4.2308,-4.2308,-4.2308,-4.2308,-4.2308,-4.2308,-4.2308,-4.2308,-4.2308,-4.2308,-4.2308,-4.2308,-4.2308,-4.2308,-4.2073,-4.2254,-4.2254,-4.2022,-4.2126,-4.2216,-4.2162,-4.1805,-4.1377,-4.1413,-4.0913,-4.0681,-4.7011,-4.7663,-4.7699,-4.7699,-4.7699,-4.7699,-4.7699,-4.7699,-4.7699,-4.7699,-4.7699,-4.7699,-4.7699,-4.7699,-4.7699,-4.7636,-4.7511,-4.7385,-4.7254,-4.7201,-4.7066,-4.6998,-4.6998,-4.6998,-4.6998,-4.6998,-4.6998,-4.6998,-4.6998,-4.6998,-4.6998,-4.6998,-4.6998,-4.6998,-4.6998,-4.6998,-4.6998,-4.6998,-4.6998,-4.6998,-4.6998,-4.6998,-4.6998,-4.698,-4.6911,-4.6572,-4.6211,-4.6119,-4.6087,-4.6112,-4.5442,-4.4923,-4.4569,-4.3886,-4.3161,-4.2465,-4.2379,-4.2397,-4.2415,-4.2522,-4.2501,-4.2555,-4.3179,-4.3554,-4.3554,-4.3516,-4.3486,-4.3557,-4.294,-4.251,-4.2348,-4.2328,-4.2328,-4.2308,-4.2308,-4.2308,-4.2308,-4.2308,-4.2308,-4.2308,-4.2308,-4.2308,-4.2308,-4.2308,-4.2308,-4.2308,-4.2308,-4.2308,-4.2308,-4.2308,-4.2308,-4.2308,-4.2308,-4.2308,-4.2308,-4.2308,-4.2308,-4.2308,-4.2308,-4.2308,-4.2308,-4.2308,-4.2308,-4.2308,-4.2308,-4.2308,-4.2308,-4.2308,-4.229,-4.2272,-4.2272,-4.2055,-4.193,-4.2144,-4.193,-4.7674,-4.7699,-4.7699,-4.7699,-4.7699,-4.7699,-4.7699,-4.7699,-4.7699,-4.7699,-4.7699,-4.7699,-4.7699,-4.7699,-4.7699,-4.7696,-4.7615,-4.7407,-4.7298,-4.7249,-4.707,-4.6998,-4.6998,-4.6998,-4.6998,-4.6998,-4.6998,-4.6998,-4.6998,-4.6998,-4.6998,-4.6998,-4.6998,-4.6998,-4.6998,-4.6998,-4.6998,-4.6998,-4.6998,-4.6998,-4.6998,-4.6998,-4.6998,-4.698,-4.6678,-4.6381,-4.6211,-4.6211,-4.6211,-4.6211,-4.6236,-4.6013,-4.5334,-4.4196,-4.3393,-4.3072,-4.2573,-4.2308,-4.2308,-4.2308,-4.2308,-4.2325,-4.2537,-4.2751,-4.2754,-4.2859,-4.294,-4.2884,-4.2861,-4.2647,-4.255,-4.249,-4.247,-4.2445,-4.2425,-4.2387,-4.2308,-4.2308,-4.2308,-4.2308,-4.2308,-4.2308,-4.2308,-4.2308,-4.2308,-4.2308,-4.2308,-4.2308,-4.2308,-4.2308,-4.2308,-4.2308,-4.2308,-4.2308,-4.2308,-4.2308,-4.2308,-4.2308,-4.2308,-4.2308,-4.2308,-4.2308,-4.2308,-4.2308,-4.2308,-4.2308,-4.2308,-4.2308,-4.2308,-4.2308,-4.2308,-4.2308,-4.2308,-4.2308,-4.2308,-4.835,-4.8043,-4.7787,-4.7699,-4.7699,-4.7699,-4.7699,-4.7699,-4.7699,-4.7699,-4.7699,-4.7699,-4.7699,-4.7699,-4.7699,-4.7699,-4.7657,-4.7407,-4.7298,-4.7298,-4.7093,-4.6998,-4.6998,-4.6998,-4.6998,-4.6998,-4.6998,-4.6998,-4.6998,-4.6998,-4.6998,-4.6998,-4.6998,-4.6998,-4.6998,-4.6998,-4.6998,-4.6998,-4.6998,-4.6998,-4.6998,-4.6998,-4.6998,-4.6934,-4.6637,-4.6471,-4.6453,-4.6471,-4.6471,-4.6518,-4.6801,-4.6623,-4.5784,-4.4357,-4.3479,-4.3408,-4.2733,-4.2308,-4.2308,-4.2308,-4.2308,-4.2308,-4.2308,-4.2308,-4.2325,-4.249,-4.2568,-4.2586,-4.2706,-4.2785,-4.2727,-4.2707,-4.2629,-4.2544,-4.2521,-4.2445,-4.2325,-4.2308,-4.2308,-4.2308,-4.2308,-4.2308,-4.2308,-4.2308,-4.2308,-4.2308,-4.2308,-4.2308,-4.2308,-4.2308,-4.2308,-4.2308,-4.2308,-4.2308,-4.2308,-4.2308,-4.2308,-4.2308,-4.2308,-4.2308,-4.2308,-4.2308,-4.2308,-4.2308,-4.229,-4.2308,-4.2308,-4.2308,-4.2308,-4.229,-4.2308,-4.2308,-4.2308,-4.2308,-4.2308,-4.8912,-4.88,-4.804,-4.7844,-4.7826,-4.7826,-4.7753,-4.7717,-4.7699,-4.7699,-4.7699,-4.7699,-4.7699,-4.7699,-4.7699,-4.7699,-4.7657,-4.7428,-4.7298,-4.7298,-4.7093,-4.6998,-4.6998,-4.6998,-4.6998,-4.6998,-4.6998,-4.6998,-4.6998,-4.6998,-4.6998,-4.6998,-4.6998,-4.6998,-4.6998,-4.6998,-4.6998,-4.6998,-4.6998,-4.6998,-4.6998,-4.6998,-4.6998,-4.6998,-4.6934,-4.6934,-4.6957,-4.6957,-4.6934,-4.6934,-4.6998,-4.6623,-4.5749,-4.4389,-4.3554,-4.3411,-4.2733,-4.2343,-4.2308,-4.2308,-4.2308,-4.2308,-4.2308,-4.2308,-4.2328,-4.249,-4.2589,-4.2609,-4.2785,-4.29,-4.2881,-4.2881,-4.2785,-4.2564,-4.2544,-4.2486,-4.2366,-4.2308,-4.2308,-4.2308,-4.2308,-4.2308,-4.2308,-4.2308,-4.2308,-4.2308,-4.2308,-4.2308,-4.2308,-4.2308,-4.2308,-4.2308,-4.2308,-4.2308,-4.2308,-4.2308,-4.2308,-4.2308,-4.2308,-4.2308,-4.2308,-4.2308,-4.2308,-4.229,-4.1984,-4.1984,-4.2236,-4.2236,-4.22,-4.2183,-4.2236,-4.2308,-4.2308,-4.2308,-4.2308,-4.9709,-4.9691,-4.9456,-4.9021,-4.8547,-4.8511,-4.8242,-4.7714,-4.7699,-4.7699,-4.7699,-4.7699,-4.7699,-4.7699,-4.7699,-4.7699,-4.7678,-4.7428,-4.7298,-4.7258,-4.7093,-4.6998,-4.6998,-4.6998,-4.6998,-4.6998,-4.6998,-4.6998,-4.6998,-4.6998,-4.6998,-4.6998,-4.6998,-4.6998,-4.6998,-4.6998,-4.6998,-4.6998,-4.6998,-4.6998,-4.6998,-4.6998,-4.6998,-4.6998,-4.6998,-4.6998,-4.6998,-4.6998,-4.6998,-4.6998,-4.6998,-4.6623,-4.5802,-4.4817,-4.4032,-4.3479,-4.2733,-4.2308,-4.2308,-4.2308,-4.2308,-4.2308,-4.2308,-4.2308,-4.2328,-4.2526,-4.2625,-4.2647,-4.2786,-4.2919,-4.2919,-4.2919,-4.2824,-4.2724,-4.2704,-4.2625,-4.2465,-4.2364,-4.2308,-4.2308,-4.2308,-4.2308,-4.2308,-4.2308,-4.2308,-4.2308,-4.2308,-4.2308,-4.2308,-4.2308,-4.2308,-4.2308,-4.2308,-4.2308,-4.2308,-4.2308,-4.2308,-4.2308,-4.2308,-4.2308,-4.2308,-4.2308,-4.2308,-4.2093,-4.1787,-4.1752,-4.2022,-4.2058,-4.1951,-4.2147,-4.2272,-4.2308,-4.2308,-4.2308,-4.2308,-5.0546,-5.0506,-5.0238,-4.98,-4.9365,-4.9347,-4.8894,-4.8224,-4.8131,-4.8007,-4.7772,-4.7699,-4.7699,-4.7699,-4.7699,-4.7699,-4.7675,-4.7407,-4.7298,-4.7276,-4.7075,-4.698,-4.6998,-4.6998,-4.6998,-4.6998,-4.6998,-4.6998,-4.6998,-4.6998,-4.6998,-4.6998,-4.6998,-4.6998,-4.6998,-4.6998,-4.6998,-4.6998,-4.6998,-4.6998,-4.6998,-4.6998,-4.6998,-4.6998,-4.6998,-4.6998,-4.6998,-4.6998,-4.6998,-4.6998,-4.6998,-4.673,-4.623,-4.5499,-4.4714,-4.3943,-4.3215,-4.2644,-4.2358,-4.2308,-4.2308,-4.2308,-4.2308,-4.2465,-4.2685,-4.2898,-4.2999,-4.3061,-4.3198,-4.3152,-4.2955,-4.2919,-4.2881,-4.286,-4.2803,-4.2706,-4.2544,-4.2425,-4.2387,-4.2366,-4.2328,-4.2346,-4.2346,-4.2308,-4.2308,-4.2308,-4.2308,-4.2308,-4.2308,-4.2308,-4.2308,-4.2308,-4.2308,-4.2308,-4.2308,-4.2308,-4.2308,-4.2308,-4.2308,-4.2308,-4.2308,-4.2269,-4.2269,-4.1752,-4.1413,-4.1377,-4.1573,-4.1466,-4.1395,-4.1787,-4.2236,-4.2308,-4.2308,-4.2308,-4.2308,-5.1402,-5.1249,-5.056,-5.0275,-5.0184,-5.0166,-4.9691,-4.9039,-4.8837,-4.8438,-4.7935,-4.7753,-4.7699,-4.7699,-4.7699,-4.7699,-4.7657,-4.7407,-4.7298,-4.7254,-4.7098,-4.6998,-4.6998,-4.6998,-4.6998,-4.6998,-4.6998,-4.6998,-4.6998,-4.6998,-4.6998,-4.6998,-4.6998,-4.6998,-4.6998,-4.6998,-4.6998,-4.6998,-4.6998,-4.6998,-4.6998,-4.6998,-4.6998,-4.6998,-4.6998,-4.6998,-4.6998,-4.6998,-4.6998,-4.6998,-4.6998,-4.6926,-4.6748,-4.6177,-4.5374,-4.4531,-4.3872,-4.3233,-4.2608,-4.2519,-4.2537,-4.2644,-4.2697,-4.2733,-4.345,-4.3641,-4.3655,-4.365,-4.3752,-4.3581,-4.3062,-4.2919,-4.29,-4.2881,-4.2823,-4.2706,-4.2544,-4.2503,-4.2483,-4.2463,-4.2405,-4.2346,-4.2425,-4.2366,-4.2308,-4.2308,-4.2308,-4.2308,-4.2308,-4.2308,-4.2308,-4.2308,-4.2308,-4.2308,-4.2308,-4.1897,-4.1879,-4.177,-4.1805,-4.1841,-4.2019,-4.2073,-4.1966,-4.1484,-4.0877,-4.0931,-4.0985,-4.086,-4.1127,-4.1663,-4.2004,-4.22,-4.2308,-4.2308,-4.2308,-5.2455,-5.2159,-5.1955,-5.152,-5.1013,-5.0999,-5.0506,-4.9745,-4.9144,-4.88,-4.8456,-4.7932,-4.7699,-4.7699,-4.7699,-4.7699,-4.7636,-4.7446,-4.7298,-4.7276,-4.7075,-4.702,-4.6998,-4.6998,-4.6998,-4.6998,-4.6998,-4.6998,-4.6998,-4.6998,-4.6998,-4.6998,-4.6998,-4.6998,-4.6998,-4.6998,-4.6998,-4.6998,-4.6998,-4.6998,-4.6998,-4.6998,-4.6998,-4.6998,-4.6998,-4.6998,-4.6998,-4.6998,-4.6998,-4.6998,-4.6998,-4.6694,-4.6248,-4.5963,-4.5534,-4.4728,-4.3996,-4.3732,-4.3822,-4.3483,-4.3447,-4.3946,-4.3839,-4.4089,-4.4285,-4.4407,-4.4265,-4.3973,-4.386,-4.3653,-4.308,-4.2919,-4.2881,-4.2841,-4.2803,-4.2725,-4.2588,-4.2526,-4.2463,-4.2366,-4.2346,-4.2346,-4.2366,-4.2346,-4.2308,-4.2308,-4.2308,-4.2308,-4.2308,-4.2308,-4.2308,-4.2308,-4.2308,-4.2308,-4.2165,-4.1663,-4.1359,-4.1217,-4.1145,-4.1074,-4.1359,-4.1645,-4.1448,-4.1127,-4.011,-3.9843,-4.0092,-4.0182,-4.0788,-4.1448,-4.1951,-4.2236,-4.229,-4.2308,-4.2308,-5.3224,-5.3008,-5.2828,-5.2488,-5.2065,-5.1864,-5.1362,-5.0565,-4.9764,-4.9184,-4.8782,-4.8058,-4.7717,-4.7699,-4.7699,-4.7699,-4.7657,-4.7407,-4.732,-4.7276,-4.7093,-4.702,-4.6998,-4.6998,-4.6998,-4.6998,-4.6998,-4.6998,-4.6998,-4.6998,-4.6998,-4.6998,-4.6998,-4.6998,-4.6998,-4.6998,-4.6998,-4.6998,-4.6998,-4.6998,-4.6998,-4.6998,-4.6998,-4.6998,-4.6998,-4.6998,-4.6998,-4.6998,-4.6998,-4.6998,-4.6962,-4.6766,-4.6373,-4.6284,-4.5945,-4.5156,-4.4674,-4.4589,-4.446,-4.4175,-4.4175,-4.4478,-4.4585,-4.4799,-4.5035,-4.519,-4.5008,-4.4845,-4.4494,-4.3987,-4.3419,-4.308,-4.2899,-4.2822,-4.2783,-4.2725,-4.2568,-4.2506,-4.2465,-4.2387,-4.2366,-4.2407,-4.2409,-4.2389,-4.2387,-4.2366,-4.2328,-4.2308,-4.2308,-4.2308,-4.2254,-4.22,-4.193,-4.177,-4.1484,-4.102,-4.0556,-4.0414,-4.0307,-4.0253,-4.0485,-4.0842,-4.0592,-4.0146,-3.9288,-3.886,-3.9199,-3.97,-4.0431,-4.1092,-4.1752,-4.2183,-4.2218,-4.2129,-4.2165,-5.3739,-5.3682,-5.3285,-5.3117,-5.2975,-5.2649,-5.2045,-5.1339,-5.042,-4.9673,-4.9003,-4.8116,-4.7717,-4.7699,-4.7699,-4.7696,-4.7675,-4.7407,-4.7298,-4.7209,-4.7093,-4.6998,-4.6998,-4.6998,-4.6998,-4.6998,-4.6998,-4.6998,-4.6998,-4.6998,-4.6998,-4.6998,-4.6998,-4.6998,-4.6998,-4.6998,-4.6998,-4.6998,-4.6998,-4.6998,-4.6998,-4.6998,-4.6998,-4.6998,-4.6998,-4.6998,-4.6998,-4.6998,-4.6998,-4.6998,-4.6998,-4.6962,-4.6944,-4.6985,-4.6641,-4.6034,-4.5695,-4.5374,-4.5013,-4.4906,-4.4817,-4.4995,-4.5013,-4.5142,-4.5731,-4.5806,-4.569,-4.5713,-4.5172,-4.4297,-4.3666,-4.3187,-4.2877,-4.2764,-4.2745,-4.2665,-4.2564,-4.2521,-4.2503,-4.2465,-4.2465,-4.2526,-4.2528,-4.2528,-4.2465,-4.2384,-4.2346,-4.2308,-4.2308,-4.2308,-4.2144,-4.1948,-4.1591,-4.1127,-4.0735,-4.0307,-3.9843,-3.9521,-3.9379,-3.9325,-3.9414,-3.9575,-3.9432,-3.904,-3.8629,-3.8469,-3.8558,-3.9182,-3.9968,-4.0431,-4.086,-4.1538,-4.2037,-4.1877,-4.1843,-5.3979,-5.3663,-5.3285,-5.3117,-5.3033,-5.269,-5.2412,-5.2086,-5.0691,-4.9945,-4.951,-4.8333,-4.7735,-4.7699,-4.7699,-4.7657,-4.7533,-4.7363,-4.7232,-4.707,-4.7025,-4.6998,-4.6998,-4.7002,-4.6998,-4.6998,-4.6998,-4.6998,-4.6998,-4.6998,-4.6998,-4.6998,-4.6998,-4.6998,-4.6998,-4.6998,-4.6998,-4.6998,-4.6998,-4.6998,-4.6998,-4.6998,-4.6998,-4.6998,-4.6998,-4.6998,-4.6998,-4.6998,-4.6998,-4.6998,-4.6998,-4.6998,-4.6998,-4.6998,-4.6873,-4.6623,-4.6141,-4.5998,-4.6248,-4.5891,-4.582,-4.6266,-4.6284,-4.6551,-4.6623,-4.6105,-4.59,-4.5724,-4.4806,-4.3901,-4.3286,-4.2965,-4.2763,-4.2645,-4.2584,-4.2564,-4.2503,-4.2521,-4.2463,-4.2425,-4.2445,-4.2465,-4.2407,-4.2486,-4.2445,-4.2384,-4.2346,-4.2308,-4.2254,-4.22,-4.1841,-4.1484,-4.0967,-4.0449,-4.0039,-3.9575,-3.9058,-3.8754,-3.8629,-3.854,-3.8611,-3.8701,-3.8719,-3.8522,-3.8219,-3.813,-3.813,-3.8594,-3.936,-3.9663,-4.0039,-4.0699,-4.1217,-4.127,-4.1556,-5.4449,-5.4209,-5.3814,-5.3663,-5.3566,-5.3014,-5.2568,-5.2014,-5.0722,-4.9894,-4.9329,-4.8206,-4.7717,-4.7699,-4.7678,-4.7636,-4.749,-4.7338,-4.7227,-4.7138,-4.707,-4.7043,-4.7066,-4.7025,-4.6998,-4.6998,-4.6998,-4.6998,-4.6998,-4.6998,-4.6998,-4.6998,-4.6998,-4.6998,-4.6998,-4.6998,-4.6998,-4.6998,-4.6998,-4.6998,-4.6998,-4.6998,-4.6998,-4.6998,-4.6998,-4.6998,-4.6998,-4.6998,-4.6998,-4.6998,-4.6998,-4.6998,-4.6998,-4.6998,-4.6998,-4.689,-4.6676,-4.6516,-4.673,-4.6659,-4.6516,-4.6944,-4.6998,-4.6998,-4.6819,-4.6266,-4.6172,-4.606,-4.519,-4.3924,-4.3274,-4.2908,-4.2739,-4.2564,-4.2521,-4.2521,-4.2483,-4.2445,-4.2427,-4.2427,-4.2486,-4.2468,-4.2468,-4.2486,-4.2483,-4.2425,-4.2308,-4.2234,-4.1627,-4.152,-4.1145,-4.0753,-4.0235,-3.9753,-3.9324,-3.8826,-3.8255,-3.8041,-3.7988,-3.7952,-3.7988,-3.8076,-3.8183,-3.8023,-3.788,-3.7791,-3.788,-3.8344,-3.8735,-3.9147,-3.9575,-4.0021,-4.0342,-4.0485,-4.0913,-5.4901,-5.4871,-5.4484,-5.4296,-5.4157,-5.336,-5.2612,-5.1891,-5.056,-4.9628,-4.8904,-4.8085,-4.7699,-4.7699,-4.7699,-4.7636,-4.7486,-4.7316,-4.7227,-4.7227,-4.7111,-4.7129,-4.7151,-4.7066,-4.702,-4.7043,-4.702,-4.6998,-4.6998,-4.6998,-4.6998,-4.6998,-4.6998,-4.6998,-4.6998,-4.6998,-4.6998,-4.6998,-4.6998,-4.6998,-4.6998,-4.6998,-4.6998,-4.6998,-4.6998,-4.6998,-4.6998,-4.6998,-4.6998,-4.6998,-4.6998,-4.6998,-4.6998,-4.6998,-4.6998,-4.6998,-4.6908,-4.6926,-4.6944,-4.6944,-4.6944,-4.6998,-4.6998,-4.6998,-4.6819,-4.6235,-4.6172,-4.6217,-4.567,-4.4324,-4.3686,-4.3055,-4.2679,-4.2506,-4.2483,-4.2503,-4.2503,-4.2425,-4.2427,-4.2508,-4.2506,-4.2486,-4.2468,-4.2468,-4.2486,-4.2445,-4.2331,-4.2019,-4.1413,-4.0931,-4.0628,-4.011,-3.9593,-3.9058,-3.8629,-3.8451,-3.7827,-3.772,-3.7595,-3.7595,-3.7595,-3.7738,-3.7862,-3.7773,-3.7648,-3.7595,-3.7666,-3.8005,-3.8397,-3.8719,-3.8915,-3.9165,-3.9432,-3.9681,-4.0199,-5.4901,-5.4871,-5.4484,-5.4296,-5.4115,-5.3051,-5.2474,-5.2028,-5.0349,-4.9492,-4.9157,-4.8211,-4.7762,-4.7741,-4.7699,-4.7618,-4.7511,-4.7359,-4.7272,-4.7245,-4.7174,-4.7174,-4.7174,-4.7066,-4.7066,-4.7129,-4.7066,-4.6998,-4.6998,-4.6998,-4.6998,-4.6998,-4.6998,-4.6998,-4.6998,-4.6998,-4.6998,-4.6998,-4.6998,-4.6998,-4.6998,-4.6998,-4.6998,-4.6998,-4.6998,-4.6998,-4.6998,-4.6998,-4.6998,-4.6998,-4.6998,-4.6998,-4.6998,-4.6998,-4.6998,-4.6998,-4.6998,-4.6998,-4.6998,-4.6998,-4.6998,-4.6998,-4.6998,-4.6998,-4.6676,-4.5838,-4.5864,-4.6261,-4.5807,-4.4555,-4.3686,-4.3028,-4.2557,-4.2387,-4.2445,-4.2506,-4.2528,-4.2506,-4.2463,-4.2506,-4.2503,-4.2483,-4.2465,-4.2447,-4.2425,-4.2297,-4.2114,-4.168,-4.1038,-4.061,-4.0289,-3.9664,-3.8986,-3.8433,-3.7934,-3.788,-3.7648,-3.7648,-3.7595,-3.7595,-3.7595,-3.7595,-3.7595,-3.7595,-3.7595,-3.7595,-3.772,-3.7845,-3.7916,-3.813,-3.8201,-3.8272,-3.8611,-3.8986,-3.936,-5.4901,-5.4886,-5.468,-5.4597,-5.438,-5.3258,-5.2485,-5.1928,-5.0435,-4.9473,-4.903,-4.8511,-4.8251,-4.8231,-4.8052,-4.7868,-4.7597,-4.7338,-4.7294,-4.7312,-4.7201,-4.7151,-4.7196,-4.7066,-4.7043,-4.7066,-4.702,-4.702,-4.6998,-4.6998,-4.6998,-4.6998,-4.6998,-4.6998,-4.6998,-4.6998,-4.6998,-4.6998,-4.6998,-4.6998,-4.6998,-4.6998,-4.6998,-4.6998,-4.6998,-4.6998,-4.6998,-4.6998,-4.6998,-4.6998,-4.6998,-4.6998,-4.6998,-4.6998,-4.6998,-4.6998,-4.6998,-4.6998,-4.6998,-4.6998,-4.6998,-4.6998,-4.6998,-4.6998,-4.673,-4.6105,-4.5681,-4.5948,-4.5778,-4.4773,-4.4174,-4.3143,-4.2532,-4.2366,-4.2425,-4.2524,-4.2526,-4.2524,-4.2503,-4.2483,-4.2445,-4.2425,-4.2445,-4.2407,-4.2366,-4.2203,-4.1933,-4.1324,-4.0681,-4.0164,-3.9753,-3.9004,-3.8344,-3.813,-3.772,-3.7666,-3.7595,-3.7595,-3.7595,-3.7595,-3.7595,-3.7595,-3.7595,-3.7595,-3.7595,-3.7595,-3.7631,-3.772,-3.7648,-3.7595,-3.7791,-3.7951,-3.8058,-3.8308,-3.8701,-5.4901,-5.4901,-5.4901,-5.4806,-5.4477,-5.3399,-5.2441,-5.1603,-5.0413,-4.9533,-4.8976,-4.8816,-4.8764,-4.8693,-4.8421,-4.8072,-4.7699,-4.7399,-4.7421,-4.7403,-4.7272,-4.7183,-4.7183,-4.7138,-4.7116,-4.7201,-4.7111,-4.7066,-4.702,-4.6998,-4.6998,-4.6998,-4.6998,-4.6998,-4.6998,-4.6998,-4.6998,-4.6998,-4.6998,-4.6998,-4.6998,-4.6998,-4.6998,-4.6998,-4.6998,-4.6998,-4.6998,-4.6998,-4.6998,-4.6998,-4.6998,-4.6998,-4.6998,-4.6998,-4.6998,-4.6998,-4.6998,-4.6998,-4.6998,-4.6998,-4.6998,-4.6998,-4.6998,-4.6998,-4.6913,-4.6467,-4.6043,-4.5775,-4.5258,-4.4856,-4.4364,-4.3298,-4.2565,-4.2366,-4.2425,-4.2521,-4.2503,-4.2521,-4.2503,-4.2463,-4.2387,-4.2313,-4.23,-4.2366,-4.2346,-4.2093,-4.1823,-4.1002,-4.0324,-3.9521,-3.8968,-3.8237,-3.7755,-3.7755,-3.7631,-3.7631,-3.7595,-3.7595,-3.7595,-3.7595,-3.7595,-3.7595,-3.7595,-3.7595,-3.7595,-3.7595,-3.7595,-3.7595,-3.7595,-3.7595,-3.7595,-3.7666,-3.7827,-3.788,-3.8076,-5.4901,-5.4901,-5.4901,-5.4503,-5.3768,-5.2853,-5.2025,-5.1187,-5.004,-4.9465,-4.927,-4.8988,-4.8833,-4.8694,-4.8458,-4.8072,-4.7783,-4.7615,-4.7529,-4.749,-4.7403,-4.7381,-4.7407,-4.732,-4.7298,-4.7316,-4.7294,-4.7143,-4.707,-4.7025,-4.7002,-4.7025,-4.7043,-4.702,-4.702,-4.702,-4.6998,-4.6998,-4.6998,-4.6998,-4.6998,-4.6998,-4.6998,-4.6998,-4.6998,-4.702,-4.702,-4.702,-4.7002,-4.702,-4.7002,-4.7002,-4.6998,-4.6998,-4.6998,-4.6998,-4.6998,-4.6998,-4.6998,-4.6998,-4.6998,-4.6998,-4.6998,-4.6998,-4.6949,-4.6941,-4.6552,-4.5802,-4.5197,-4.4721,-4.4293,-4.32,-4.254,-4.2366,-4.2425,-4.2483,-4.2521,-4.2508,-4.2526,-4.2273,-4.2145,-4.2121,-4.2101,-4.2203,-4.2272,-4.2022,-4.1611,-4.0717,-3.9914,-3.9075,-3.8504,-3.788,-3.7595,-3.7595,-3.7595,-3.7595,-3.7595,-3.7595,-3.7595,-3.7595,-3.7595,-3.7595,-3.7595,-3.7595,-3.7595,-3.7595,-3.7595,-3.7595,-3.7595,-3.7595,-3.7595,-3.7595,-3.7613,-3.7648,-3.7684,-5.4901,-5.4882,-5.4408,-5.4029,-5.3556,-5.2305,-5.1533,-5.1045,-5.0152,-4.9562,-4.9415,-4.922,-4.892,-4.8605,-4.8363,-4.809,-4.7762,-4.7636,-4.7554,-4.7511,-4.745,-4.7407,-4.7345,-4.7323,-4.7345,-4.7385,-4.7323,-4.7276,-4.7187,-4.7183,-4.7165,-4.7143,-4.7133,-4.7111,-4.7088,-4.7043,-4.702,-4.6998,-4.6998,-4.6998,-4.6998,-4.6998,-4.6998,-4.6998,-4.702,-4.7043,-4.7088,-4.702,-4.7043,-4.7088,-4.7111,-4.7111,-4.7133,-4.7138,-4.7143,-4.7111,-4.7129,-4.7084,-4.702,-4.702,-4.702,-4.698,-4.7002,-4.6998,-4.702,-4.703,-4.6749,-4.5873,-4.511,-4.4582,-4.4046,-4.2989,-4.2599,-4.2405,-4.2425,-4.2412,-4.2432,-4.2492,-4.246,-4.2171,-4.1848,-4.1647,-4.1502,-4.154,-4.1429,-4.1083,-4.0599,-3.9811,-3.9149,-3.8504,-3.8041,-3.772,-3.7595,-3.7595,-3.7595,-3.7595,-3.7595,-3.7595,-3.7595,-3.7595,-3.7595,-3.7595,-3.7595,-3.7595,-3.7595,-3.7595,-3.7595,-3.7595,-3.7595,-3.7595,-3.7595,-3.7595,-3.7595,-3.7613,-3.7631,-5.4787,-5.4541,-5.3954,-5.3575,-5.3252,-5.1798,-5.1073,-5.077,-5.0201,-4.9755,-4.9596,-4.9488,-4.9171,-4.8678,-4.8495,-4.8307,-4.7994,-4.7702,-4.766,-4.76,-4.7515,-4.7428,-4.745,-4.7428,-4.7407,-4.7385,-4.745,-4.7407,-4.7425,-4.7403,-4.7363,-4.732,-4.7249,-4.7223,-4.7201,-4.7138,-4.7116,-4.7093,-4.7093,-4.7093,-4.7093,-4.7075,-4.7093,-4.707,-4.7111,-4.7133,-4.7201,-4.7138,-4.7138,-4.7201,-4.7223,-4.7205,-4.7227,-4.7232,-4.7254,-4.7227,-4.7205,-4.7201,-4.7133,-4.7088,-4.7066,-4.7066,-4.707,-4.7116,-4.7093,-4.7053,-4.6927,-4.6306,-4.5207,-4.4535,-4.3838,-4.3027,-4.2453,-4.2387,-4.2425,-4.2356,-4.2253,-4.2115,-4.1833,-4.1348,-4.099,-4.0686,-4.0614,-4.0688,-4.0506,-4.0142,-3.9566,-3.8921,-3.8436,-3.8006,-3.7827,-3.7595,-3.7595,-3.7595,-3.7595,-3.7595,-3.7595,-3.7595,-3.7595,-3.7595,-3.7595,-3.7595,-3.7595,-3.7595,-3.7595,-3.7595,-3.7595,-3.7595,-3.7595,-3.7595,-3.7595,-3.7595,-3.7595,-3.7595,-3.7595,-5.4465,-5.3764,-5.3707,-5.3196,-5.2419,-5.1571,-5.0713,-5.012,-4.995,-4.9852,-4.9769,-4.9783,-4.9518,-4.9255,-4.8852,-4.8676,-4.8658,-4.7994,-4.7972,-4.7992,-4.7888,-4.7699,-4.7636,-4.7615,-4.7636,-4.7636,-4.7597,-4.7636,-4.7675,-4.7615,-4.749,-4.7341,-4.732,-4.732,-4.7298,-4.7254,-4.7232,-4.7232,-4.7232,-4.7254,-4.7254,-4.7254,-4.7254,-4.7254,-4.7276,-4.7298,-4.7298,-4.7276,-4.7276,-4.7298,-4.7298,-4.7316,-4.732,-4.7341,-4.7341,-4.732,-4.7298,-4.7276,-4.7232,-4.7201,-4.7196,-4.7201,-4.7227,-4.7232,-4.7232,-4.7254,-4.7186,-4.6841,-4.5516,-4.4796,-4.4148,-4.3444,-4.2532,-4.2356,-4.2309,-4.1986,-4.1791,-4.1468,-4.1131,-4.056,-4.0183,-3.9968,-3.9626,-3.9698,-3.9734,-3.9427,-3.9156,-3.8546,-3.8169,-3.7792,-3.772,-3.7595,-3.7595,-3.7595,-3.7595,-3.7595,-3.7595,-3.7595,-3.7595,-3.7595,-3.7595,-3.7595,-3.7595,-3.7595,-3.7595,-3.7595,-3.7595,-3.7595,-3.7595,-3.7595,-3.7595,-3.7595,-3.7595,-3.7595,-3.7595,-5.4427,-5.3669,-5.3139,-5.2404,-5.159,-5.0751,-5.0201,-4.995,-4.9893,-4.9788,-4.9611,-4.9343,-4.915,-4.9019,-4.8919,-4.8799,-4.8764,-4.8568,-4.8402,-4.8249,-4.8111,-4.7947,-4.7824,-4.772,-4.7699,-4.7699,-4.7699,-4.7699,-4.7678,-4.7699,-4.7657,-4.7554,-4.745,-4.7428,-4.7425,-4.7363,-4.7323,-4.732,-4.732,-4.7302,-4.7298,-4.7298,-4.7298,-4.7298,-4.7298,-4.7363,-4.7385,-4.7341,-4.7363,-4.7407,-4.7407,-4.7407,-4.7446,-4.749,-4.749,-4.7446,-4.7407,-4.7385,-4.7306,-4.7276,-4.7272,-4.7254,-4.7276,-4.7248,-4.7162,-4.7266,-4.6996,-4.6435,-4.5587,-4.4797,-4.414,-4.3252,-4.2494,-4.2424,-4.2155,-4.176,-4.1329,-4.0989,-4.056,-4.004,-3.968,-3.9426,-3.9027,-3.8665,-3.8722,-3.8688,-3.8456,-3.8223,-3.7918,-3.7685,-3.7631,-3.7595,-3.7595,-3.7595,-3.7595,-3.7595,-3.7595,-3.7595,-3.7595,-3.7595,-3.7595,-3.7595,-3.7595,-3.7595,-3.7595,-3.7595,-3.7595,-3.7595,-3.7595,-3.7595,-3.7595,-3.7595,-3.7595,-3.7595,-3.7595,-5.4276,-5.329,-5.2665,-5.1931,-5.113,-5.0258,-4.9893,-4.9893,-4.9893,-4.9802,-4.9518,-4.9249,-4.9134,-4.9118,-4.9003,-4.9085,-4.9085,-4.8902,-4.8747,-4.8587,-4.8402,-4.8229,-4.8012,-4.7847,-4.7783,-4.7804,-4.772,-4.7699,-4.7699,-4.7699,-4.7678,-4.7657,-4.7615,-4.7572,-4.7533,-4.7472,-4.7389,-4.7407,-4.7407,-4.7407,-4.7446,-4.7428,-4.7446,-4.7446,-4.7428,-4.749,-4.7533,-4.749,-4.749,-4.7533,-4.7554,-4.7572,-4.7593,-4.7615,-4.7636,-4.7597,-4.7554,-4.7511,-4.741,-4.7133,-4.7061,-4.6978,-4.6654,-4.6636,-4.6704,-4.6722,-4.6296,-4.5969,-4.5173,-4.4489,-4.3938,-4.317,-4.2374,-4.2122,-4.1835,-4.1439,-4.0885,-4.049,-4.0041,-3.9552,-3.9207,-3.8827,-3.8717,-3.8391,-3.8411,-3.8398,-3.8221,-3.8097,-3.7936,-3.7739,-3.7631,-3.7613,-3.7595,-3.7595,-3.7595,-3.7595,-3.7595,-3.7595,-3.7595,-3.7595,-3.7595,-3.7595,-3.7595,-3.7595,-3.7595,-3.7595,-3.7595,-3.7595,-3.7595,-3.7595,-3.7595,-3.7595,-3.7595,-3.7595,-3.7595,-5.3935,-5.2494,-5.2385,-5.1888,-5.1054,-5.0258,-4.9893,-4.9893,-4.9893,-4.9866,-4.9838,-4.9778,-4.9778,-4.9707,-4.9454,-4.9503,-4.9558,-4.9166,-4.9005,-4.9073,-4.873,-4.8587,-4.8402,-4.8212,-4.803,-4.813,-4.799,-4.7804,-4.7699,-4.7699,-4.7699,-4.7699,-4.7678,-4.7675,-4.7696,-4.7678,-4.7678,-4.7696,-4.7675,-4.7675,-4.7636,-4.7636,-4.7636,-4.7636,-4.7615,-4.7636,-4.7636,-4.7636,-4.7636,-4.7657,-4.7657,-4.7657,-4.7678,-4.7678,-4.7678,-4.7678,-4.7678,-4.7678,-4.7642,-4.6832,-4.6488,-4.6494,-4.6223,-4.5717,-4.5504,-4.5452,-4.5574,-4.5479,-4.47,-4.4211,-4.3702,-4.3212,-4.2434,-4.1984,-4.175,-4.1354,-4.087,-4.0059,-3.9624,-3.9315,-3.8735,-3.8246,-3.8264,-3.8228,-3.8228,-3.8178,-3.8004,-3.7916,-3.7864,-3.7757,-3.7649,-3.7613,-3.7595,-3.7595,-3.7595,-3.7595,-3.7595,-3.7595,-3.7595,-3.7595,-3.7595,-3.7595,-3.7595,-3.7595,-3.7595,-3.7595,-3.7595,-3.7595,-3.7595,-3.7595,-3.7595,-3.7595,-3.7595,-3.7595,-3.7595,-5.3442,-5.2347,-5.1817,-5.113,-5.0353,-5.0031,-4.9893,-4.9893,-4.9893,-4.9893,-4.9893,-4.9893,-4.9893,-4.9838,-4.9811,-4.9783,-4.9797,-4.9797,-4.9621,-4.9331,-4.9073,-4.892,-4.8746,-4.8568,-4.8402,-4.8287,-4.813,-4.7949,-4.7699,-4.7785,-4.7741,-4.7699,-4.7785,-4.7699,-4.7699,-4.7699,-4.7699,-4.7699,-4.7699,-4.7699,-4.7699,-4.7699,-4.7699,-4.7699,-4.7699,-4.7699,-4.7699,-4.7699,-4.7699,-4.7699,-4.7699,-4.7699,-4.7699,-4.7699,-4.7699,-4.7699,-4.7699,-4.7699,-4.7337,-4.6644,-4.5992,-4.6015,-4.5671,-4.5146,-4.5273,-4.5291,-4.5291,-4.5073,-4.4382,-4.4037,-4.3928,-4.3277,-4.2662,-4.2481,-4.2192,-4.1739,-4.1143,-4.0076,-3.9352,-3.917,-3.8752,-3.8372,-3.8227,-3.8227,-3.8209,-3.8157,-3.802,-3.7951,-3.7881,-3.7775,-3.7685,-3.7613,-3.7595,-3.7595,-3.7595,-3.7595,-3.7595,-3.7595,-3.7595,-3.7595,-3.7595,-3.7595,-3.7595,-3.7595,-3.7595,-3.7595,-3.7595,-3.7595,-3.7595,-3.7595,-3.7595,-3.7595,-3.7595,-3.7595,-3.7595,-5.3196,-5.2329,-5.1533,-5.0523,-4.9627,-4.9779,-4.9893,-4.9893,-4.9893,-4.9893,-4.9893,-4.9893,-4.9893,-4.9893,-4.9893,-4.9893,-4.9893,-4.9879,-4.9838,-4.9548,-4.943,-4.9331,-4.9185,-4.8936,-4.8782,-4.8623,-4.8513,-4.8365,-4.8194,-4.8174,-4.8114,-4.8035,-4.8035,-4.7953,-4.7868,-4.7699,-4.7699,-4.7699,-4.7699,-4.7699,-4.7699,-4.7699,-4.7699,-4.7699,-4.7699,-4.7699,-4.7699,-4.7699,-4.7699,-4.7699,-4.7699,-4.7699,-4.7699,-4.7699,-4.7699,-4.7699,-4.7699,-4.7699,-4.7373,-4.6232,-4.5759,-4.5888,-4.5091,-4.453,-4.4458,-4.4295,-4.4313,-4.4168,-4.3951,-4.3806,-4.3588,-4.2973,-4.281,-4.2611,-4.2266,-4.1795,-4.1469,-4.0401,-3.9986,-3.9714,-3.917,-3.877,-3.8299,-3.8227,-3.8209,-3.814,-3.8088,-3.7985,-3.7916,-3.781,-3.7703,-3.7649,-3.7595,-3.7595,-3.7595,-3.7595,-3.7595,-3.7595,-3.7488,-3.7363,-3.7595,-3.7595,-3.7595,-3.7595,-3.7595,-3.7595,-3.7595,-3.7595,-3.7595,-3.7595,-3.7595,-3.7595,-3.7595,-3.7595,-3.7595,-5.3139,-5.2291,-5.1457,-5.0144,-4.8988,-4.9495,-4.9817,-4.9893,-4.9893,-4.9893,-4.9893,-4.9893,-4.9893,-4.9893,-4.9893,-4.9893,-4.9893,-4.9893,-4.9866,-4.9797,-4.9611,-4.9636,-4.9544,-4.9265,-4.9153,-4.9169,-4.9069,-4.883,-4.8863,-4.8725,-4.8603,-4.8531,-4.8621,-4.8403,-4.8076,-4.7891,-4.7827,-4.7741,-4.7699,-4.7699,-4.7699,-4.7699,-4.7699,-4.7699,-4.7699,-4.7699,-4.7699,-4.7699,-4.7699,-4.7699,-4.7699,-4.7699,-4.7699,-4.7699,-4.7699,-4.7699,-4.7699,-4.7699,-4.7464,-4.6196,-4.5472,-4.5345,-4.3987,-4.3244,-4.3099,-4.3372,-4.3463,-4.3408,-4.3226,-4.3099,-4.2919,-4.2774,-4.2647,-4.2375,-4.2067,-4.1831,-4.1704,-4.1306,-4.1053,-4.0619,-3.9948,-3.9369,-3.868,-3.8444,-3.8445,-3.8174,-3.8105,-3.8037,-3.7951,-3.7846,-3.7739,-3.7631,-3.7631,-3.7613,-3.7559,-3.7434,-3.7256,-3.7149,-3.6988,-3.6899,-3.7238,-3.7309,-3.7113,-3.7095,-3.747,-3.7595,-3.7595,-3.7595,-3.7595,-3.7595,-3.7595,-3.7595,-3.7595,-3.7595,-3.7595,-5.2286,-5.14,-5.0012,-4.9134,-4.8774,-4.8945,-4.9362,-4.9855,-4.9893,-4.9893,-4.9893,-4.9893,-4.9893,-4.9893,-4.9893,-4.9893,-4.9893,-4.9893,-4.9893,-4.9824,-4.9769,-4.9871,-4.9824,-4.9679,-4.9558,-4.9469,-4.9358,-4.9193,-4.8932,-4.893,-4.8994,-4.888,-4.9029,-4.8793,-4.8567,-4.8384,-4.8075,-4.7806,-4.7741,-4.772,-4.772,-4.772,-4.772,-4.772,-4.772,-4.772,-4.772,-4.772,-4.772,-4.7717,-4.7699,-4.7699,-4.7699,-4.7699,-4.7699,-4.7699,-4.7699,-4.7681,-4.7428,-4.6214,-4.5309,-4.5037,-4.3824,-4.3137,-4.2919,-4.2919,-4.2919,-4.2919,-4.2919,-4.2919,-4.2919,-4.281,-4.2719,-4.2556,-4.2301,-4.2172,-4.1989,-4.1583,-4.133,-4.0975,-4.0328,-3.9788,-3.9084,-3.8915,-3.8862,-3.8427,-3.8175,-3.8125,-3.8039,-3.7952,-3.7775,-3.7667,-3.7435,-3.7381,-3.7202,-3.7077,-3.6845,-3.6667,-3.647,-3.6221,-3.6114,-3.6167,-3.6292,-3.6684,-3.7238,-3.7488,-3.7595,-3.7595,-3.7595,-3.7595,-3.7595,-3.7595,-3.7595,-3.7595,-3.7558,-5.1646,-5.0997,-4.9386,-4.8528,-4.8155,-4.7845,-4.8168,-4.8926,-4.9608,-4.9893,-4.9893,-4.9893,-4.9893,-4.9893,-4.9893,-4.9893,-4.9893,-4.9893,-4.9893,-4.9893,-4.9893,-4.992,-4.9965,-4.9965,-4.9847,-4.9764,-4.9731,-4.9665,-4.9382,-4.9375,-4.9464,-4.9299,-4.9375,-4.9139,-4.8861,-4.8657,-4.8365,-4.8053,-4.7845,-4.7824,-4.7824,-4.7824,-4.7824,-4.7804,-4.7806,-4.7824,-4.7824,-4.7806,-4.7806,-4.7804,-4.7804,-4.778,-4.7759,-4.7738,-4.7699,-4.7699,-4.7699,-4.7699,-4.75,-4.6576,-4.5798,-4.5091,-4.4115,-4.3389,-4.301,-4.2919,-4.2919,-4.2919,-4.2919,-4.2919,-4.2919,-4.2919,-4.2901,-4.2883,-4.2732,-4.2578,-4.2147,-4.1655,-4.1375,-4.1098,-4.0638,-4.0121,-3.975,-3.9554,-3.9335,-3.9013,-3.8669,-3.8447,-3.8324,-3.8201,-3.7935,-3.7703,-3.7363,-3.7095,-3.6916,-3.6649,-3.6203,-3.5936,-3.5774,-3.549,-3.5169,-3.5382,-3.5828,-3.6435,-3.7113,-3.7363,-3.7595,-3.7595,-3.7595,-3.7595,-3.7595,-3.7595,-3.7595,-3.7595,-3.754,-5.1154,-5.0921,-4.9305,-4.7997,-4.715,-4.6537,-4.6714,-4.7453,-4.8907,-4.9722,-4.9722,-4.9874,-4.9893,-4.9893,-4.9893,-4.9893,-4.9893,-4.9893,-4.9893,-4.9893,-4.9893,-4.9933,-5.0005,-4.9986,-4.9986,-5.0076,-5.0114,-5.0,-5.0144,-5.0063,-4.987,-4.9762,-4.9884,-4.9627,-4.9029,-4.8917,-4.864,-4.8288,-4.8072,-4.803,-4.799,-4.7992,-4.7992,-4.7992,-4.7972,-4.7972,-4.7992,-4.7992,-4.7992,-4.797,-4.7929,-4.7904,-4.7861,-4.7777,-4.7717,-4.7699,-4.7699,-4.7738,-4.7539,-4.6853,-4.6092,-4.5347,-4.4568,-4.3698,-4.3191,-4.2937,-4.2919,-4.2919,-4.2919,-4.2919,-4.2919,-4.29,-4.2881,-4.2729,-4.2518,-4.23,-4.1967,-4.1559,-4.1294,-4.1096,-4.1005,-4.0476,-3.9909,-3.9677,-3.9329,-3.9274,-3.8919,-3.8564,-3.8275,-3.8097,-3.7989,-3.765,-3.7399,-3.7041,-3.672,-3.6346,-3.5527,-3.5189,-3.5011,-3.4723,-3.4366,-3.4794,-3.5489,-3.6114,-3.6756,-3.7327,-3.7595,-3.7595,-3.7595,-3.7595,-3.7595,-3.7595,-3.7595,-3.7595,-3.7558,-5.0808,-5.005,-4.8401,-4.6885,-4.5672,-4.6013,-4.6278,-4.6582,-4.7529,-4.8376,-4.9021,-4.9551,-4.9893,-4.9893,-4.9893,-4.9893,-4.9893,-4.9893,-4.9893,-4.9912,-4.9912,-4.9992,-5.0057,-5.0057,-5.0095,-5.0158,-5.0188,-5.0224,-5.0236,-5.0224,-5.0212,-5.01,-5.0063,-4.957,-4.9314,-4.918,-4.8747,-4.8421,-4.8288,-4.8131,-4.8052,-4.8012,-4.7992,-4.8012,-4.8012,-4.8032,-4.8032,-4.803,-4.8012,-4.7992,-4.7972,-4.7947,-4.7902,-4.7798,-4.7717,-4.7699,-4.7699,-4.7738,-4.762,-4.7132,-4.635,-4.5517,-4.47,-4.3864,-4.3264,-4.3028,-4.2901,-4.2901,-4.2919,-4.2919,-4.29,-4.2844,-4.2768,-4.2498,-4.2198,-4.1931,-4.1674,-4.1424,-4.1171,-4.1151,-4.1157,-4.0757,-4.0157,-3.9719,-3.9379,-3.8944,-3.843,-3.8017,-3.7636,-3.7442,-3.7721,-3.7523,-3.7433,-3.7111,-3.6665,-3.5953,-3.5083,-3.4412,-3.4129,-3.3842,-3.3516,-3.4263,-3.5012,-3.5704,-3.6363,-3.6863,-3.7309,-3.7559,-3.7559,-3.7577,-3.7595,-3.7595,-3.7595,-3.7595,-3.7577,-5.0153,-4.9191,-4.7548,-4.6127,-4.5122,-4.5426,-4.5646,-4.5804,-4.6556,-4.7195,-4.7834,-4.8801,-4.9551,-4.9817,-4.9893,-4.9874,-4.9874,-4.9893,-4.992,-4.9939,-4.9965,-5.0044,-5.0082,-5.0108,-5.017,-5.0212,-5.0255,-5.0248,-5.0259,-5.012,-5.0051,-5.0169,-4.9897,-4.9584,-4.9512,-4.9083,-4.8711,-4.855,-4.8383,-4.8248,-4.8111,-4.8131,-4.8131,-4.8113,-4.8131,-4.8131,-4.8131,-4.8131,-4.8131,-4.8092,-4.8052,-4.7909,-4.7842,-4.7738,-4.7717,-4.7699,-4.7717,-4.7759,-4.7697,-4.7318,-4.6573,-4.5685,-4.5119,-4.4352,-4.2521,-4.2285,-4.2611,-4.2647,-4.2883,-4.2919,-4.2787,-4.2749,-4.2537,-4.23,-4.1717,-4.1248,-4.0972,-4.0696,-4.0601,-4.0566,-4.0664,-4.0724,-4.0117,-3.9594,-3.9308,-3.9128,-3.8527,-3.7819,-3.7349,-3.6671,-3.6986,-3.7051,-3.6796,-3.6581,-3.6081,-3.537,-3.4609,-3.3963,-3.3406,-3.3002,-3.2862,-3.3741,-3.4535,-3.4942,-3.5528,-3.631,-3.6738,-3.7005,-3.7434,-3.7541,-3.7577,-3.7595,-3.7577,-3.754,-3.7411,-4.9447,-4.837,-4.7024,-4.5798,-4.4964,-4.4938,-4.4993,-4.5174,-4.5801,-4.6273,-4.6658,-4.7865,-4.8857,-4.9527,-4.9603,-4.9754,-4.9787,-4.9643,-4.9732,-4.9986,-5.0018,-5.0095,-5.0158,-5.0207,-5.0243,-5.0267,-5.029,-5.029,-5.029,-5.0132,-5.0063,-5.0132,-4.9803,-4.9363,-4.9224,-4.8984,-4.8676,-4.8458,-4.8324,-4.8324,-4.8305,-4.8324,-4.8287,-4.8287,-4.8324,-4.8324,-4.8324,-4.8306,-4.8287,-4.8229,-4.8131,-4.8028,-4.7884,-4.7801,-4.778,-4.778,-4.7759,-4.7822,-4.7832,-4.7575,-4.6684,-4.5865,-4.5459,-4.426,-4.2375,-4.1868,-4.2212,-4.2157,-4.2393,-4.2499,-4.2366,-4.2282,-4.2065,-4.1814,-4.115,-4.0642,-4.0368,-4.0154,-4.0171,-4.0163,-4.0262,-4.0449,-3.9978,-3.944,-3.9111,-3.9,-3.8542,-3.7941,-3.7239,-3.6353,-3.6012,-3.5869,-3.5566,-3.5367,-3.5434,-3.4594,-3.3803,-3.3581,-3.3011,-3.243,-3.2255,-3.3103,-3.3651,-3.3757,-3.441,-3.5331,-3.5954,-3.6256,-3.6719,-3.7237,-3.7559,-3.7577,-3.7411,-3.7319,-3.715,-4.915,-4.7694,-4.7371,-4.6384,-4.5131,-4.5045,-4.508,-4.508,-4.5243,-4.57,-4.6302,-4.667,-4.7573,-4.8947,-4.8226,-4.8435,-4.9479,-4.9296,-4.9619,-4.9987,-4.9911,-5.005,-5.0194,-5.0212,-5.0255,-5.0278,-5.0302,-5.0302,-5.0278,-5.0212,-5.0193,-5.0248,-4.991,-4.9541,-4.9252,-4.8982,-4.8712,-4.8495,-4.8363,-4.8363,-4.8324,-4.8324,-4.8324,-4.8324,-4.8324,-4.8324,-4.8324,-4.8324,-4.8324,-4.8286,-4.8208,-4.8128,-4.8028,-4.7907,-4.7886,-4.7886,-4.7866,-4.7945,-4.7915,-4.7417,-4.6527,-4.5708,-4.5031,-4.3755,-4.2339,-4.156,-4.1469,-4.0763,-4.0926,-4.1156,-4.1112,-4.1165,-4.1032,-4.0839,-4.0357,-4.0214,-4.0018,-4.0053,-4.0138,-4.0062,-4.0061,-3.9872,-3.9411,-3.8869,-3.8322,-3.8048,-3.745,-3.6842,-3.6221,-3.5634,-3.513,-3.4753,-3.4432,-3.491,-3.522,-3.3768,-3.294,-3.2838,-3.2607,-3.2002,-3.1897,-3.2508,-3.2899,-3.2883,-3.3464,-3.4363,-3.4897,-3.5294,-3.6024,-3.654,-3.7273,-3.7522,-3.7319,-3.7073,-3.6841]},{"header":{"parameterUnit":"m.s-1","parameterCategory":1,"la1":31.0,"la2":29.5877,"lo1":-88.7671,"lo2":-86.6584,"dx":0.0162,"dy":0.0185,"nx":115,"ny":88,"refTime":"2022-12-02T18:00:00:Z","depth":0,"parameterNumber":3,"parameterNumberName":"V-component_of_WINDS"},"data":[0.0,0.0,0.0,0.0,0.0,0.0,0.0,0.0,0.0,0.0,0.0,0.0,0.0,0.0,0.0,0.0,0.0,0.0,0.0,0.0,0.0,0.0,0.0,0.0,0.0,0.0,0.0,0.0,0.0,0.0,0.0,0.0,0.0,0.0,0.0,0.0,0.0,0.0,0.0,0.0,0.0,0.0,0.0,0.0,0.0,0.0,0.0,0.0,0.0,0.0,0.0,0.0,0.0,0.0,0.0,0.0,0.0,0.0,0.0,0.0,0.0,0.0,0.0,0.0,0.0,0.0,0.0,0.0,0.0,0.0,0.0,0.0,0.0,0.0,0.0,0.0,0.0,0.0,0.0,0.0,0.0,0.0,0.0,0.0,0.0,0.0,0.0,0.0,0.0,0.0,0.0,0.0,0.0,0.0,0.0,0.0,0.0,0.0,0.0,0.0,0.0,0.0,0.0,0.0,0.0,0.0,0.0,0.0,0.0,0.0,0.0,0.0,0.0,0.0,0.0,0.0,0.0,0.0,0.0,0.0,0.0,0.0,0.0,0.0,0.0,0.0,0.0,0.0,0.0,0.0,0.0,0.0,0.0,0.0,0.0,0.0,0.0,0.0,0.0,0.0,0.0,0.0,0.0,0.0,0.0,0.0,0.0,0.0,0.0,0.0,0.0,0.0,0.0,0.0,0.0,0.0,0.0,0.0,0.0,0.0,0.0,0.0,0.0,0.0,0.0,0.0,0.0,0.0,0.0,0.0,0.0,0.0,0.0,0.0,0.0,0.0,0.0,0.0,0.0,0.0,0.0,0.0,0.0,0.0,0.0,0.0,0.0,0.0,0.0,0.0,0.0,0.0,0.0,0.0,0.0,0.0,0.0,0.0,0.0,0.0,0.0,0.0,0.0,0.0,0.0,0.0,0.0,0.0,0.0,0.0,0.0,0.0,0.0,0.0,0.0,0.0,0.0,0.0,0.0,0.0,0.0,0.0,0.0,0.0,0.0,0.0,0.0,0.0,0.0,0.0,0.0,0.0,0.0,0.0,0.0,0.0,0.0,0.0,0.0,0.0,0.0,0.0,0.0,0.0,0.0,0.0,0.0,0.0,0.0,0.0,0.0,0.0,0.0,0.0,0.0,0.0,0.0,0.0,0.0,0.0,0.0,0.0,0.0,0.0,0.0,0.0,0.0,0.0,0.0,0.0,0.0,0.0,0.0,0.0,0.0,0.0,0.0,0.0,0.0,0.0,0.0,0.0,0.0,0.0,0.0,0.0,0.0,0.0,0.0,0.0,0.0,0.0,0.0,0.0,0.0,0.0,0.0,0.0,0.0,0.0,0.0,0.0,0.0,0.0,0.0,0.0,0.0,0.0,0.0,0.0,0.0,0.0,0.0,0.0,0.0,0.0,0.0,0.0,0.0,0.0,0.0,0.0,0.0,0.0,0.0,0.0,0.0,0.0,0.0,0.0,0.0,0.0,0.0,0.0,0.0,0.0,0.0,0.0,0.0,0.0,0.0,0.0,0.0,0.0,0.0,0.0,0.0,0.0,0.0,0.0,0.0,0.0,0.0,0.0,0.0,0.0,0.0,0.0,0.0,0.0,0.0,0.0,0.0,0.0,0.0,0.0,0.0,0.0,0.0,0.0,0.0,0.0,0.0,0.0,0.0,0.0,0.0,0.0,0.0,0.0,0.0,0.0,0.0,0.0,0.0,0.0,0.0,0.0,0.0,0.0,0.0,0.0,0.0,0.0,0.0,0.0,0.0,0.0,0.0,0.0,0.0,0.0,0.0,0.0,0.0,0.0,0.0,0.0,0.0,0.0,0.0,0.0,0.0,0.0,0.0,0.0,0.0,0.0,0.0,0.0,0.0,0.0,0.0,0.0,0.0,0.0,0.0,0.0,0.0,0.0,0.0,0.0,0.0,0.0,0.0,0.0,0.0,0.0,0.0,0.0,0.0,0.0,0.0,0.0,0.0,0.0,0.0,0.0,0.0,0.0,0.0,0.0,0.0,0.0,0.0,0.0,0.0,0.0,0.0,0.0,0.0,0.0,0.0,0.0,0.0,0.0,0.0,0.0,0.0,0.0,0.0,0.0,0.0,0.0,0.0,0.0,0.0,0.0,0.0,0.0,0.0,0.0,0.0,0.0,0.0,0.0,0.0,0.0,0.0,0.0,0.0,0.0,0.0,0.0,0.0,0.0,0.0,0.0,0.0,0.0,0.0,0.0,0.0,0.0,0.0,0.0,0.0,0.0,0.0,0.0,0.0,0.0,0.0,0.0,0.0,0.0,0.0,0.0,0.0,0.0,0.0,0.0,0.0,0.0,0.0,0.0,0.0,0.0,0.0,0.0,0.0,0.0,0.0,0.0,0.0,0.0,0.0,0.0,0.0,0.0,0.0,0.0,0.0,0.0,0.0,0.0,0.0,0.0,0.0,0.0,0.0,0.0,0.0,0.0,0.0,0.0,0.0,0.0,0.0,0.0,0.0,0.0,0.0,0.0,0.0,0.0,0.0,0.0,0.0,0.0,0.0,0.0,0.0,0.0,0.0,0.0,0.0,0.0,0.0,0.0,0.0,0.0,0.0,0.0,0.0,0.0,0.0,0.0,0.0,0.0,0.0,0.0,0.0,0.0,0.0,0.0,0.0,0.0,0.0,0.0,0.0,0.0,0.0,0.0,0.0,0.0,0.0,0.0,0.0,0.0,0.0,0.0,0.0,0.0,0.0,0.0,0.0,0.0,0.0,0.0,0.0,0.0,0.0,0.0,0.0,0.0,0.0,0.0,0.0,0.0,0.0,0.0,0.0,0.0,0.0,0.0,0.0,0.0,0.0,0.0,0.0,0.0,0.0,0.0,0.0,0.0,0.0,0.0,0.0,0.0,0.0,0.0,0.0,0.0,0.0,0.0,0.0,0.0,0.0,0.0,0.0,0.0,0.0,0.0,0.0,0.0,0.0,0.0,0.0,0.0,0.0,0.0,0.0,0.0,0.0,0.0,0.0,0.0,0.0,0.0,0.0,0.0,0.0,0.0,0.0,0.0,0.0,0.0,0.0,0.0,0.0,0.0,0.0,0.0,0.0,0.0,0.0,0.0,0.0,0.0,0.0,0.0,0.0,0.0,0.0,0.0,0.0,0.0,0.0,0.0,0.0,0.0,0.0,0.0,0.0,0.0,0.0,0.0,0.0,0.0,0.0,0.0,0.0,0.0,0.0,0.0,0.0,0.0,0.0,0.0,0.0,0.0,0.0,0.0,0.0,0.0,0.0,0.0,0.0,0.0,0.0,0.0,0.0,0.0,0.0,0.0,0.0,0.0,0.0,0.0,0.0,0.0,0.0,0.0,0.0,0.0,0.0,0.0,0.0,0.0,0.0,0.0,0.0,0.0,0.0,0.0,0.0,0.0,0.0,0.0,0.0,0.0,0.0,0.0,0.0,0.0,0.0,0.0,0.0,0.0,0.0,0.0,0.0,0.0,0.0,0.0,0.0,0.0,0.0,0.0,0.0,0.0,0.0,0.0,0.0,0.0,0.0,0.0,0.0,0.0,0.0,0.0,0.0,0.0,0.0,0.0,0.0,0.0,0.0,0.0,0.0,0.0,0.0,0.0,0.0,0.0,0.0,0.0,0.0,0.0,0.0,0.0,0.0,0.0,0.0,0.0,0.0,0.0,0.0,0.0,0.0,0.0,0.0,0.0,0.0,0.0,0.0,0.0,0.0,0.0,0.0,0.0,0.0,0.0,0.0,0.0,0.0,0.0,0.0,0.0,0.0,0.0,0.0,0.0,0.0,0.0,0.0,0.0,0.0,0.0,0.0,0.0,0.0,0.0,0.0,0.0,0.0,0.0,0.0,0.0,0.0,0.0,0.0,0.0,0.0,0.0,0.0,0.0,0.0,0.0,0.0,0.0,0.0,0.0,0.0,0.0,0.0,0.0,0.0,0.0,0.0,0.0,0.0,0.0,0.0,0.0,0.0,0.0,0.0,0.0,0.0,0.0,0.0,0.0,0.0,0.0,0.0,0.0,0.0,0.0,0.0,0.0,0.0,0.0,0.0,0.0,0.0,0.0,0.0,0.0,0.0,0.0,0.0,0.0,0.0,0.0,0.0,0.0,0.0,0.0,0.0,0.0,0.0,0.0,0.0,0.0,0.0,0.0,0.0,0.0,0.0,0.0,0.0,0.0,0.0,0.0,0.0,0.0,0.0,0.0,0.0,0.0,0.0,0.0,0.0,0.0,0.0,0.0,0.0,0.0,0.0,0.0,0.4086,0.0,0.0,0.0,0.3809,0.0,0.0,0.0,0.0,0.0,0.0,0.0,0.0,0.0,0.0,0.0,0.0,0.0,0.0,0.0,0.0,0.0,0.0,0.0,0.0,0.0,0.0,0.0,0.0,0.0,0.0,0.0,0.0,0.0,0.0,0.0,0.0,0.0,0.0,0.0,0.0,0.0,0.0,0.0,0.0,0.0,0.0,0.0,0.0,0.0,0.0,0.0,0.0,0.0,0.0,0.0,0.0,0.0,0.0,0.0,0.0,0.0,0.0,0.0,0.0,0.0,0.0,0.0,0.0,0.0,0.0,0.0,0.0,0.0,0.0,0.0,0.0,0.0,0.0,0.0,0.0,0.0,0.0,0.0,0.0,0.0,0.0,0.0,0.0,0.0,0.0,0.0,0.0,0.0,0.0,0.0,0.0,0.0,0.0,0.0,0.0,0.0,0.0,0.0,0.0,0.0,0.0,0.0,0.0,0.0,0.0,0.0,0.0,0.0,0.0,0.4051,0.4175,0.3947,0.3813,0.3844,0.0,0.0,0.0,0.0,0.0,0.0,0.0,0.0,0.0,0.0,0.0,0.0,0.0,0.0,0.0,0.0,0.0,0.0,0.0,0.0,0.0,0.0,0.0,0.0,0.0,0.0,0.0,0.0,0.0,0.0,0.0,0.0,0.0,0.0,0.0,0.0,0.0,0.0,0.0,0.0,0.0,0.0,0.0,0.0,0.0,0.0,0.0,0.0,0.0,0.0,0.0,0.0,0.0,0.0,0.0,0.0,0.0,0.0,0.0,0.0,0.0,0.0,0.0,0.0,0.0,0.0,0.0,0.0,0.0,0.0,0.0,0.0,0.0,0.0,0.0,0.0,0.0,0.0,0.0,0.0,0.0,0.0,0.0,0.0,0.0,0.0,0.0,0.0,0.0,0.0,0.0,0.0,0.0,0.0,0.0,0.0,0.0,0.0,0.0,0.0,0.0,0.0,0.0,0.0,0.0,0.0,0.0,0.0,0.0,0.0,0.0,0.0,0.4005,0.387,0.3963,0.0,0.0,0.0,0.0,0.0,0.0,0.0,0.0,0.0,0.0,0.0,0.0,0.0,0.0,0.0,0.0,0.0,0.0,0.0,0.0,0.0,0.0,0.0,0.0,0.0,0.0,0.0,0.0,0.0,0.0,0.0,0.0,0.0,0.0,0.0,0.0,0.0,0.0,0.0,0.0,0.0,0.0,0.0,0.0,0.0,0.0,0.0,0.0,0.0,0.0,0.0,0.0,0.0,0.0,0.0,0.0,0.0,0.0,0.0,0.0,0.0,0.0,0.0,0.0,0.0,0.0,0.0,0.0,0.0,0.0,0.0,0.0,0.0,0.0,0.0,0.0,0.0,0.0,0.0,0.0,0.0,0.0,0.0,0.0,0.0,0.0,0.0,0.0,0.0,0.0,0.0,0.0,0.0,0.0,0.0,0.0,0.0,0.0,0.0,0.0,0.0,0.0,0.0,0.0,0.0,0.0,0.0,0.0,0.0,0.0,0.4164,0.4292,0.405,0.0,0.4157,0.0,0.0,0.0,0.0,0.0,0.0,0.0,0.0,0.0,0.0,0.0,0.0,0.0,0.0,0.0,0.0,0.0,0.0,0.0,0.0,0.0,0.0,0.0,0.0,0.0,0.0,0.0,0.0,0.0,0.0,0.0,0.0,0.0,0.0,0.0,0.0,0.0,0.0,0.0,0.0,0.0,0.0,0.0,0.0,0.0,0.0,0.0,0.0,0.0,0.0,0.0,0.0,0.0,0.0,0.0,0.0,0.0,0.0,0.0,0.0,0.0,0.0,0.0,0.0,0.0,0.0,0.0,0.0,0.0,0.0,0.0,0.0,0.0,0.0,0.0,0.0,0.0,0.0,0.0,0.0,0.0,0.0,0.0,0.0,0.0,0.0,0.0,0.0,0.0,0.0,0.0,0.0,0.0,0.0,0.0,0.0,0.0,0.0,0.0,0.0,0.0,0.0,0.0,0.0,0.0,0.0,0.0,0.0,0.0,0.0,0.4945,0.4791,0.4778,0.4776,0.0,0.0,0.0,0.0,0.0,0.0,0.0,0.0,0.0,0.0,0.0,0.0,0.0,0.0,0.0,0.0,0.0,0.0,0.0,0.0,0.0,0.0,0.0,0.0,0.0,0.0,0.0,0.0,0.0,0.0,0.0,0.0,0.0,0.0,0.0,0.0,0.0,0.0,0.0,0.0,0.0,0.0,0.0,0.0,0.0,0.0,0.0,0.0,0.0,0.0,0.0,0.0,0.0,0.0,0.0,0.0,0.0,0.0,0.0,0.0,0.0,0.0,0.0,0.0,0.0,0.0,0.0,0.0,0.0,0.0,0.0,0.0,0.0,0.0,0.0,0.0,0.0,0.0,0.0,0.0,0.0,0.0,0.0,0.0,0.0,0.0,0.0,0.0,0.0,0.0,0.0,0.0,0.0,0.0,0.0,0.0,0.0,0.0,0.0,0.0,0.0,0.0,0.0,0.0,0.0,0.0,0.0,0.0,0.0,0.0,0.5248,0.5466,0.5209,0.5295,0.5355,0.5319,0.0,0.0,0.0,0.0,0.0,0.0,0.0,0.0,0.0,0.0,0.0,0.0,0.0,0.0,0.0,0.0,0.0,0.0,0.0,0.0,0.0,0.0,0.0,0.0,0.0,0.0,0.0,0.0,0.0,0.0,0.0,0.0,0.0,0.0,0.0,0.0,0.0,0.0,0.0,0.0,0.0,0.0,0.0,0.0,0.0,0.0,0.0,0.0,0.0,0.0,0.0,0.0,0.0,0.0,0.0,0.0,0.0,0.0,0.0,0.0,0.0,0.0,0.0,0.0,0.0,0.0,0.0,0.0,0.0,0.0,0.0,0.0,0.0,0.0,0.0,0.0,0.0,0.0,0.0,0.0,0.0,0.0,0.0,0.0,0.0,0.0,0.0,0.0,0.0,0.0,0.0,0.0,0.0,0.0,0.0,0.0,0.0,0.0,0.0,0.0,0.0,0.0,0.0,0.0,0.0,0.0,0.0,0.0,0.5486,0.5448,0.54,0.5422,0.5343,0.5398,0.0,0.0,0.0,0.0,0.0,0.0,0.0,0.0,0.0,0.0,0.0,0.0,0.0,0.0,0.0,0.0,0.0,0.0,0.0,0.0,0.0,0.0,0.0,0.0,0.0,0.0,0.0,0.0,0.0,0.0,0.0,0.0,0.0,0.0,0.0,0.0,0.0,0.0,0.0,0.0,0.0,0.0,0.0,0.0,0.0,0.0,0.0,0.0,0.0,0.0,0.0,0.0,0.0,0.0,0.0,0.0,0.0,0.0,0.0,0.0,0.0,0.0,0.0,0.0,0.0,0.0,0.0,0.0,0.0,0.0,0.0,0.0,0.0,0.0,0.0,0.0,0.0,0.0,0.0,0.0,0.0,0.0,0.0,0.0,0.0,0.0,0.0,0.0,0.0,0.0,0.0,0.0,0.0,0.0,0.0,0.0,0.0,0.0,0.0,0.0,0.0,0.0,0.0,0.0,0.0,0.0,0.0,0.0,0.0,0.5318,0.5637,0.6135,0.67,0.6432,0.6243,0.0,0.0,0.0,0.0,0.0,0.0,0.0,0.0,0.0,0.0,0.0,0.0,0.0,0.0,0.0,0.0,0.0,0.0,0.0,0.0,0.0,0.0,0.0,0.0,0.0,0.0,0.0,0.0,0.0,0.0,0.0,0.0,0.0,0.0,0.0,0.0,0.0,0.0,0.0,0.0,0.0,0.0,0.0,0.0,0.0,0.0,0.0,0.0,0.0,0.0,0.0,0.0,0.0,0.0,0.0,0.0,0.0,0.0,0.0,0.0,0.0,0.0,0.0,0.0,0.0,0.0,0.0,0.0,0.0,0.0,0.0,0.0,0.0,0.0,0.0,0.0,0.0,0.0,0.0,0.0,0.0,0.0,0.0,0.0,0.0,0.0,0.0,0.0,0.0,0.0,0.0,0.0,0.0,0.0,0.0,0.0,0.0,0.0,0.0,0.0,0.0,0.0,0.0,0.0,0.0,0.0,0.0,0.0,0.0,0.5868,0.6473,0.7009,0.7424,0.7113,0.674,0.0,0.0,0.0,0.0,0.0,0.0,0.0,0.0,0.0,0.0,0.0,0.0,0.0,0.0,0.0,0.0,0.0,0.0,0.0,0.0,0.0,0.0,0.0,0.0,0.0,0.0,0.0,0.0,0.0,0.0,0.0,0.0,0.0,0.0,0.0,0.0,0.0,0.0,0.0,0.0,0.0,0.0,0.0,0.0,0.0,0.0,0.0,0.0,0.0,0.0,0.0,0.0,0.0,0.0,0.0,0.0,0.0,0.0,0.0,0.0,0.0,0.0,0.0,0.0,0.0,0.0,0.0,0.0,0.0,0.0,0.0,0.0,0.0,0.0,0.0,0.0,0.0,0.0,0.0,0.0,0.0,0.0,0.0,0.0,0.0,0.0,0.0,0.0,0.0,0.0,0.0,0.0,0.0,0.0,0.0,0.0,0.0,0.0,0.0,0.0,0.0,0.0,0.0,0.0,0.0,0.0,0.0,0.0,0.6576,0.7334,0.7858,0.7879,0.743,0.7235,0.6826,0.0,0.0,0.0,0.0,0.0,0.0,0.0,0.0,0.0,0.0,0.0,0.0,0.0,0.0,0.0,0.0,0.0,0.0,0.0,0.0,0.0,0.0,0.0,0.0,0.0,0.0,0.0,0.0,0.0,0.0,0.0,0.0,0.0,0.0,0.0,0.0,0.0,0.0,0.0,0.0,0.0,0.0,0.0,0.0,0.0,0.0,0.0,0.0,0.0,0.0,0.0,0.0,0.0,0.0,0.0,0.0,0.0,0.0,0.0,0.0,0.0,0.0,0.0,0.0,0.0,0.0,0.0,0.0,0.0,0.0,0.0,0.0,0.0,0.0,0.0,0.0,0.0,0.0,0.0,0.0,0.0,0.0,0.0,0.0,0.0,0.0,0.0,0.0,0.0,0.0,0.0,0.0,0.0,0.0,0.0,0.0,0.0,0.0,0.0,0.0,0.0,0.0,0.0,0.0,0.0,0.0,0.0,0.0,0.0,0.6996,0.7631,0.7941,0.7818,0.7476,0.7152,0.0,0.0,0.0,0.0,0.0,0.0,0.0,0.0,0.0,0.0,0.0,0.0,0.0,0.0,0.0,0.0,0.0,0.0,0.0,0.0,0.0,0.0,0.0,0.0,0.0,0.0,0.0,0.0,0.0,0.0,0.0,0.0,0.0,0.0,0.0,0.0,0.0,0.0,0.0,0.0,0.0,0.0,0.0,0.0,0.0,0.0,0.0,0.0,0.0,0.0,0.0,0.0,0.0,0.0,0.0,0.0,0.0,0.0,0.0,0.0,0.0,0.0,0.0,0.0,0.0,0.0,0.0,0.0,0.0,0.0,0.0,0.0,0.0,0.0,0.0,0.0,0.0,0.0,0.0,0.0,0.0,0.0,0.0,0.0,0.0,0.0,0.0,0.0,0.0,0.0,0.0,0.0,0.0,0.0,0.0,0.0,0.0,0.0,0.0,0.0,0.0,0.0,0.0,0.0,0.0,0.0,0.0,0.0,0.0,0.7673,0.8293,0.8509,0.8276,0.7932,0.7542,0.7092,0.0,0.0,0.0,0.0,0.0,0.0,0.0,0.0,0.0,0.0,0.0,0.0,0.0,0.0,0.0,0.0,0.0,0.0,0.0,0.0,0.0,0.0,0.0,0.0,0.0,0.0,0.0,0.0,0.0,0.0,0.0,0.0,0.0,0.0,0.0,0.0,0.0,0.0,0.0,0.0,0.0,0.0,0.0,0.0,0.0,0.0,0.0,0.0,0.0,0.0,0.0,0.0,0.0,0.0,0.0,0.0,0.0,0.0,0.0,0.0,0.0,0.0,0.0,0.0,0.0,0.0,0.0,0.0,0.0,0.0,0.0,0.0,0.0,0.0,0.0,0.0,0.0,0.0,0.0,0.0,0.0,0.0,0.0,0.0,0.0,0.0,0.0,0.0,0.0,0.0,0.0,0.0,0.0,0.0,0.0,0.0,0.0,0.0,0.0,0.0,0.0,0.0,0.0,0.0,0.0,0.0,0.0,0.0,0.9091,0.967,0.958,0.8808,0.8485,0.7957,0.0,0.0,0.0,0.0,0.0,0.0,0.0,0.0,0.0,0.0,0.0,0.0,0.0,0.0,0.0,0.0,0.0,0.0,0.0,0.0,0.0,0.0,0.0,0.0,0.0,0.0,0.0,0.0,0.0,0.0,0.0,0.0,0.0,0.0,0.0,0.0,0.0,0.0,0.0,0.0,0.0,0.0,0.0,0.0,0.0,0.0,0.0,0.0,0.0,0.0,0.0,0.0,0.0,0.0,0.0,0.0,0.0,0.0,0.0,0.0,0.0,0.0,0.0,0.0,0.0,0.0,0.0,0.0,0.0,0.0,0.0,0.0,0.0,0.0,0.0,0.0,0.0,0.0,0.0,0.0,0.0,0.0,0.0,0.0,0.0,0.0,0.0,0.0,0.0,0.0,0.0,0.0,0.0,0.0,0.0,0.0,0.0,0.0,0.0,0.0,0.0,0.0,0.0,0.0,0.0,0.0,0.0,0.0,0.0,0.9955,1.0701,1.0675,0.9805,0.9019,0.84,0.0,0.0,0.0,0.0,0.0,0.0,0.0,0.0,0.0,0.0,0.0,0.0,0.0,0.0,0.0,0.0,0.0,0.0,0.0,0.0,0.0,0.0,0.0,0.0,0.0,0.0,0.0,0.0,0.0,0.0,0.0,0.0,0.0,0.0,0.0,0.0,0.0,0.0,0.0,0.0,0.0,0.0,0.0,0.0,0.0,0.0,0.0,0.0,0.0,0.0,0.0,0.0,0.0,0.0,0.0,0.0,0.0,0.0,0.0,0.0,0.0,0.0,0.0,0.0,0.0,0.0,0.0,0.0,0.0,0.0,0.0,0.0,0.0,0.0,0.0,0.0,0.0,0.0,0.0,0.0,0.0,0.0,0.0,0.0,0.0,0.0,0.0,0.0,0.0,0.0,0.0,0.0,0.0,0.0,0.0,0.0,0.0,0.0,0.0,0.0,0.0,0.0,0.0,0.0,0.0,0.0,0.0,0.0,1.0441,1.0937,1.1735,1.1823,1.11,0.9874,0.9002,0.0,0.0,0.0,0.0,0.0,0.0,0.0,0.0,0.0,0.0,0.0,0.0,0.0,0.0,0.0,0.0,0.0,0.0,0.0,0.0,0.0,0.0,0.0,0.0,0.0,0.0,0.0,0.0,0.0,0.0,0.0,0.0,0.0,0.0,0.0,0.0,0.0,0.0,0.0,0.0,0.0,0.0,0.0,0.0,0.0,0.0,0.0,0.0,0.0,0.0,0.0,0.0,0.0,0.0,0.0,0.0,0.0,0.0,0.0,0.0,0.0,0.0,0.0,0.0,0.0,0.0,0.0,0.0,0.0,0.0,0.0,0.0,0.0,0.0,0.0,0.0,0.0,0.0,0.0,0.0,0.0,0.0,0.0,0.0,0.0,0.0,0.0,0.0,0.0,0.0,0.0,0.0,0.0,0.0,0.0,0.0,0.0,0.0,0.0,0.0,0.0,0.0,0.0,0.0,0.0,0.0,0.0,0.0,1.1341,1.1879,1.2661,1.2849,1.233,1.076,0.9673,0.0,0.0,0.0,0.0,0.0,0.0,0.0,0.0,0.0,0.0,0.0,0.0,0.0,0.0,0.0,0.0,0.0,0.0,0.0,0.0,0.0,0.0,0.0,0.0,0.0,0.0,0.0,0.0,0.0,0.0,0.0,0.0,0.0,0.0,0.0,0.0,0.0,0.0,0.0,0.0,0.0,0.0,0.0,0.0,0.0,0.0,0.0,0.0,0.0,0.0,0.0,0.0,0.0,0.0,0.0,0.0,0.0,0.0,0.0,0.0,0.0,0.0,0.0,0.0,0.0,0.0,0.0,0.0,0.0,0.0,0.0,0.0,0.0,0.0,0.0,0.0,0.0,0.0,0.0,0.0,0.0,0.0,0.0,0.0,0.0,0.0,0.0,0.0,0.0,0.0,0.0,0.0,0.0,0.0,0.0,0.0,0.0,0.0,0.0,0.0,0.0,0.0,0.0,0.0,0.0,0.0,0.0,0.0,1.1521,1.2491,1.2686,1.2723,1.2614,1.1062,0.9962,0.0,0.0,0.0,0.0,0.0,0.0,0.0,0.0,0.0,0.0,0.0,0.0,0.0,0.0,0.0,0.0,0.0,0.0,0.0,0.0,0.0,0.0,0.0,0.0,0.0,0.0,0.0,0.0,0.0,0.0,0.0,0.0,0.0,0.0,0.0,0.0,0.0,0.0,0.0,0.0,0.0,0.0,0.0,0.0,0.0,0.0,0.0,0.0,0.6903,0.0,0.0,0.0,0.0,0.0,0.0,0.0,0.0,0.0,0.0,0.0,0.0,0.0,0.0,0.0,0.0,0.0,0.0,0.0,0.0,0.0,0.0,0.0,0.0,0.0,0.0,0.0,0.0,0.0,0.0,0.0,0.0,0.0,0.0,0.0,0.0,0.0,0.0,0.0,0.0,0.0,0.0,0.0,0.0,0.0,0.0,0.0,0.0,0.0,0.0,0.0,0.0,0.0,0.0,0.0,0.0,0.0,0.0,0.0,1.2018,1.2953,1.2999,1.3009,1.2838,1.1582,1.0538,0.0,0.0,0.0,0.0,0.0,0.0,0.0,0.0,0.0,0.0,0.0,0.0,0.0,0.0,0.0,0.0,0.0,0.0,0.0,0.0,0.0,0.0,0.0,0.0,0.0,0.0,0.0,0.0,0.0,0.0,0.0,0.0,0.0,0.0,0.0,0.0,0.0,0.0,0.0,0.0,0.0,0.0,0.0,0.0,0.0,0.0,0.0,0.0,0.0,0.0,0.0,0.0,0.0,0.0,0.0,0.0,0.0,0.0,0.0,0.0,0.0,0.0,0.0,0.0,0.0,0.0,0.0,0.0,0.0,0.0,0.0,0.0,0.0,0.0,0.0,0.0,0.0,0.0,0.0,0.0,0.0,0.0,0.0,0.0,0.0,0.0,0.0,0.0,0.0,0.0,0.0,0.0,0.0,0.0,0.0,0.0,0.0,0.0,0.0,0.0,0.0,0.0,0.0,0.0,0.0,0.0,0.0,1.1605,1.2497,1.3339,1.3403,1.3326,1.3187,1.2129,1.1191,1.0392,0.0,0.0,0.0,0.0,0.0,0.0,0.0,0.0,0.0,0.0,0.0,0.0,0.0,0.0,0.0,0.0,0.0,0.0,0.0,0.0,0.0,0.0,0.0,0.0,0.0,0.0,0.0,0.0,0.0,0.0,0.0,0.0,0.0,0.0,0.0,0.0,0.0,0.0,0.7334,0.7672,0.0,0.0,0.0,0.0,0.0,0.0,0.0,0.0,0.757,0.0,0.0,0.0,0.0,0.0,0.0,0.0,0.0,0.0,0.0,0.0,0.0,0.0,0.0,0.0,0.0,0.0,0.0,0.0,0.0,0.0,0.0,0.0,0.0,0.0,0.0,0.0,0.0,0.0,0.0,0.0,0.0,0.0,0.0,0.0,0.0,0.0,0.0,0.0,0.0,0.0,0.0,0.0,0.0,0.0,0.0,0.0,0.0,0.0,0.0,0.0,0.0,0.0,0.0,0.0,0.0,1.1241,1.1752,1.2525,1.3584,1.3499,1.35,1.366,1.2469,1.1465,1.0641,0.0,0.0,0.0,0.0,0.0,0.0,0.0,0.0,0.0,0.0,0.0,0.0,0.0,0.0,0.0,0.0,0.0,0.0,0.0,0.0,0.0,0.0,0.0,0.0,0.0,0.0,0.0,0.0,0.0,0.0,0.0,0.0,0.0,0.0,0.0,0.0,0.0,0.0,0.0,0.82,0.8441,0.0,0.0,0.0,0.0,0.0,0.0,0.0,0.0,0.7882,0.0,0.0,0.0,0.0,0.0,0.0,0.0,0.0,0.0,0.0,0.0,0.0,0.0,0.0,0.0,0.0,0.0,0.0,0.0,0.0,0.0,0.0,0.0,0.0,0.0,0.0,0.0,0.0,0.0,0.0,0.0,0.0,0.0,0.0,0.0,0.0,0.0,0.0,0.0,0.0,0.0,0.0,0.0,0.0,0.0,0.0,0.0,0.0,0.0,0.0,0.0,0.0,0.0,0.0,0.0,1.1306,1.2322,1.3232,1.4048,1.373,1.3703,1.3954,1.2696,1.1571,0.0,0.0,0.0,0.0,0.0,0.0,0.0,0.0,0.0,0.0,0.0,0.0,0.0,0.0,0.0,0.0,0.0,0.0,0.0,0.0,0.0,0.0,0.0,0.0,0.0,0.0,0.0,0.0,0.0,0.0,0.0,0.0,0.0,0.0,0.0,0.0,0.0,0.0,0.0,0.0,0.8591,0.8822,0.9377,0.0,0.0,0.0,0.0,0.0,0.0,0.847,0.8266,0.0,0.0,0.0,0.0,0.0,0.0,0.0,0.0,0.0,0.0,0.0,0.0,0.0,0.0,0.0,0.0,0.0,0.0,0.0,0.0,0.0,0.0,0.0,0.0,0.0,0.0,0.0,0.0,0.0,0.0,0.0,0.0,0.0,0.0,0.0,0.0,0.0,0.0,0.0,0.0,0.0,0.0,0.0,0.0,0.0,0.0,0.0,0.0,0.0,0.0,0.0,0.0,0.0,0.0,0.0,1.1291,1.2815,1.3919,1.4563,1.4101,1.4002,1.4307,1.2906,1.1694,0.0,0.0,0.0,0.0,0.0,0.0,0.0,0.0,0.0,0.0,0.0,0.0,0.0,0.0,0.0,0.0,0.0,0.0,0.0,0.0,0.0,0.0,0.0,0.0,0.0,0.0,0.0,0.0,0.0,0.0,0.0,0.0,0.0,0.0,0.0,0.0,0.0,0.0,0.0,0.0,0.0,0.9198,0.9799,0.9556,0.0,0.0,0.0,0.0,0.9114,0.8974,0.0,0.0,0.0,0.0,0.0,0.0,0.0,0.0,0.0,0.0,0.0,0.0,0.0,0.0,0.0,0.0,0.0,0.0,0.0,0.0,0.0,0.0,0.0,0.0,0.0,0.0,0.0,0.0,0.0,0.0,0.0,0.0,0.0,0.0,0.0,0.0,0.0,0.0,0.0,0.0,0.0,0.0,0.0,0.0,0.0,0.0,0.0,0.0,0.0,0.0,0.0,0.0,0.0,0.0,0.0,0.0,1.1388,1.2854,1.4019,1.4894,1.4579,1.4566,1.4877,1.3094,1.1781,0.0,0.0,0.0,0.0,0.0,0.0,0.0,0.0,0.0,0.0,0.0,0.0,0.0,0.0,0.0,0.0,0.0,0.0,0.0,0.0,0.0,0.0,0.0,0.0,0.0,0.0,0.0,0.0,0.0,0.0,0.0,0.0,0.0,0.0,0.0,0.0,0.0,0.0,0.0,0.0,0.0,0.9659,0.9862,0.9767,0.9536,0.0,0.0,0.9446,0.9225,0.9494,0.0,0.0,0.0,0.0,0.0,0.0,0.0,0.0,0.0,0.0,0.0,0.0,0.0,0.0,0.0,0.0,0.0,0.0,0.0,0.0,0.0,0.0,0.0,0.0,0.0,0.0,0.0,0.0,0.0,0.0,0.0,0.0,0.0,0.0,0.0,0.0,0.0,0.0,0.0,0.0,0.0,0.0,0.0,0.0,0.0,0.0,0.0,0.0,0.0,0.0,0.0,0.0,0.0,0.0,0.0,1.1464,1.1724,1.33,1.4489,1.5164,1.4923,1.483,1.4995,1.3527,1.2315,0.0,0.0,0.0,0.0,0.0,0.0,0.0,0.0,0.0,0.0,0.0,0.0,0.0,0.0,0.0,0.0,0.0,0.0,0.0,0.0,0.0,0.0,0.0,0.0,0.0,0.0,0.0,0.0,0.0,0.0,0.0,0.0,0.0,0.0,0.0,0.0,0.0,0.0,0.0,0.0,0.0,0.0,1.046,1.036,0.0,0.0,0.0,1.0097,0.9723,0.0,0.0,0.0,0.0,0.0,0.0,0.0,0.0,0.0,0.0,0.0,0.0,0.0,0.0,0.0,0.0,0.0,0.0,0.0,0.0,0.0,0.0,0.0,0.0,0.0,0.0,0.0,0.0,0.0,0.0,0.0,0.0,0.0,0.0,0.0,0.0,0.0,0.0,0.0,0.0,0.0,0.0,0.0,0.0,0.0,0.0,0.0,0.0,0.0,0.0,0.0,0.0,0.0,0.0,0.0,0.0,0.0,1.2119,1.3892,1.5084,1.5678,1.5394,1.5167,1.5095,1.3935,0.0,0.0,0.0,0.0,0.0,0.0,0.0,0.0,0.0,0.0,0.0,0.0,0.0,0.0,0.0,0.0,0.0,0.0,0.0,0.0,0.0,0.0,0.0,0.0,0.0,0.0,0.0,0.5599,0.0,0.0,0.0,0.0,0.0,0.0,0.0,0.0,0.0,0.0,0.0,0.0,0.0,0.0,1.0184,1.0815,1.0778,1.0666,0.0,0.0,1.0536,1.0091,1.0107,1.0052,0.0,0.0,0.0,0.0,0.0,0.0,0.0,0.0,0.0,0.0,0.0,0.0,0.0,0.0,0.0,0.0,0.0,0.0,0.0,0.0,0.0,0.0,0.0,0.0,0.0,0.0,0.0,0.0,0.0,0.0,0.0,0.0,0.0,0.0,0.0,0.0,0.0,0.0,0.0,0.0,0.0,0.0,0.0,0.0,0.0,0.0,0.0,0.0,0.0,0.0,0.0,0.0,0.0,0.0,1.2088,1.2693,1.4615,1.594,1.656,1.6053,1.5608,1.5344,1.4179,1.3347,0.0,0.0,0.0,0.0,0.0,0.0,0.0,0.0,0.0,0.0,0.0,0.0,0.0,0.0,0.0,0.0,0.0,0.0,0.0,0.0,0.0,0.0,0.0,0.0,0.0,0.0,0.0,0.0,0.0,0.0,0.0,0.0,0.0,0.0,0.0,0.0,0.0,0.0,0.0,0.0,0.0,1.0203,1.0579,1.0659,1.0666,0.0,1.0653,1.0568,1.0172,1.0563,1.0591,0.9682,0.0,0.0,0.0,0.0,0.0,0.0,0.0,0.0,0.0,0.0,0.0,0.0,0.0,0.0,0.0,0.0,0.0,0.0,0.0,0.0,0.0,0.0,0.0,0.0,0.0,0.0,0.0,0.0,0.0,0.0,0.0,0.0,0.0,0.0,0.0,0.0,0.0,0.0,0.0,0.0,0.0,0.0,0.0,0.0,0.0,0.0,0.0,0.0,0.0,0.0,0.0,0.0,0.0,1.2267,1.27,1.4692,1.612,1.6898,1.6496,1.6234,1.6133,1.5321,1.4386,0.0,0.0,0.0,0.0,0.0,0.0,0.0,0.0,0.0,0.0,0.0,0.0,0.0,0.0,0.0,0.0,0.0,0.0,0.0,0.0,0.0,0.0,0.0,0.0,0.0,0.0,0.0,0.0,0.7953,0.8073,0.7819,0.0,0.0,0.0,0.0,0.0,0.0,0.0,0.0,0.0,0.0,1.1083,1.1419,1.1553,0.0,0.0,1.1189,1.1016,1.0722,1.0727,1.0548,0.995,0.9864,0.0,0.0,0.0,0.0,0.0,0.0,0.0,0.0,0.0,0.0,0.0,0.0,0.0,0.0,0.0,0.0,0.0,0.0,0.0,0.0,0.0,0.0,0.0,0.0,0.0,0.0,0.0,0.0,0.0,0.0,0.0,0.0,0.0,0.0,0.0,0.0,0.0,0.0,0.0,0.0,0.0,0.0,0.0,0.0,0.0,0.0,0.0,0.0,0.0,0.0,0.0,0.0,1.254,1.2936,1.4993,1.6483,1.7316,1.6985,1.6816,1.6755,1.6127,1.5475,0.0,0.0,0.0,0.0,0.0,0.0,0.0,0.0,0.0,0.0,0.0,0.0,0.0,0.0,0.0,0.0,0.0,0.0,0.0,0.0,0.0,0.0,0.0,0.0,0.0,0.0,0.0,0.0,0.8517,0.8618,0.8212,0.0,0.0,0.0,0.0,0.0,0.0,0.0,0.0,0.0,0.0,1.1731,1.1989,1.2103,1.2115,1.1874,1.1667,1.1456,1.1169,1.1014,1.0811,1.0521,0.0,0.0,0.0,0.0,0.0,0.0,0.0,0.0,0.0,0.0,0.0,0.0,0.0,0.0,0.0,0.0,0.0,0.0,0.0,0.0,0.0,0.0,0.0,0.0,0.0,0.0,0.0,0.8389,0.0,0.0,0.7976,0.0,0.0,0.0,0.0,0.0,0.0,0.0,0.0,0.0,0.0,0.0,0.0,0.0,0.0,0.0,0.0,0.0,0.0,0.0,0.0,0.0,0.0,1.2912,1.3528,1.5698,1.7185,1.7867,1.7546,1.7292,1.7078,1.6441,1.6448,1.7115,0.0,0.0,0.0,0.0,0.0,0.0,0.0,0.0,0.0,0.0,0.0,0.0,0.0,0.0,0.0,0.0,0.0,0.0,0.0,0.0,0.0,0.0,0.0,0.0,0.0,0.0,0.7611,0.829,0.8804,0.0,0.0,0.0,0.0,0.0,0.0,0.0,0.0,0.0,1.0975,1.1617,1.2003,1.2017,1.211,1.2197,1.2212,1.2028,1.1785,1.1463,1.1546,1.1587,0.0,0.0,0.0,0.0,0.0,0.0,0.0,0.0,0.0,0.0,0.0,0.0,0.0,0.0,0.0,0.0,0.0,0.0,0.0,0.0,0.0,0.0,0.0,0.0,0.0,0.0,0.0,0.9667,0.9598,0.0,0.0,0.0,0.0,0.0,0.0,0.0,0.0,0.0,0.0,0.0,1.1921,1.2235,0.0,0.0,0.0,0.0,0.0,0.0,0.0,0.0,0.0,0.0,0.0,0.0,1.3209,1.4006,1.6104,1.76,1.8441,1.8165,1.7942,1.7893,1.7474,1.7131,1.6973,0.0,0.0,0.0,0.0,0.0,0.0,0.0,0.0,0.0,0.0,0.0,0.0,0.0,0.0,0.0,0.0,0.0,0.0,0.0,0.0,0.0,0.0,0.0,0.0,0.0,0.8811,0.0,0.0,0.0,0.0,0.0,0.0,0.0,0.0,0.0,0.0,1.0128,1.0856,1.1475,1.2023,1.2429,1.2638,1.2764,1.2784,0.0,0.0,0.0,0.0,0.0,0.0,0.0,0.0,0.0,0.0,0.0,0.0,0.0,0.0,1.0708,1.0162,0.9861,0.9722,0.9825,0.0,0.0,0.0,0.0,0.0,0.0,0.0,0.0,0.0,0.0,0.0,0.0,0.0,0.0,1.0784,1.0699,1.0798,0.0,0.0,0.0,0.0,0.0,0.0,0.0,0.0,1.2704,1.3093,1.3208,1.3664,1.3766,1.3563,1.3286,1.2821,0.0,0.0,0.0,0.0,0.0,0.0,0.0,0.0,1.3956,1.4756,1.665,1.8028,1.8738,1.892,1.8999,1.9041,1.8941,1.8374,1.7245,1.6289,1.5221,0.0,0.0,0.0,0.0,0.0,0.0,0.0,0.0,0.0,0.0,0.0,0.0,0.0,0.0,0.0,0.0,0.0,0.0,0.0,0.0,0.0,0.0,0.0,0.9564,0.0,0.0,0.0,0.0,0.0,0.0,0.0,0.0,0.0,0.9958,1.0783,1.1545,1.1981,1.2516,1.2936,1.3148,0.0,0.0,0.0,0.0,0.0,0.0,0.0,1.2005,1.1852,1.1678,1.1502,1.1224,1.1464,1.1668,1.156,0.0,0.0,1.0839,1.0672,1.0648,1.0755,1.0901,1.1071,1.1185,1.1393,1.1632,0.0,0.0,0.0,0.0,1.2038,0.0,0.0,0.0,1.2154,1.197,0.0,1.2006,0.0,0.0,0.0,0.0,1.1865,1.2152,0.0,0.0,1.4754,1.5228,1.5009,1.5579,1.5935,1.5899,1.4999,1.4706,1.4871,1.3684,0.0,0.0,0.0,0.0,0.0,0.0,1.5007,1.5684,1.7399,1.8474,1.8847,1.9834,2.0369,2.0387,2.0651,1.9994,1.8278,1.896,1.8131,1.5367,1.5464,0.0,0.0,0.0,0.0,0.0,0.0,0.0,0.0,0.0,0.0,0.0,0.0,0.0,0.0,0.0,0.0,0.0,0.0,0.0,0.0,0.9667,0.0,0.0,0.0,0.0,0.0,0.0,0.0,0.0,0.0,1.12,1.0814,1.1636,1.2349,1.2521,0.0,0.0,0.0,0.0,1.3373,1.3681,1.331,1.2972,1.2972,1.2863,1.287,1.315,0.0,0.0,1.2416,1.2446,1.2364,1.1916,1.2221,1.2321,1.1738,1.1503,1.1495,1.1736,1.1801,1.193,1.2195,1.2333,1.2485,1.4445,0.0,0.0,0.0,0.0,1.2656,1.2927,1.3448,1.3215,1.3056,1.2983,1.3035,0.0,0.0,0.0,0.0,0.0,0.0,1.3652,1.4499,1.5112,1.5738,1.6309,1.6543,1.6704,1.6894,1.6411,1.6265,1.6279,1.5704,1.4551,1.2877,0.0,0.0,0.0,0.0,1.5655,1.6771,1.8064,1.8811,1.9133,1.9442,1.9862,2.0361,2.0512,2.0557,2.0651,1.9738,1.8832,1.7981,1.6991,0.0,0.0,0.0,0.0,0.0,0.0,0.0,0.0,0.0,0.0,0.0,0.0,0.0,0.0,0.0,0.0,0.0,0.0,0.0,1.0339,1.0661,1.0845,0.0,0.0,0.0,0.0,0.0,0.0,0.0,0.0,0.0,1.2176,1.2118,1.2371,0.0,0.0,1.3667,1.4159,1.4156,1.4178,1.4272,1.413,0.0,1.4033,1.3877,1.3769,1.379,1.3535,1.3404,1.3506,1.3149,1.2879,1.2968,1.274,1.2453,1.2306,1.2215,1.2218,1.2298,1.2313,1.2342,1.2436,1.2667,1.2877,1.5995,1.5183,1.4316,1.399,1.4046,1.3896,1.419,1.4735,1.4545,1.4457,1.4465,1.4582,1.4318,1.3733,1.3645,0.0,0.0,0.0,1.4845,1.5849,1.6046,1.6557,1.7216,1.7416,1.753,1.7691,1.7391,1.7304,1.7413,1.6967,1.6126,1.4873,0.0,1.442,1.4786,1.5893,1.6854,1.7713,1.9117,1.9863,1.9931,2.0336,2.0782,2.1196,2.1097,2.1133,2.1346,2.074,1.9943,1.8948,1.8029,1.6882,0.0,0.0,0.0,0.0,0.0,0.0,0.0,0.0,0.0,0.0,0.0,0.8229,0.7786,0.0,0.0,0.0,1.1001,1.1237,1.1364,1.1377,0.0,0.0,0.0,0.0,0.0,0.0,0.0,1.1833,1.2395,1.2897,1.3237,1.3025,1.3075,1.3784,1.3879,1.407,1.4582,0.0,1.4516,1.4633,1.4585,1.4504,1.4504,1.4387,1.4314,1.4209,1.4018,1.3945,1.4121,1.3873,1.3667,1.3814,1.3558,1.3294,1.3294,1.3294,1.314,1.2804,1.2826,1.2943,1.3067,1.3258,1.3426,1.7323,1.7228,1.6089,1.5571,1.5548,1.557,1.571,1.6023,1.6023,1.603,1.6045,1.6316,1.5972,1.5119,1.4867,0.0,1.6052,1.5752,1.6243,1.7409,1.7438,1.7629,1.7952,1.8245,1.8407,1.8421,1.8099,1.8091,1.8341,1.7754,1.7453,1.7431,1.6866,1.6588,1.6513,1.7618,1.8262,1.835,2.0223,2.1083,2.0893,2.2038,2.2643,2.2634,2.2371,2.1931,2.1308,2.1896,2.1265,1.9085,1.878,1.8306,1.7551,0.0,0.0,0.0,0.0,0.0,0.0,0.0,0.0,0.0,0.0,0.0,0.0,0.0,0.0,1.2299,1.2808,0.0,1.2594,1.1974,0.0,0.0,0.0,1.1262,1.2301,1.2395,1.2559,1.3045,0.0,0.0,1.4018,1.4093,1.4172,1.454,1.4555,1.4618,1.4893,1.4743,1.4655,1.49,1.4743,1.4592,1.4611,1.4596,1.4604,1.4582,1.4585,1.4592,1.4592,1.4501,1.454,1.4487,1.4518,1.4467,1.4489,1.4416,1.4187,1.3301,1.3367,1.366,1.3909,1.402,1.407,1.7699,1.7691,1.764,1.7194,1.6587,1.6769,1.687,1.6943,1.6943,1.6943,1.6958,1.7069,1.7113,1.7082,1.7047,1.7235,1.7628,1.76,1.7836,1.8348,1.8598,1.8845,1.9169,1.9245,1.9411,1.9607,1.932,1.9207,1.926,1.886,1.8663,1.8656,1.8553,1.7976,1.7128,1.7406,1.7925,1.8672,1.9153,1.9895,2.0928,2.2735,2.3692,2.3741,2.4149,2.4288,2.4079,2.2936,2.2195,2.1996,2.0063,1.9029,1.9025,1.6369,0.0,0.0,0.0,0.0,0.0,0.0,0.0,0.0,0.0,0.9959,0.9538,0.0,1.1489,0.0,1.32,1.3623,1.3294,1.3098,0.0,0.0,1.2366,1.2366,1.3106,1.3229,1.3353,1.3718,1.4033,1.4355,1.463,1.4674,1.4838,1.5153,1.4944,1.49,1.5214,1.5214,1.5226,1.5236,1.5233,1.5204,1.5189,1.5204,1.5204,1.5204,1.5204,1.5196,1.5196,1.4992,1.4838,1.4776,1.4626,1.4533,1.4526,1.4504,1.4452,1.421,1.4187,1.4291,1.4379,1.4394,1.4423,1.8247,1.8277,1.8606,1.8343,1.7721,1.775,1.7757,1.7765,1.7765,1.7757,1.7765,1.7757,1.786,1.8028,1.8174,1.8264,1.8458,1.8562,1.8791,1.9112,1.9247,1.9506,1.9819,1.9819,1.991,2.0071,1.9903,1.9819,1.9804,1.9628,1.9537,1.9537,1.9537,1.9121,1.8387,1.8639,1.9177,2.0032,2.0628,2.1379,2.2324,2.3493,2.3759,2.3193,2.4055,2.4146,2.3355,2.3174,2.2664,2.1817,2.0481,1.9576,1.9138,1.7089,1.5729,0.0,0.0,0.0,0.0,0.0,0.0,0.0,0.0,0.0,0.0,0.0,1.2586,1.2845,1.3674,1.4108,1.374,1.3718,1.3748,1.3857,1.3674,1.382,1.4501,1.4575,1.4692,1.5006,1.5127,1.5182,1.5309,1.5274,1.5293,1.5519,1.5468,1.5465,1.5496,1.5541,1.5582,1.568,1.5714,1.5781,1.5908,1.6057,1.6139,1.6132,1.6027,1.5983,1.6102,1.5752,1.5483,1.5602,1.5394,1.5218,1.5218,1.5218,1.5218,1.5218,1.5218,1.5125,1.4905,1.4828,1.4897,1.8789,1.8825,1.9192,1.9111,1.8825,1.8547,1.843,1.843,1.843,1.8423,1.843,1.843,1.8423,1.843,1.8714,1.8862,1.8912,1.9174,1.9441,1.976,1.9775,1.9921,2.0181,2.0189,2.0189,2.0181,2.0189,2.0189,2.0189,2.0189,2.0158,2.012,2.012,2.001,1.9853,2.0355,2.0925,2.1435,2.2622,2.3523,2.4045,2.41,2.3517,2.2421,2.3409,2.3174,2.1569,2.3057,2.2885,2.0633,2.0522,2.0081,1.9118,1.7535,1.6426,0.0,1.4538,0.0,0.0,0.0,0.0,0.0,0.0,0.0,0.0,1.3741,1.4079,1.3837,1.4335,1.4592,1.4311,1.432,1.4516,1.5009,1.5082,1.5316,1.5891,1.5972,1.6118,1.6389,1.6227,1.6058,1.6036,1.5963,1.591,1.6022,1.6178,1.63,1.6121,1.5917,1.5831,1.6087,1.6136,1.6137,1.6388,1.6713,1.6888,1.6927,1.67,1.6721,1.698,1.6553,1.6247,1.6476,1.627,1.6072,1.6087,1.6072,1.6072,1.6041,1.6034,1.5868,1.5519,1.5395,1.5589,1.8789,1.8825,1.914,1.9287,1.9184,1.9118,1.9096,1.9089,1.9089,1.9089,1.9089,1.9089,1.9096,1.9148,1.939,1.9639,1.9844,2.0115,2.0409,2.0668,2.0668,2.07,2.0763,2.0763,2.0763,2.0763,2.0763,2.0763,2.0763,2.0763,2.0621,2.0353,2.0337,2.0553,2.0945,0.0,0.0,0.0,2.1496,2.2568,2.3797,2.4009,2.4212,2.4456,2.4707,0.0,2.3271,2.3273,2.3081,2.2531,2.0898,0.0,0.0,0.0,0.0,0.0,0.0,0.0,0.0,0.0,0.0,0.0,1.5333,1.4862,1.3774,1.4523,1.515,1.536,1.5541,1.5716,1.5949,1.5964,1.6,1.6125,1.6096,1.6191,1.6323,1.6514,1.6683,1.6727,1.6807,1.6893,1.6841,1.6868,1.6929,1.7127,1.7285,1.7497,1.7877,1.6786,1.6084,1.6095,1.6197,1.6174,1.6171,1.635,1.6645,1.6583,1.6652,1.6771,1.7016,1.6802,1.6499,1.6633,1.6324,1.6136,1.6136,1.6136,1.6128,1.6136,1.6136,1.6072,1.5962,1.5947,1.6053,1.903,1.9045,1.9213,1.9272,0.0,1.9272,1.9272,1.9272,1.9272,1.9272,1.9272,1.9272,1.9272,1.9331,1.9732,1.9975,2.0138,2.0506,2.0771,2.0925,2.0925,2.0925,2.0925,2.0925,2.0925,2.0925,2.0925,2.0925,2.0925,2.0925,2.0829,2.0655,2.0655,2.0811,2.1081,2.0982,2.1139,2.1485,2.1912,2.287,2.4234,2.4449,2.481,2.5444,2.5583,0.0,0.0,0.0,0.0,0.0,0.0,0.0,0.0,2.0448,0.0,1.8937,1.78,1.6953,1.6638,1.6507,1.6489,1.6577,1.6783,1.6388,1.526,1.5796,1.6258,1.6425,1.6477,1.6615,1.6974,1.6967,1.6982,1.7055,1.7039,1.6986,1.6895,1.7085,1.7228,1.7251,1.7296,1.7323,1.7316,1.7303,1.7376,1.753,1.7642,1.7817,1.8053,1.7531,1.7055,1.6962,1.7079,1.7216,1.7196,1.7336,1.7375,1.7437,1.7289,1.7251,1.7434,1.7001,1.6679,1.6861,1.6651,1.6417,1.6417,1.6376,1.6417,1.6409,1.6409,1.6409,1.6376,1.6319,1.6332,1.9272,1.9272,1.9272,1.9272,1.9272,1.9272,1.9272,1.9272,1.9272,0.0,0.0,1.9272,1.9272,1.9324,1.9828,2.0034,2.0138,2.0609,2.0873,2.0925,2.0925,2.0925,2.0925,2.0925,2.0925,2.0925,2.0925,2.0925,2.0925,2.0925,2.0925,2.0925,2.0925,2.0925,2.0925,2.0925,2.1383,2.2328,2.2385,2.3077,2.4468,2.4395,2.4727,2.5515,2.5768,2.5335,2.422,2.4975,2.4608,2.299,2.3712,2.3474,2.2015,2.1567,2.0765,1.9373,1.8718,1.8137,1.758,1.752,1.7499,1.7465,1.7976,1.8004,1.7147,1.7257,1.7366,1.742,1.733,1.7362,1.7629,1.7712,1.769,1.7738,1.7768,1.766,1.7419,1.7667,1.7831,1.7785,1.7781,1.7803,1.7841,1.7767,1.7752,1.7851,1.8042,1.8093,1.8065,1.7995,1.778,1.7735,1.783,1.8136,1.8216,1.8327,1.8526,1.8211,1.8025,1.789,1.785,1.7437,1.7159,1.735,1.7072,1.6808,1.6713,1.6656,1.6689,1.6689,1.6689,1.6689,1.6689,1.6566,1.6556,1.9272,1.9272,1.9272,1.9272,1.9272,1.9272,1.9272,1.9272,1.9272,1.9272,1.9272,1.9272,1.9272,1.9331,1.9628,1.9879,2.0138,2.0411,2.0668,2.0925,2.0925,2.0925,2.0925,2.0925,2.0925,2.0925,2.0925,2.0925,2.0925,2.0925,2.0925,2.0925,2.0925,2.0925,2.0925,2.0925,2.0995,2.1143,2.1089,2.1758,2.3235,2.2519,2.2908,2.4426,2.4548,2.4555,2.4441,2.4598,2.4542,2.42,2.3164,2.2575,2.2702,2.2263,2.1797,2.1254,2.208,2.221,2.1192,2.0683,1.9914,1.8918,1.9304,1.9431,1.9067,1.8566,1.845,1.8691,1.8265,1.7957,1.801,1.8041,1.8018,1.8025,1.804,1.7947,1.7675,1.8055,1.8288,1.8087,1.8419,1.8602,1.8571,1.8585,1.8632,1.9018,1.8915,1.912,1.8899,1.839,1.789,1.7779,1.7854,1.7886,1.7969,1.7934,1.8105,1.8271,1.8255,1.8255,1.8454,1.8184,1.7858,1.7767,1.7456,1.7119,1.6808,1.6689,1.6753,1.6768,1.6776,1.6753,1.6753,1.668,1.6743,1.9272,1.9272,1.9272,1.9272,1.9272,1.9272,1.9272,1.9272,1.9272,1.9272,1.9272,1.9272,1.9272,1.9324,1.9576,1.9783,1.9879,2.0308,2.0573,2.0668,2.0814,2.0925,2.0925,2.0925,2.0925,2.0925,2.0925,2.0925,2.0925,2.0925,2.0925,2.0925,2.0925,2.0925,2.0925,2.0925,2.0925,2.0917,2.0859,2.1462,2.2699,2.2359,2.2786,2.4163,2.4708,2.5098,2.5155,2.5722,2.5769,2.5145,2.4304,2.3692,2.3266,2.2155,2.1404,2.1186,2.1044,2.0847,2.0543,2.0474,2.0186,1.9599,1.9911,2.0178,2.021,1.9454,1.906,1.9186,1.8754,1.8458,1.8504,1.8504,1.8419,1.8334,1.8326,1.8187,1.8001,1.8241,1.8435,1.8381,1.8604,1.8781,1.8781,1.8781,1.8821,1.905,1.9074,1.9082,1.9082,1.8684,1.8343,1.8343,1.8343,1.8351,1.8335,1.8343,1.8343,1.8327,1.8303,1.8279,1.8295,1.8105,1.8021,1.7854,1.7679,1.7501,1.7294,1.7302,1.7294,1.7294,1.7294,1.7254,1.7088,1.6848,1.6761,1.9272,1.9272,1.9272,1.9272,1.9272,1.9272,1.9272,1.9272,1.9272,1.9272,1.9272,1.9272,1.9272,1.9331,1.9524,1.968,1.9828,2.0205,2.047,2.0624,2.0822,2.0925,2.0925,2.0925,2.0925,2.0925,2.0925,2.0925,2.0925,2.0925,2.0925,2.0925,2.0925,2.0925,2.0925,2.0925,2.0925,2.0925,2.0925,2.1275,2.2072,2.2131,2.2669,2.3701,2.4541,2.5206,2.5693,2.6524,2.6572,2.5722,2.513,2.4355,2.3272,2.1872,2.1027,2.0955,2.0213,1.9778,1.9883,1.9862,1.993,2.0009,2.0253,2.0512,2.0686,1.9995,1.9487,1.9439,1.909,1.8781,1.8781,1.8781,1.8743,1.8566,1.8574,1.8473,1.828,1.8419,1.8527,1.8527,1.8651,1.8781,1.8781,1.8781,1.8789,1.8797,1.8781,1.8781,1.8781,1.8781,1.8781,1.8781,1.8781,1.8742,1.8781,1.8758,1.8647,1.8446,1.843,1.8359,1.8176,1.8057,1.7962,1.7954,1.7906,1.787,1.783,1.7783,1.7767,1.7743,1.7683,1.7652,1.7429,1.7207,1.6856,1.9272,1.9272,1.9272,1.9272,1.9272,1.9272,1.9272,1.9272,1.9272,1.9272,1.9272,1.9272,1.9272,1.9331,1.9324,1.9576,2.0027,2.0138,2.0403,2.0822,2.0873,2.0925,2.0925,2.0925,2.0925,2.0925,2.0925,2.0925,2.0925,2.0925,2.0925,2.0925,2.0925,2.0925,2.0925,2.0925,2.0925,2.0925,2.0925,2.0976,2.1027,2.1019,2.1581,2.2619,2.2778,2.3719,2.5548,2.579,2.579,2.5615,2.4438,2.3241,2.2244,2.1695,2.1423,2.1397,2.2064,2.225,2.1328,2.0426,1.9884,1.9924,2.021,2.0384,2.0424,2.01,1.9861,1.9742,1.9201,1.8797,1.8781,1.8781,1.8781,1.8735,1.8735,1.8705,1.8527,1.8658,1.8697,1.8527,1.8697,1.8781,1.8781,1.8781,1.8781,1.8781,1.8781,1.8781,1.8781,1.8781,1.8781,1.8781,1.8781,1.8781,1.8781,1.8781,1.8742,1.871,1.8718,1.8692,1.8621,1.8621,1.8645,1.8295,1.8247,1.8152,1.7938,1.7814,1.7862,1.7906,1.7874,1.7814,1.7731,1.7687,1.7413,1.9272,1.9272,1.9272,1.9272,1.9272,1.9272,1.9272,1.9272,1.9272,1.9272,1.9272,1.9272,1.9272,1.9272,1.9272,1.9428,1.9628,1.9983,2.0233,2.0447,2.0771,2.0925,2.0925,2.0925,2.0925,2.0925,2.0925,2.0925,2.0925,2.0925,2.0925,2.0925,2.0925,2.0925,2.0925,2.0925,2.0925,2.0925,2.0925,2.0925,2.0925,2.0925,2.1113,2.1623,2.2761,2.3809,2.4688,2.5343,2.5693,2.5567,2.3761,2.2377,2.1724,2.0808,2.0128,1.9986,2.0481,2.0693,2.0283,2.0031,1.9909,1.9909,2.0036,2.0124,2.0067,1.966,1.9422,1.9511,1.9121,1.8781,1.8781,1.8781,1.8781,1.8781,1.8781,1.8781,1.8697,1.8735,1.8781,1.8697,1.8743,1.8781,1.8781,1.8781,1.8781,1.8781,1.8781,1.8781,1.8781,1.8781,1.8781,1.8781,1.8781,1.8781,1.8781,1.8781,1.8781,1.8781,1.8781,1.8781,1.8781,1.8781,1.8764,1.8613,1.8589,1.8549,1.847,1.8398,1.839,1.8335,1.8168,1.8081,1.8081,1.7958,1.7687,1.9199,1.9272,1.9272,1.9272,1.9272,1.9272,1.9272,1.9272,1.9272,1.9272,1.9272,1.9272,1.9272,1.9272,1.9272,1.9324,1.948,1.9887,2.0138,2.0241,2.0712,2.0925,2.0925,2.0925,2.0925,2.0925,2.0925,2.0925,2.0925,2.0925,2.0925,2.0925,2.0925,2.0925,2.0925,2.0925,2.0925,2.0925,2.0925,2.0925,2.0925,2.0925,2.0925,2.1019,2.2409,2.3352,2.3701,2.4402,2.4805,2.4747,2.2988,2.1684,2.1077,1.9972,1.9209,1.8899,1.9066,1.9272,1.9225,1.9495,1.9582,1.959,1.9654,1.9781,1.9685,1.9303,1.913,1.9201,1.8855,1.8635,1.8781,1.8781,1.8781,1.8781,1.8781,1.8781,1.8781,1.8781,1.8781,1.8781,1.8781,1.8781,1.8781,1.8781,1.8781,1.8781,1.8781,1.8781,1.8781,1.8781,1.8781,1.8781,1.8781,1.8781,1.8781,1.8781,1.8781,1.8781,1.8781,1.8781,1.8781,1.8781,1.8781,1.8732,1.8758,1.8758,1.8654,1.8756,1.8796,1.8772,1.8613,1.8422,1.8438,1.8216,1.8112,1.8994,1.9257,1.9272,1.9272,1.9272,1.9272,1.9272,1.9272,1.9272,1.9272,1.9272,1.9272,1.9272,1.9272,1.9272,1.9428,1.968,1.9931,2.0241,2.0462,2.0771,2.0925,2.0925,2.0925,2.0925,2.0925,2.0925,2.0925,2.0925,2.0925,2.0925,2.0925,2.0925,2.0925,2.0925,2.0925,2.0925,2.0925,2.0925,2.0925,2.0925,2.0925,2.0925,2.0917,2.107,2.1717,2.2476,2.2619,2.2728,2.2677,2.2225,2.1367,2.0135,1.9654,1.9217,1.8907,1.8813,1.8821,1.8829,1.8876,1.8923,1.8947,1.9225,1.9391,1.9391,1.9091,1.8965,1.8996,1.8504,1.8319,1.8689,1.8735,1.8735,1.8781,1.8781,1.8781,1.8781,1.8781,1.8781,1.8781,1.8781,1.8781,1.8781,1.8781,1.8781,1.8781,1.8781,1.8781,1.8781,1.8781,1.8781,1.8781,1.8781,1.8781,1.8781,1.8781,1.8781,1.8781,1.8781,1.8781,1.8781,1.8781,1.8781,1.8781,1.8781,1.8781,1.8781,1.8781,1.8773,1.8765,1.8765,1.8724,1.8669,1.8764,1.8669,1.854,1.9272,1.9272,1.9272,1.9272,1.9272,1.9272,1.9272,1.9272,1.9272,1.9272,1.9272,1.9272,1.9272,1.9272,1.9331,1.948,1.9879,2.0138,2.03,2.0712,2.0925,2.0925,2.0925,2.0925,2.0925,2.0925,2.0925,2.0925,2.0925,2.0925,2.0925,2.0925,2.0925,2.0925,2.0925,2.0925,2.0925,2.0925,2.0925,2.0925,2.0925,2.0925,2.0917,2.1581,2.2123,2.2476,2.2476,2.2476,2.2476,2.1745,2.0969,2.0243,1.9677,1.932,1.9177,1.8955,1.8781,1.8781,1.8781,1.8781,1.8789,1.8939,1.9034,1.8979,1.8691,1.8504,1.8535,1.8193,1.8048,1.8226,1.8365,1.8411,1.8566,1.8612,1.8651,1.8781,1.8781,1.8781,1.8781,1.8781,1.8781,1.8781,1.8781,1.8781,1.8781,1.8781,1.8781,1.8781,1.8781,1.8781,1.8781,1.8781,1.8781,1.8781,1.8781,1.8781,1.8781,1.8781,1.8781,1.8781,1.8781,1.8781,1.8781,1.8781,1.8781,1.8781,1.8781,1.8781,1.8781,1.8781,1.8781,1.8781,1.8781,1.8781,1.8742,1.9411,1.9368,1.9272,1.9272,1.9272,1.9272,1.9272,1.9272,1.9272,1.9272,1.9272,1.9272,1.9272,1.9272,1.9272,1.9376,1.9879,2.0138,2.0138,2.066,2.0925,2.0925,2.0925,2.0925,2.0925,2.0925,2.0925,2.0925,2.0925,2.0925,2.0925,2.0925,2.0925,2.0925,2.0925,2.0925,2.0925,2.0925,2.0925,2.0925,2.0925,2.0925,2.1019,2.1623,2.1979,2.1971,2.1979,2.1979,2.1878,2.1267,2.0758,2.0384,1.9749,1.9415,1.9383,1.9026,1.8781,1.8781,1.8781,1.8781,1.8781,1.8781,1.8781,1.8789,1.8365,1.8234,1.8241,1.7908,1.7667,1.7807,1.7854,1.804,1.8388,1.8489,1.8566,1.8789,1.8781,1.8781,1.8781,1.8781,1.8781,1.8781,1.8781,1.8781,1.8781,1.8781,1.8781,1.8781,1.8781,1.8781,1.8781,1.8781,1.8781,1.8781,1.8781,1.8781,1.8781,1.8781,1.8781,1.8781,1.8781,1.8781,1.8781,1.8773,1.8781,1.8781,1.8781,1.8781,1.8773,1.8781,1.8781,1.8781,1.8781,1.8781,1.9762,1.9779,1.947,1.933,1.9323,1.9323,1.9294,1.9279,1.9272,1.9272,1.9272,1.9272,1.9272,1.9272,1.9272,1.9272,1.9376,1.9828,2.0138,2.0138,2.066,2.0925,2.0925,2.0925,2.0925,2.0925,2.0925,2.0925,2.0925,2.0925,2.0925,2.0925,2.0925,2.0925,2.0925,2.0925,2.0925,2.0925,2.0925,2.0925,2.0925,2.0925,2.0925,2.0925,2.1019,2.1019,2.0968,2.0968,2.1019,2.1019,2.0925,2.0758,2.0369,1.9821,1.9391,1.9328,1.9026,1.8797,1.8781,1.8781,1.8781,1.8781,1.8781,1.8781,1.8735,1.8365,1.8133,1.8087,1.7667,1.7333,1.738,1.738,1.7667,1.8342,1.8388,1.8473,1.8697,1.8781,1.8781,1.8781,1.8781,1.8781,1.8781,1.8781,1.8781,1.8781,1.8781,1.8781,1.8781,1.8781,1.8781,1.8781,1.8781,1.8781,1.8781,1.8781,1.8781,1.8781,1.8781,1.8781,1.8781,1.8781,1.8781,1.8773,1.8692,1.8692,1.875,1.875,1.8734,1.8726,1.875,1.8781,1.8781,1.8781,1.8781,2.0084,2.0077,1.9981,1.9806,1.9676,1.9661,1.9491,1.9338,1.9272,1.9272,1.9272,1.9272,1.9272,1.9272,1.9272,1.9272,1.9324,1.9828,2.0138,2.0181,2.066,2.0925,2.0925,2.0925,2.0925,2.0925,2.0925,2.0925,2.0925,2.0925,2.0925,2.0925,2.0925,2.0925,2.0925,2.0925,2.0925,2.0925,2.0925,2.0925,2.0925,2.0925,2.0925,2.0925,2.0925,2.0925,2.0925,2.0925,2.0925,2.0925,2.0925,2.0758,2.0392,2.0012,1.9662,1.9415,1.9026,1.8781,1.8781,1.8781,1.8781,1.8781,1.8781,1.8781,1.8735,1.8381,1.8148,1.8048,1.7613,1.7286,1.7286,1.7286,1.752,1.7916,1.7962,1.8148,1.852,1.8751,1.8781,1.8781,1.8781,1.8781,1.8781,1.8781,1.8781,1.8781,1.8781,1.8781,1.8781,1.8781,1.8781,1.8781,1.8781,1.8781,1.8781,1.8781,1.8781,1.8781,1.8781,1.8781,1.8781,1.8781,1.8781,1.8686,1.8605,1.8589,1.8654,1.867,1.8623,1.871,1.8765,1.8781,1.8781,1.8781,1.8781,2.0358,2.0406,2.0234,2.012,1.9945,1.9938,1.9755,1.9484,1.9507,1.9396,1.9301,1.9272,1.9272,1.9272,1.9272,1.9272,1.9383,1.9879,2.0138,2.0189,2.0652,2.0917,2.0925,2.0925,2.0925,2.0925,2.0925,2.0925,2.0925,2.0925,2.0925,2.0925,2.0925,2.0925,2.0925,2.0925,2.0925,2.0925,2.0925,2.0925,2.0925,2.0925,2.0925,2.0925,2.0925,2.0925,2.0925,2.0925,2.0925,2.0925,2.0925,2.0805,2.0583,2.0257,1.9908,1.9622,1.9241,1.8986,1.8859,1.8781,1.8781,1.8781,1.8781,1.8907,1.8893,1.8652,1.8418,1.8223,1.7893,1.7544,1.7355,1.7286,1.738,1.7535,1.7675,1.7908,1.8388,1.8612,1.8651,1.8697,1.8735,1.8743,1.8743,1.8781,1.8781,1.8781,1.8781,1.8781,1.8781,1.8781,1.8781,1.8781,1.8781,1.8781,1.8781,1.8781,1.8781,1.8781,1.8781,1.8781,1.8781,1.8819,1.8819,1.8589,1.8438,1.8422,1.851,1.8462,1.843,1.8605,1.875,1.8781,1.8781,1.8781,1.8781,2.0638,2.0706,2.0428,2.0249,2.0212,2.0205,2.0077,1.9813,1.9793,1.9632,1.9367,1.9294,1.9272,1.9272,1.9272,1.9272,1.9376,1.9879,2.0138,2.0241,2.0601,2.0925,2.0925,2.0925,2.0925,2.0925,2.0925,2.0925,2.0925,2.0925,2.0925,2.0925,2.0925,2.0925,2.0925,2.0925,2.0925,2.0925,2.0925,2.0925,2.0925,2.0925,2.0925,2.0925,2.0925,2.0925,2.0925,2.0925,2.0925,2.0925,2.0925,2.0893,2.0813,2.0559,2.0202,1.9885,1.959,1.9248,1.897,1.8931,1.8939,1.8986,1.901,1.9026,1.9288,1.9146,1.8869,1.8584,1.8291,1.794,1.7453,1.7286,1.7333,1.738,1.7574,1.7908,1.8388,1.8481,1.8527,1.8574,1.8658,1.8743,1.8612,1.8697,1.8781,1.8781,1.8781,1.8781,1.8781,1.8781,1.8781,1.8781,1.8781,1.8781,1.8781,1.8599,1.8591,1.8597,1.8613,1.8629,1.8708,1.8732,1.8684,1.847,1.82,1.8224,1.8247,1.8192,1.8311,1.8549,1.8647,1.8734,1.8781,1.8781,1.8781,2.0201,2.1007,2.0991,2.0815,2.0611,2.054,2.0406,2.0098,1.9918,1.9779,1.9639,1.9426,1.9272,1.9272,1.9272,1.9272,1.9428,1.9835,2.0138,2.0189,2.0652,2.0873,2.0925,2.0925,2.0925,2.0925,2.0925,2.0925,2.0925,2.0925,2.0925,2.0925,2.0925,2.0925,2.0925,2.0925,2.0925,2.0925,2.0925,2.0925,2.0925,2.0925,2.0925,2.0925,2.0925,2.0925,2.0925,2.0925,2.0925,2.0925,2.0925,2.079,2.0591,2.0464,2.0273,1.9972,1.9646,1.9471,1.9511,1.936,1.9344,1.9566,1.9519,1.963,1.9717,1.9539,1.9132,1.8722,1.8336,1.797,1.746,1.7286,1.738,1.7581,1.7675,1.7861,1.8187,1.8381,1.8574,1.8697,1.8743,1.8743,1.8697,1.8743,1.8781,1.8781,1.8781,1.8781,1.8781,1.8781,1.8781,1.8781,1.8781,1.8781,1.8718,1.8549,1.8414,1.8351,1.8319,1.8287,1.8414,1.8541,1.8454,1.8311,1.7858,1.7739,1.785,1.789,1.816,1.8454,1.8623,1.875,1.8773,1.8781,1.8781,1.8913,1.9622,2.0213,2.028,2.0182,2.0692,2.0686,2.0365,2.0106,1.9872,1.9771,1.9478,1.9279,1.9272,1.9272,1.9272,1.9376,1.9879,2.0086,2.0189,2.066,2.0873,2.0925,2.0925,2.0925,2.0925,2.0925,2.0925,2.0925,2.0925,2.0925,2.0925,2.0925,2.0925,2.0925,2.0925,2.0925,2.0925,2.0925,2.0925,2.0925,2.0925,2.0925,2.0925,2.0925,2.0925,2.0925,2.0925,2.0925,2.0925,2.0909,2.0821,2.0647,2.0607,2.0456,2.0164,1.9949,1.9852,1.9853,1.9726,1.9726,1.9861,1.9909,2.0004,2.0051,1.9943,1.9628,1.9267,1.8944,1.8389,1.7819,1.746,1.7441,1.7628,1.7721,1.7861,1.8234,1.8427,1.852,1.8651,1.8697,1.8604,1.855,1.8596,1.8651,1.8697,1.8735,1.8781,1.8781,1.8781,1.8758,1.8734,1.8669,1.8597,1.847,1.8263,1.8057,1.7993,1.7946,1.7922,1.8025,1.8184,1.8073,1.7874,1.7544,1.7352,1.7504,1.7676,1.8001,1.8295,1.8589,1.8726,1.8742,1.8702,1.8718,1.7267,1.7507,1.8739,1.9267,1.9543,2.0673,2.1028,2.0742,2.0307,2.0069,1.9798,1.944,1.9279,1.9272,1.9272,1.9331,1.9383,1.9879,2.0138,2.0344,2.066,2.0925,2.0925,2.0925,2.0925,2.0925,2.0925,2.0925,2.0925,2.0925,2.0925,2.0925,2.0925,2.0925,2.0925,2.0925,2.0925,2.0925,2.0925,2.0925,2.0925,2.0925,2.0925,2.0925,2.0925,2.0925,2.0925,2.0925,2.0925,2.0925,2.0925,2.0909,2.0901,2.0858,2.0766,2.0496,2.0345,2.0202,2.01,2.0052,2.0012,2.0092,2.01,2.0098,2.0361,2.0334,2.0164,1.9817,1.9641,1.886,1.8143,1.7613,1.7596,1.7768,1.7815,1.8055,1.8342,1.8489,1.8481,1.852,1.852,1.8381,1.8326,1.8326,1.852,1.8705,1.8743,1.8781,1.8781,1.8781,1.8764,1.8676,1.8518,1.8311,1.8136,1.7946,1.7739,1.7596,1.7533,1.7509,1.7548,1.762,1.7556,1.7382,1.7199,1.7127,1.7167,1.7445,1.7795,1.8001,1.8192,1.8494,1.8716,1.8645,1.8575,1.6568,1.7501,1.8739,1.9267,1.9499,2.0622,2.111,2.0978,2.0416,2.0179,2.0003,1.9528,1.9286,1.9272,1.9272,1.9376,1.9628,1.9983,2.0292,2.0712,2.0814,2.0925,2.0925,2.0865,2.0925,2.0925,2.0925,2.0925,2.0925,2.0925,2.0925,2.0925,2.0925,2.0925,2.0925,2.0925,2.0925,2.0925,2.0925,2.0925,2.0925,2.0925,2.0925,2.0925,2.0925,2.0925,2.0925,2.0925,2.0925,2.0925,2.0925,2.0925,2.0925,2.0925,2.0869,2.0758,2.0543,2.048,2.0591,2.0432,2.04,2.0599,2.0607,2.0726,2.0758,2.0527,2.0316,1.9941,1.9308,1.8692,1.804,1.7742,1.7822,1.8102,1.8295,1.8342,1.8481,1.8489,1.8574,1.8612,1.8566,1.852,1.8604,1.8473,1.8566,1.8705,1.8743,1.8781,1.8758,1.8734,1.8629,1.847,1.824,1.8009,1.7826,1.762,1.739,1.7254,1.7199,1.7159,1.7191,1.7231,1.7239,1.7151,1.7016,1.6976,1.6976,1.7183,1.7575,1.7711,1.7826,1.812,1.8351,1.8375,1.8502,1.51,1.58,1.7032,1.7566,1.7858,1.9492,2.0179,2.0097,2.0236,2.0095,1.993,1.9477,1.9279,1.9272,1.9324,1.9428,1.9732,2.0094,2.0351,2.0557,2.0712,2.0822,2.0771,2.0814,2.0925,2.0925,2.0925,2.0925,2.0925,2.0925,2.0925,2.0925,2.0925,2.0925,2.0925,2.0925,2.0925,2.0925,2.0925,2.0925,2.0925,2.0925,2.0925,2.0925,2.0925,2.0925,2.0925,2.0925,2.0925,2.0925,2.0925,2.0925,2.0925,2.0925,2.0925,2.0877,2.0782,2.071,2.0805,2.0774,2.071,2.0901,2.0925,2.0925,2.0845,2.0599,2.0376,2.0147,1.9649,1.8985,1.8369,1.7828,1.8031,1.8342,1.8489,1.8489,1.8527,1.8566,1.8558,1.8558,1.8473,1.8465,1.8465,1.8473,1.8527,1.8612,1.8781,1.8804,1.8533,1.8486,1.8319,1.8144,1.7914,1.7699,1.756,1.7286,1.6982,1.6887,1.6864,1.6848,1.6864,1.6953,1.7,1.6929,1.6865,1.6776,1.6816,1.7072,1.7297,1.7429,1.762,1.7819,1.7962,1.8025,1.8216,1.3688,1.3808,1.5046,1.5569,1.5978,1.7983,1.8825,1.8695,1.9471,1.9549,1.9573,1.9306,1.9272,1.9272,1.9272,1.9428,1.9791,2.0145,2.0351,2.0351,2.0668,2.0676,2.0624,2.0771,2.0873,2.0822,2.0873,2.0925,2.0925,2.0925,2.0925,2.0925,2.0925,2.0925,2.0925,2.0925,2.0925,2.0925,2.0925,2.0925,2.0925,2.0925,2.0925,2.0925,2.0925,2.0925,2.0925,2.0925,2.0925,2.0925,2.0925,2.0925,2.0925,2.0925,2.0925,2.0925,2.0885,2.0893,2.0901,2.0901,2.0901,2.0925,2.0925,2.0925,2.0845,2.0525,2.0376,2.0276,1.9917,1.9388,1.8995,1.8387,1.8171,1.8427,1.8527,1.8481,1.8481,1.8612,1.8558,1.8373,1.8427,1.8473,1.8465,1.8465,1.8473,1.8566,1.8681,1.8708,1.8438,1.8224,1.8089,1.7858,1.7628,1.739,1.7199,1.7119,1.6792,1.6745,1.6689,1.6689,1.6689,1.6753,1.6857,1.6768,1.6713,1.6689,1.6721,1.6921,1.7096,1.7239,1.7326,1.7437,1.7556,1.7719,1.7898,1.3688,1.3808,1.5046,1.5569,1.5773,1.6918,1.743,1.7471,1.8077,1.832,1.8379,1.8991,1.9116,1.9168,1.9272,1.942,1.968,2.0042,2.0248,2.0359,2.0573,2.0573,2.0573,2.0771,2.0771,2.0676,2.0771,2.0925,2.0925,2.0925,2.0925,2.0925,2.0925,2.0925,2.0925,2.0925,2.0925,2.0925,2.0925,2.0925,2.0925,2.0925,2.0925,2.0925,2.0925,2.0925,2.0925,2.0925,2.0925,2.0925,2.0925,2.0925,2.0925,2.0925,2.0925,2.0925,2.0925,2.0925,2.0925,2.0925,2.0925,2.0925,2.0925,2.0925,2.0782,2.0408,2.03,2.0175,1.9799,1.92,1.8995,1.8597,1.8504,1.8651,1.8566,1.8427,1.8326,1.8427,1.8574,1.8427,1.8481,1.8527,1.852,1.8512,1.8612,1.8611,1.864,1.8557,1.8271,1.8081,1.7938,1.766,1.7358,1.7111,1.684,1.6816,1.6713,1.6713,1.6689,1.6689,1.6689,1.6689,1.6689,1.6689,1.6689,1.6689,1.6745,1.68,1.6832,1.6976,1.7008,1.704,1.7191,1.7358,1.7575,1.3688,1.3748,1.4396,1.4629,1.4762,1.5712,1.6046,1.6062,1.6753,1.7035,1.7062,1.7358,1.7562,1.7674,1.8265,1.8795,1.9472,2.0094,2.0197,2.0205,2.0462,2.0624,2.0522,2.0771,2.0822,2.0771,2.0873,2.0873,2.0925,2.0925,2.0925,2.0925,2.0925,2.0925,2.0925,2.0925,2.0925,2.0925,2.0925,2.0925,2.0925,2.0925,2.0925,2.0925,2.0925,2.0925,2.0925,2.0925,2.0925,2.0925,2.0925,2.0925,2.0925,2.0925,2.0925,2.0925,2.0925,2.0925,2.0925,2.0925,2.0925,2.0925,2.0925,2.0925,2.0805,2.0527,2.0279,2.0158,1.9668,1.9236,1.9437,1.8871,1.8659,1.8697,1.8612,1.8435,1.8381,1.8435,1.8481,1.8527,1.8566,1.8612,1.8566,1.8604,1.8697,1.868,1.8615,1.8398,1.8112,1.7882,1.7699,1.7366,1.7072,1.6976,1.6745,1.6721,1.6689,1.6689,1.6689,1.6689,1.6689,1.6689,1.6689,1.6689,1.6689,1.6689,1.6705,1.6745,1.6713,1.6689,1.6776,1.6897,1.6945,1.7056,1.7231,1.3688,1.3688,1.3688,1.3665,1.3772,1.4496,1.4666,1.4614,1.5473,1.5737,1.5618,1.5861,1.6021,1.6234,1.7147,1.8213,1.9272,1.9998,1.9946,1.9939,2.0248,2.0454,2.0454,2.0557,2.0609,2.0462,2.0668,2.0771,2.0873,2.0925,2.0925,2.0925,2.0925,2.0925,2.0925,2.0925,2.0925,2.0925,2.0925,2.0925,2.0925,2.0925,2.0925,2.0925,2.0925,2.0925,2.0925,2.0925,2.0925,2.0925,2.0925,2.0925,2.0925,2.0925,2.0925,2.0925,2.0925,2.0925,2.0925,2.0925,2.0925,2.0925,2.0925,2.0925,2.0826,2.0628,2.0379,2.0261,1.9738,1.9388,1.9636,1.9052,1.8729,1.8697,1.8612,1.8489,1.8481,1.8489,1.8481,1.8574,1.8651,1.8673,1.8557,1.8697,1.8743,1.8686,1.8621,1.8255,1.7954,1.7596,1.735,1.6974,1.6761,1.6761,1.6705,1.6705,1.6689,1.6689,1.6689,1.6689,1.6689,1.6689,1.6689,1.6689,1.6689,1.6689,1.6689,1.6689,1.6689,1.6689,1.6689,1.6721,1.6792,1.6816,1.6953,1.3688,1.3688,1.3688,1.3589,1.3468,1.3423,1.3273,1.3238,1.4113,1.4418,1.4595,1.5387,1.5808,1.6293,1.71,1.8213,1.9063,1.948,1.9687,1.9732,1.9939,1.999,1.9879,2.0086,2.0138,2.0145,2.0197,2.0498,2.0712,2.0814,2.0865,2.0814,2.0822,2.0873,2.0873,2.0873,2.0925,2.0925,2.0925,2.0925,2.0925,2.0925,2.0925,2.0925,2.0925,2.0873,2.0873,2.0873,2.0865,2.0873,2.0865,2.0865,2.0925,2.0925,2.0925,2.0925,2.0925,2.0925,2.0925,2.0925,2.0925,2.0925,2.0925,2.0925,2.0842,2.0716,2.0483,2.0392,1.9828,1.9503,1.9605,1.9178,1.8884,1.8697,1.8612,1.8527,1.8489,1.8373,1.8381,1.8326,1.8325,1.8479,1.8525,1.868,1.8765,1.8654,1.8472,1.8128,1.7771,1.7397,1.7143,1.6816,1.6689,1.6689,1.6689,1.6689,1.6689,1.6689,1.6689,1.6689,1.6689,1.6689,1.6689,1.6689,1.6689,1.6689,1.6689,1.6689,1.6689,1.6689,1.6689,1.6689,1.6697,1.6713,1.6729,1.3688,1.3684,1.3566,1.3471,1.3353,1.3041,1.2908,1.2845,1.3028,1.357,1.4169,1.4696,1.5601,1.6617,1.7424,1.822,1.9116,1.9428,1.9576,1.968,1.9776,1.9879,1.9975,2.0027,1.9975,1.9931,2.0027,2.0189,2.0395,2.0454,2.0447,2.0498,2.0617,2.0668,2.0719,2.0822,2.0873,2.0925,2.0925,2.0925,2.0925,2.0925,2.0925,2.0925,2.0873,2.0822,2.0719,2.0873,2.0822,2.0719,2.0668,2.0668,2.0617,2.0557,2.0498,2.0668,2.0676,2.0779,2.0873,2.0873,2.0873,2.0917,2.0865,2.0925,2.0873,2.0755,2.057,2.0424,2.0025,1.9675,1.9438,1.9028,1.8799,1.8658,1.8612,1.8496,1.845,1.8311,1.8187,1.8118,1.7979,1.8001,1.7992,1.7954,1.8014,1.8024,1.7864,1.7569,1.7328,1.7143,1.6937,1.6745,1.6689,1.6689,1.6689,1.6689,1.6689,1.6689,1.6689,1.6689,1.6689,1.6689,1.6689,1.6689,1.6689,1.6689,1.6689,1.6689,1.6689,1.6689,1.6689,1.6689,1.6689,1.6697,1.6705,1.366,1.3599,1.3452,1.3358,1.3277,1.2975,1.2734,1.2658,1.2517,1.2925,1.3521,1.384,1.4857,1.6465,1.6935,1.7463,1.8363,1.9212,1.9316,1.9413,1.962,1.9828,1.9776,1.9828,1.9879,1.9931,1.9776,1.9879,1.9887,1.9939,1.9983,2.0086,2.03,2.0411,2.0462,2.0557,2.0609,2.066,2.066,2.066,2.066,2.0652,2.066,2.0712,2.0668,2.0617,2.0462,2.0557,2.0557,2.0462,2.0411,2.0403,2.0351,2.0292,2.0241,2.0351,2.0403,2.0462,2.0617,2.0719,2.0771,2.0771,2.0712,2.0609,2.066,2.0704,2.0649,2.0315,1.9951,1.9538,1.9232,1.8989,1.879,1.8651,1.8612,1.8527,1.8372,1.8149,1.7865,1.7658,1.7452,1.7218,1.7188,1.7114,1.7194,1.7298,1.7204,1.6974,1.6912,1.6822,1.6792,1.6689,1.6689,1.6689,1.6689,1.6689,1.6689,1.6689,1.6689,1.6689,1.6689,1.6689,1.6689,1.6689,1.6689,1.6689,1.6689,1.6689,1.6689,1.6689,1.6689,1.6689,1.6689,1.6689,1.6689,1.358,1.3405,1.3391,1.3263,1.3069,1.2918,1.2644,1.2438,1.2396,1.2545,1.2871,1.2817,1.3732,1.4648,1.5814,1.6287,1.634,1.8363,1.8475,1.8422,1.8743,1.9272,1.9428,1.948,1.9428,1.9428,1.9472,1.9428,1.9383,1.948,1.9732,2.0034,2.0086,2.0086,2.0138,2.0241,2.0292,2.0292,2.0292,2.0241,2.0241,2.0241,2.0241,2.0241,2.0189,2.0138,2.0138,2.0189,2.0189,2.0138,2.0138,2.0145,2.0086,2.0034,2.0034,2.0086,2.0138,2.0189,2.0292,2.0462,2.0522,2.0462,2.0351,2.0292,2.0292,2.0241,2.0151,2.0064,1.9732,1.9478,1.9253,1.9059,1.8659,1.8527,1.8341,1.8202,1.8063,1.7923,1.7618,1.7217,1.6953,1.6709,1.6464,1.6393,1.656,1.6685,1.6823,1.661,1.6646,1.6629,1.6696,1.6689,1.6689,1.6689,1.6689,1.6689,1.6689,1.6689,1.6689,1.6689,1.6689,1.6689,1.6689,1.6689,1.6689,1.6689,1.6689,1.6689,1.6689,1.6689,1.6689,1.6689,1.6689,1.6689,1.6689,1.357,1.3381,1.3249,1.3127,1.2923,1.2654,1.2517,1.2396,1.2382,1.2876,1.3467,1.4207,1.4793,1.5221,1.5541,1.5914,1.6021,1.6664,1.7199,1.7681,1.8108,1.8646,1.8959,1.922,1.9272,1.9272,1.9272,1.9272,1.9324,1.9272,1.9376,1.9576,1.9776,1.9828,1.9887,1.9983,2.0027,2.0086,2.0086,2.0078,2.0138,2.0138,2.0138,2.0138,2.0138,1.9983,1.9931,2.0034,1.9983,1.9879,1.9879,1.9879,1.9835,1.9732,1.9732,1.9835,1.9879,1.9931,2.0019,2.0189,2.0248,2.0241,2.0189,2.0055,1.9958,2.0063,1.9949,1.977,1.9468,1.9131,1.8679,1.8471,1.8257,1.8172,1.8057,1.7888,1.7703,1.7504,1.7165,1.6688,1.6385,1.613,1.5917,1.572,1.5891,1.6124,1.6225,1.6323,1.6389,1.6484,1.6607,1.6689,1.6689,1.6689,1.6689,1.6689,1.6689,1.6689,1.6689,1.6689,1.6689,1.6689,1.6689,1.6689,1.6689,1.6689,1.6689,1.6689,1.6689,1.6689,1.6689,1.6689,1.6689,1.6689,1.6689,1.3532,1.3287,1.3131,1.3008,1.2748,1.2531,1.2382,1.2382,1.2382,1.2822,1.3732,1.453,1.4846,1.49,1.5274,1.5007,1.5007,1.5595,1.6133,1.667,1.7259,1.7793,1.837,1.8848,1.9063,1.9011,1.922,1.9272,1.9272,1.9272,1.9324,1.9376,1.948,1.9583,1.9628,1.9724,1.9872,1.9879,1.9879,1.9879,1.9835,1.9828,1.9835,1.9835,1.9828,1.9732,1.9628,1.9732,1.9732,1.9628,1.9576,1.9583,1.9532,1.948,1.9428,1.9472,1.9576,1.968,1.982,1.9825,1.9795,1.9639,1.9504,1.9496,1.9585,1.9592,1.9295,1.9217,1.8943,1.8656,1.82,1.8214,1.8041,1.7934,1.7812,1.7643,1.7249,1.6979,1.6534,1.6131,1.589,1.5736,1.5643,1.5511,1.5617,1.5856,1.6077,1.6171,1.6299,1.6409,1.6607,1.6648,1.6689,1.6689,1.6689,1.6689,1.6689,1.6689,1.6689,1.6689,1.6689,1.6689,1.6689,1.6689,1.6689,1.6689,1.6689,1.6689,1.6689,1.6689,1.6689,1.6689,1.6689,1.6689,1.6689,1.3447,1.3088,1.3122,1.2937,1.2729,1.2531,1.2382,1.2382,1.2382,1.2491,1.2599,1.2758,1.2758,1.3029,1.3889,1.3786,1.3511,1.4739,1.5334,1.5179,1.6246,1.667,1.714,1.7726,1.8377,1.8115,1.8482,1.9011,1.9272,1.9272,1.9272,1.9272,1.9324,1.9383,1.9331,1.9324,1.9324,1.9331,1.9383,1.9383,1.9428,1.9428,1.9428,1.9428,1.948,1.9428,1.9428,1.9428,1.9428,1.9376,1.9376,1.9376,1.9324,1.9324,1.9324,1.9324,1.9324,1.9324,1.9309,1.9279,1.9137,1.9021,1.891,1.8703,1.85,1.8421,1.8587,1.8664,1.8401,1.8256,1.8158,1.8065,1.7849,1.7659,1.7561,1.7394,1.6981,1.6542,1.616,1.5934,1.565,1.5452,1.546,1.5445,1.5445,1.5619,1.5888,1.6046,1.617,1.6368,1.6566,1.6648,1.6689,1.6689,1.6689,1.6689,1.6689,1.6689,1.6689,1.6689,1.6689,1.6689,1.6689,1.6689,1.6689,1.6689,1.6689,1.6689,1.6689,1.6689,1.6689,1.6689,1.6689,1.6689,1.6689,1.3325,1.3112,1.2979,1.2748,1.2554,1.2474,1.2382,1.2382,1.2382,1.2382,1.2382,1.2382,1.2382,1.2599,1.2708,1.2817,1.2762,1.2762,1.3354,1.432,1.5179,1.5601,1.6074,1.6605,1.7259,1.7635,1.8115,1.8586,1.9272,1.9004,1.9168,1.9272,1.9004,1.9272,1.9272,1.9272,1.9272,1.9272,1.9272,1.9272,1.9272,1.9272,1.9272,1.9272,1.9272,1.9272,1.9272,1.9272,1.9272,1.9272,1.9272,1.9272,1.9272,1.9272,1.9272,1.9272,1.9272,1.9272,1.9125,1.8964,1.8699,1.8591,1.8452,1.824,1.8291,1.8299,1.8299,1.8211,1.8044,1.796,1.7916,1.765,1.7453,1.7379,1.7261,1.7129,1.678,1.6294,1.5949,1.5826,1.5608,1.5455,1.5396,1.5396,1.5389,1.5465,1.5748,1.5963,1.6128,1.6327,1.6484,1.6648,1.6689,1.6689,1.6689,1.6689,1.6689,1.6689,1.6689,1.6689,1.6689,1.6689,1.6689,1.6689,1.6689,1.6689,1.6689,1.6689,1.6689,1.6689,1.6689,1.6689,1.6689,1.6689,1.6689,1.3263,1.3108,1.2908,1.2597,1.2316,1.2354,1.2382,1.2382,1.2382,1.2382,1.2382,1.2382,1.2382,1.2382,1.2382,1.2382,1.2382,1.2436,1.2599,1.3624,1.4116,1.432,1.4745,1.5488,1.6027,1.6564,1.6823,1.7246,1.766,1.7772,1.7989,1.8199,1.8199,1.8468,1.8795,1.9272,1.9272,1.9272,1.9272,1.9272,1.9272,1.9272,1.9272,1.9272,1.9272,1.9272,1.9272,1.9272,1.9272,1.9272,1.9272,1.9272,1.9272,1.9272,1.9272,1.9272,1.9272,1.9272,1.914,1.8679,1.8546,1.854,1.8218,1.7991,1.7962,1.7896,1.7904,1.7845,1.7757,1.7699,1.7611,1.7308,1.7296,1.7216,1.7077,1.6939,1.6807,1.6375,1.6257,1.6096,1.5826,1.5615,1.5425,1.5396,1.5389,1.5506,1.5582,1.5831,1.6046,1.6245,1.6443,1.6566,1.6689,1.6689,1.6689,1.6689,1.6689,1.6689,1.6642,1.6586,1.6689,1.6689,1.6689,1.6689,1.6689,1.6689,1.6689,1.6689,1.6689,1.6689,1.6689,1.6689,1.6689,1.6689,1.6689,1.3249,1.3098,1.2889,1.2502,1.2214,1.2283,1.2363,1.2382,1.2382,1.2382,1.2382,1.2382,1.2382,1.2382,1.2382,1.2382,1.2382,1.2382,1.2491,1.2762,1.3467,1.33,1.3565,1.4476,1.4852,1.4798,1.506,1.5689,1.5524,1.5949,1.638,1.6592,1.6327,1.7022,1.8035,1.8684,1.89,1.9168,1.9272,1.9272,1.9272,1.9272,1.9272,1.9272,1.9272,1.9272,1.9272,1.9272,1.9272,1.9272,1.9272,1.9272,1.9272,1.9272,1.9272,1.9272,1.9272,1.9272,1.9177,1.8664,1.8372,1.8321,1.7772,1.7472,1.7413,1.7468,1.7505,1.7483,1.7465,1.7413,1.7286,1.7282,1.723,1.7121,1.6996,1.6954,1.6956,1.6794,1.6743,1.6514,1.614,1.5906,1.5579,1.5484,1.5533,1.5423,1.5541,1.5707,1.5914,1.6162,1.636,1.6558,1.6607,1.6648,1.6673,1.6618,1.6539,1.6491,1.6468,1.6428,1.6531,1.6562,1.6475,1.6467,1.6634,1.6689,1.6689,1.6689,1.6689,1.6689,1.6689,1.6689,1.6689,1.6689,1.6689,1.3036,1.2875,1.2469,1.2194,1.2104,1.2147,1.225,1.2372,1.2382,1.2382,1.2382,1.2382,1.2382,1.2382,1.2382,1.2382,1.2382,1.2382,1.2382,1.2654,1.2871,1.255,1.2654,1.3137,1.3511,1.3835,1.4153,1.4513,1.537,1.531,1.5037,1.547,1.499,1.5677,1.6427,1.7074,1.8094,1.8952,1.9168,1.922,1.922,1.922,1.922,1.922,1.922,1.922,1.922,1.922,1.922,1.9279,1.9272,1.9272,1.9272,1.9272,1.9272,1.9272,1.9272,1.9264,1.9162,1.8672,1.8306,1.8196,1.7706,1.7374,1.7286,1.7286,1.7286,1.7286,1.7286,1.7286,1.7286,1.7296,1.726,1.7194,1.7198,1.736,1.7446,1.7705,1.765,1.7287,1.6911,1.6532,1.6189,1.5673,1.5701,1.5526,1.5472,1.5646,1.5805,1.6061,1.6278,1.6476,1.6472,1.6448,1.6515,1.6459,1.6404,1.6325,1.6238,1.6126,1.6079,1.6103,1.6158,1.6285,1.6531,1.6642,1.6689,1.6689,1.6689,1.6689,1.6689,1.6689,1.6689,1.6689,1.6771,1.2937,1.2715,1.2313,1.2043,1.2006,1.1874,1.1954,1.2142,1.2311,1.2382,1.2382,1.2382,1.2382,1.2382,1.2382,1.2382,1.2382,1.2382,1.2382,1.2382,1.2382,1.2273,1.2169,1.2169,1.2486,1.2812,1.2861,1.296,1.3927,1.3809,1.3485,1.4078,1.3809,1.4556,1.5464,1.628,1.7186,1.8206,1.8907,1.8959,1.8959,1.8959,1.8959,1.9011,1.8952,1.8959,1.8959,1.8952,1.8952,1.9011,1.9011,1.9123,1.9175,1.9227,1.9272,1.9272,1.9272,1.9272,1.9191,1.8818,1.8503,1.8218,1.7768,1.753,1.7323,1.7286,1.7286,1.7286,1.7286,1.7286,1.7286,1.7286,1.7279,1.7271,1.7591,1.7909,1.8272,1.871,1.8475,1.8137,1.7775,1.7445,1.6975,1.6384,1.6093,1.6259,1.6017,1.5582,1.5728,1.5872,1.6151,1.6394,1.6294,1.6226,1.6292,1.6365,1.6213,1.6094,1.5928,1.5847,1.5704,1.5753,1.5952,1.6222,1.6475,1.6586,1.6689,1.6689,1.6689,1.6689,1.6689,1.6689,1.6689,1.6689,1.6812,1.2813,1.2696,1.2236,1.1911,1.1756,1.1549,1.1647,1.1831,1.2137,1.234,1.234,1.2377,1.2382,1.2382,1.2382,1.2382,1.2382,1.2382,1.2382,1.2382,1.2382,1.2219,1.2005,1.2001,1.2001,1.1618,1.1455,1.1773,1.1232,1.15,1.2146,1.258,1.2091,1.295,1.499,1.5482,1.6393,1.7516,1.8213,1.8377,1.8482,1.8422,1.8422,1.8422,1.8475,1.8475,1.8422,1.8422,1.8422,1.8534,1.8639,1.881,1.8974,1.9182,1.9279,1.9272,1.9272,1.9227,1.9147,1.8811,1.8505,1.8264,1.795,1.76,1.7395,1.7293,1.7286,1.7286,1.7286,1.7286,1.7286,1.7333,1.738,1.7699,1.8102,1.8557,1.9015,1.9435,1.9586,1.9273,1.8958,1.866,1.8398,1.7821,1.7356,1.7383,1.7074,1.6369,1.6099,1.622,1.6174,1.6468,1.6456,1.6395,1.6349,1.6325,1.6097,1.5898,1.5817,1.5505,1.5346,1.5537,1.5801,1.6079,1.6365,1.657,1.6689,1.6689,1.6689,1.6689,1.6689,1.6689,1.6689,1.6689,1.6771,1.2668,1.2479,1.2068,1.169,1.1387,1.1472,1.1539,1.1614,1.185,1.2006,1.2165,1.2297,1.2382,1.2382,1.2382,1.2382,1.2382,1.2382,1.2382,1.2387,1.2387,1.206,1.1787,1.1787,1.1623,1.135,1.1126,1.0962,1.0907,1.0962,1.1017,1.1337,1.15,1.3166,1.4024,1.4626,1.6133,1.7087,1.7575,1.8055,1.8265,1.837,1.8422,1.837,1.837,1.8318,1.8318,1.8377,1.837,1.8422,1.8475,1.8646,1.8869,1.913,1.9279,1.9272,1.9272,1.9227,1.8998,1.8744,1.8492,1.8102,1.7777,1.75,1.737,1.733,1.7279,1.7279,1.7286,1.7286,1.7333,1.7419,1.7606,1.8149,1.8788,1.933,1.9877,2.026,2.0639,2.0461,2.0185,1.9934,1.9694,1.9211,1.8836,1.8523,1.833,1.7879,1.745,1.7311,1.6598,1.6706,1.6813,1.6766,1.6661,1.6622,1.6546,1.623,1.6096,1.5602,1.5142,1.5479,1.591,1.599,1.619,1.6412,1.6562,1.6673,1.6673,1.6681,1.6689,1.6689,1.6689,1.6689,1.673,1.2388,1.2208,1.1855,1.1501,1.125,1.1326,1.1328,1.1261,1.1392,1.1494,1.1594,1.1998,1.2297,1.2363,1.2382,1.2377,1.2377,1.2382,1.2273,1.2278,1.2169,1.1841,1.1678,1.1568,1.1295,1.1017,1.0911,1.0852,1.0798,1.1341,1.1555,1.1122,1.2037,1.3112,1.3383,1.4948,1.618,1.6717,1.7312,1.774,1.8108,1.8055,1.8055,1.8048,1.8055,1.8055,1.8055,1.8055,1.8055,1.816,1.8265,1.8691,1.8966,1.9227,1.9279,1.9272,1.9279,1.9175,1.8909,1.8699,1.8404,1.7996,1.7887,1.7807,1.7125,1.7084,1.7216,1.723,1.7271,1.7286,1.7559,1.7652,1.8056,1.8557,1.9786,2.0791,2.1329,2.181,2.1987,2.1968,2.1621,2.1256,2.0772,1.9687,1.9385,1.9615,1.9419,1.865,1.8368,1.8284,1.7592,1.7179,1.7354,1.7399,1.7403,1.7347,1.7255,1.6887,1.6383,1.6275,1.6072,1.5958,1.6012,1.6201,1.6238,1.6166,1.6309,1.6573,1.6667,1.6665,1.6681,1.6689,1.673,1.6812,1.7049,1.1985,1.1948,1.1616,1.1366,1.1159,1.11,1.0958,1.0793,1.0943,1.0896,1.0879,1.1547,1.2012,1.2234,1.2252,1.229,1.224,1.209,1.2054,1.2001,1.1951,1.1623,1.135,1.1131,1.0966,1.0857,1.0747,1.0747,1.0747,1.1286,1.15,1.1286,1.2417,1.3922,1.4406,1.5269,1.6287,1.71,1.7589,1.7589,1.7641,1.7589,1.7635,1.7635,1.7589,1.7589,1.7589,1.7582,1.7635,1.7793,1.8055,1.8436,1.8862,1.9071,1.9123,1.9123,1.9175,1.9018,1.8781,1.874,1.8389,1.8125,1.8194,1.7826,1.7121,1.6969,1.7055,1.7086,1.7128,1.7387,1.7657,1.8057,1.8509,1.9443,2.0854,2.1952,2.2492,2.295,2.296,2.3013,2.2721,2.2306,2.1537,2.0422,2.0251,2.0464,2.0117,1.928,1.8719,1.8824,1.8547,1.8227,1.8219,1.8264,1.8006,1.8057,1.7926,1.7295,1.6866,1.6927,1.6925,1.6685,1.6504,1.651,1.6505,1.6522,1.6433,1.6618,1.6637,1.6676,1.6673,1.673,1.7049,1.7204,1.7521,1.163,1.1505,1.1428,1.1189,1.0887,1.0659,1.0511,1.0511,1.0497,1.0603,1.069,1.0828,1.1257,1.1808,1.1634,1.1684,1.1936,1.1778,1.1684,1.1655,1.1638,1.1383,1.1185,1.1017,1.0911,1.0802,1.0692,1.0692,1.0802,1.1017,1.1013,1.0852,1.1982,1.3275,1.4239,1.5209,1.624,1.6995,1.7424,1.7424,1.7589,1.7589,1.7589,1.7589,1.7589,1.7589,1.7589,1.7589,1.7589,1.7694,1.7905,1.8174,1.8436,1.875,1.8803,1.8803,1.8855,1.8705,1.8513,1.8499,1.8094,1.7775,1.7738,1.7512,1.7053,1.6844,1.686,1.6677,1.6847,1.7311,1.7663,1.8274,1.8807,2.0473,2.2026,2.2406,2.2872,2.3008,2.3057,2.3071,2.2955,2.2616,2.2241,2.149,2.1188,2.1199,2.0866,2.0108,1.9615,1.955,1.9373,1.9165,1.8939,1.8464,1.7994,1.8526,1.8447,1.7783,1.7429,1.7602,1.759,1.724,1.7126,1.7072,1.7097,1.7179,1.7068,1.6693,1.6655,1.67,1.6692,1.6804,1.7204,1.7683,1.8118]}]]